ftp/pub/palmer/observations_modified/2019/October/original_files/AR191019_BASE.txt

Download

Sample DateTime	Unit Id	WS Avg 2min	WD Avg 2min	WGS 10min	WGD 10min	Air Temp	Rel Humidity	Dew Point	Pyranometer	Quantum	Air Pressure	Snow Level	Rainfall	PW Current	Visibility	CBase 1	CBase 2	CBase 3	Vert Vis
2019/10/19 00:00:00	BASE	4.42	316	5.45	320	-2.8	93	-3.8	0	0	988.2	NA	0.0000		9999	2230	0	0	0
2019/10/19 00:01:00	BASE	4.67	317	5.45	320	-2.8	93	-3.8	0	0	988.2	NA	0.0000		9999	1770	0	0	0
2019/10/19 00:02:00	BASE	4.73	316	5.04	316	-2.8	93	-3.8	0	0	988.2	NA	0.0000		9999	2260	0	0	0
2019/10/19 00:03:00	BASE	4.58	313	5.04	316	-2.9	93	-3.8	0	0	988.2	NA	0.0000		9999	2230	0	0	0
2019/10/19 00:04:00	BASE	4.64	311	5.25	313	-2.9	94	-3.8	0	0	988.2	NA	0.0000		9999	2200	0	0	0
2019/10/19 00:05:00	BASE	4.73	310	5.25	313	-2.9	94	-3.7	0	0	988.2	NA	0.0000		9999	2100	0	0	0
2019/10/19 00:06:00	BASE	5.01	308	6.07	309	-2.9	94	-3.7	0	0	988.2	NA	0.0000		9999	2260	0	0	0
2019/10/19 00:07:00	BASE	5.61	308	6.07	304	-2.9	94	-3.7	0	0	988.2	NA	0.0000		9999	2170	0	0	0
2019/10/19 00:08:00	BASE	5.64	311	6.07	304	-2.9	94	-3.7	0	0	988.2	NA	0.0000		9999	2200	0	0	0
2019/10/19 00:09:00	BASE	5.42	316	6.07	304	-2.9	94	-3.7	0	0	988.2	NA	0.0000		9999	2200	0	0	0
2019/10/19 00:10:00	BASE	5.33	320	6.07	304	-2.9	94	-3.7	0	0	988.2	NA	0.0000		9999	2130	0	0	0
2019/10/19 00:11:00	BASE	5.18	323	6.07	304	-2.8	94	-3.7	0	0	988.1	NA	0.0000		9999	2200	0	0	0
2019/10/19 00:12:00	BASE	5.14	322	6.07	304	-2.9	94	-3.7	0	0	988.1	NA	0.0000		9999	2200	0	0	0
2019/10/19 00:13:00	BASE	5.20	321	6.07	304	-2.9	94	-3.7	0	0	988.0	NA	0.0000		9999	2170	0	0	0
2019/10/19 00:14:00	BASE	5.30	321	6.07	304	-2.9	94	-3.7	0	0	988.0	NA	0.0000		9999	2170	0	0	0
2019/10/19 00:15:00	BASE	5.45	320	6.07	304	-2.9	94	-3.7	0	0	988.1	NA	0.0000		9999	2230	0	0	0
2019/10/19 00:16:00	BASE	5.25	319	6.07	304	-2.9	94	-3.7	0	0	988.2	NA	0.0000		9999	2260	0	0	0
2019/10/19 00:17:00	BASE	5.00	321	5.92	321	-2.9	94	-3.7	0	0	988.2	NA	0.0000		9999	2330	0	0	0
2019/10/19 00:18:00	BASE	5.21	325	5.92	321	-2.9	94	-3.7	0	0	988.2	NA	0.0000		9999	2330	0	0	0
2019/10/19 00:19:00	BASE	5.38	328	5.92	321	-2.9	94	-3.7	0	0	988.2	NA	0.0000		9999	2300	0	0	0
2019/10/19 00:20:00	BASE	5.42	330	5.92	321	-2.9	94	-3.7	0	0	988.2	NA	0.0000		9999	1800	2430	0	0
2019/10/19 00:21:00	BASE	5.43	333	5.92	321	-2.9	94	-3.7	0	0	988.2	NA	0.0000		9999	1840	0	0	0
2019/10/19 00:22:00	BASE	5.67	336	6.38	336	-2.9	94	-3.7	0	0	988.2	NA	0.0000		9999	1900	2620	0	0
2019/10/19 00:23:00	BASE	5.72	336	6.38	336	-2.9	94	-3.7	0	0	988.2	NA	0.0000		9999	1870	0	0	0
2019/10/19 00:24:00	BASE	5.45	336	6.38	336	-2.9	94	-3.7	0	0	988.2	NA	0.0000		9999	1900	0	0	0
2019/10/19 00:25:00	BASE	5.43	337	6.38	336	-2.9	94	-3.8	0	0	988.2	NA	0.0000		9999	1970	0	0	0
2019/10/19 00:26:00	BASE	5.46	338	6.38	336	-2.9	94	-3.8	0	0	988.2	NA	0.0000		9999	2300	0	0	0
2019/10/19 00:27:00	BASE	5.61	339	6.38	336	-2.9	93	-3.8	0	0	988.2	NA	0.0000		9999	2200	0	0	0
2019/10/19 00:28:00	BASE	5.77	340	6.38	336	-2.9	93	-3.8	0	0	988.2	NA	0.0000		9999	2230	0	0	0
2019/10/19 00:29:00	BASE	5.74	340	6.38	336	-2.9	93	-3.8	0	0	988.2	NA	0.0000		9999	2130	0	0	0
2019/10/19 00:30:00	BASE	5.73	344	6.58	345	-2.9	93	-3.8	0	0	988.2	NA	0.0000		9999	2260	0	0	0
2019/10/19 00:31:00	BASE	6.01	347	6.74	345	-2.9	93	-3.8	0	0	988.2	NA	0.0000		9999	2170	0	0	0
2019/10/19 00:32:00	BASE	5.83	346	6.74	345	-2.9	93	-3.8	0	0	988.2	NA	0.0000		9999	2170	0	0	0
2019/10/19 00:33:00	BASE	5.76	347	6.74	345	-2.9	93	-3.8	0	0	988.2	NA	0.0000		9999	2130	0	0	0
2019/10/19 00:34:00	BASE	5.97	346	6.74	345	-2.9	93	-3.9	0	0	988.2	NA	0.0000		9999	2100	0	0	0
2019/10/19 00:35:00	BASE	5.73	346	6.74	345	-2.8	93	-3.9	0	0	988.2	NA	0.0000		9999	2230	0	0	0
2019/10/19 00:36:00	BASE	5.43	346	6.74	345	-2.8	92	-3.9	0	0	988.2	NA	0.0000		9999	2170	0	0	0
2019/10/19 00:37:00	BASE	5.08	342	6.74	345	-2.9	92	-3.9	0	0	988.2	NA	0.0000		9999	2200	0	0	0
2019/10/19 00:38:00	BASE	4.71	341	6.74	345	-2.9	92	-4.0	0	0	988.2	NA	0.0000		9999	2230	0	0	0
2019/10/19 00:39:00	BASE	4.70	346	6.74	345	-2.9	92	-4.0	0	0	988.2	NA	0.0000		9999	2300	0	0	0
2019/10/19 00:40:00	BASE	4.93	347	6.74	345	-2.9	91	-4.1	0	0	988.2	NA	0.0000		9999	2400	0	0	0
2019/10/19 00:41:00	BASE	4.90	347	6.48	344	-2.9	91	-4.1	0	0	988.2	NA	0.0000		9999	2330	2790	0	0
2019/10/19 00:42:00	BASE	4.73	345	6.48	344	-2.9	91	-4.2	0	0	988.2	NA	0.0000		9999	2300	0	0	0
2019/10/19 00:43:00	BASE	4.70	342	6.22	345	-2.8	90	-4.2	0	0	988.2	NA	0.0000		9999	2300	0	0	0
2019/10/19 00:44:00	BASE	4.48	340	5.81	345	-2.8	90	-4.3	0	0	988.2	NA	0.0000		9999	2260	0	0	0
2019/10/19 00:45:00	BASE	4.24	337	5.81	345	-2.8	89	-4.4	0	0	988.2	NA	0.0000		9999	2300	0	0	0
2019/10/19 00:46:00	BASE	4.16	337	5.30	339	-2.8	89	-4.4	0	0	988.2	NA	0.0000		9999	2330	0	0	0
2019/10/19 00:47:00	BASE	4.13	347	5.25	343	-2.8	88	-4.5	0	0	988.2	NA	0.0000		9999	2330	0	0	0
2019/10/19 00:48:00	BASE	4.09	0	5.25	343	-2.8	88	-4.5	0	0	988.2	NA	0.0000		9999	2330	0	0	0
2019/10/19 00:49:00	BASE	4.44	4	5.50	3	-2.8	88	-4.5	0	0	988.2	NA	0.0000		9999	2330	0	0	0
2019/10/19 00:50:00	BASE	4.87	4	5.50	3	-2.8	88	-4.5	0	0	988.2	NA	0.0000		9999	2330	0	0	0
2019/10/19 00:51:00	BASE	4.75	6	5.50	3	-2.8	88	-4.5	0	0	988.2	NA	0.0000		9999	2360	0	0	0
2019/10/19 00:52:00	BASE	4.78	10	5.50	3	-2.9	89	-4.5	0	0	988.2	NA	0.0000		9999	2360	0	0	0
2019/10/19 00:53:00	BASE	5.25	13	5.81	11	-2.9	89	-4.4	0	0	988.2	NA	0.0000		9999	2400	0	0	0
2019/10/19 00:54:00	BASE	5.37	13	5.81	11	-2.9	90	-4.3	0	0	988.2	NA	0.0000		9999	2360	0	0	0
2019/10/19 00:55:00	BASE	5.03	13	5.81	11	-2.9	90	-4.3	0	0	988.2	NA	0.0000		9999	2430	0	0	0
2019/10/19 00:56:00	BASE	4.95	17	5.81	11	-2.9	91	-4.2	0	0	988.2	NA	0.0000		9999	2260	0	0	0
2019/10/19 00:57:00	BASE	5.11	18	5.81	15	-2.9	91	-4.2	0	0	988.2	NA	0.0000		9999	2200	0	0	0
2019/10/19 00:58:00	BASE	5.17	16	5.81	15	-2.9	91	-4.2	0	0	988.2	NA	0.0000		9999	2200	0	0	0
2019/10/19 00:59:00	BASE	5.08	14	5.81	15	-2.9	91	-4.1	0	0	988.2	NA	0.0000		9999	2230	0	0	0
2019/10/19 01:00:00	BASE	4.66	16	5.81	15	-2.9	92	-4.1	0	0	988.2	NA	0.0000		9999	2300	0	0	0
2019/10/19 01:01:00	BASE	4.48	17	5.81	15	-2.9	92	-4.1	0	0	988.2	NA	0.0000		9999	2300	0	0	0
2019/10/19 01:02:00	BASE	4.40	15	5.81	15	-2.9	92	-4.1	0	0	988.2	NA	0.0000		9999	2360	0	0	0
2019/10/19 01:03:00	BASE	3.97	15	5.81	15	-3.0	91	-4.2	0	0	988.2	NA	0.0000		9999	2260	0	0	0
2019/10/19 01:04:00	BASE	3.93	12	5.81	15	-3.0	91	-4.2	0	0	988.2	NA	0.0000		9999	2230	0	0	0
2019/10/19 01:05:00	BASE	3.94	7	5.81	15	-3.0	91	-4.2	0	0	988.2	NA	0.0000		9999	2230	0	0	0
2019/10/19 01:06:00	BASE	3.67	2	5.81	15	-3.0	91	-4.2	0	0	988.2	NA	0.0000		9999	2300	0	0	0
2019/10/19 01:07:00	BASE	3.59	0	5.61	15	-3.0	91	-4.2	0	0	988.2	NA	0.0000		9999	2300	0	0	0
2019/10/19 01:08:00	BASE	3.53	1	5.35	10	-3.0	91	-4.2	0	0	988.2	NA	0.0000		9999	2330	0	0	0
2019/10/19 01:09:00	BASE	3.62	7	4.99	17	-2.9	91	-4.3	0	0	988.2	NA	0.0000		9999	2360	0	0	0
2019/10/19 01:10:00	BASE	3.82	14	4.99	17	-2.9	90	-4.3	0	0	988.2	NA	0.0000		9999	2330	0	0	0
2019/10/19 01:11:00	BASE	4.08	14	4.78	18	-2.9	90	-4.3	0	0	988.2	NA	0.0000		9999	2330	0	0	0
2019/10/19 01:12:00	BASE	4.48	12	5.30	12	-2.9	90	-4.4	0	0	988.2	NA	0.0000		9999	2330	0	0	0
2019/10/19 01:13:00	BASE	4.88	13	5.61	12	-3.0	90	-4.3	0	0	988.2	NA	0.0000		9999	2360	0	0	0
2019/10/19 01:14:00	BASE	5.22	14	5.81	13	-3.0	90	-4.3	0	0	988.2	NA	0.0000		9999	2230	0	0	0
2019/10/19 01:15:00	BASE	5.46	12	5.81	10	-3.0	91	-4.3	0	0	988.2	NA	0.0000		9999	2260	0	0	0
2019/10/19 01:16:00	BASE	5.56	12	5.81	17	-3.0	91	-4.3	0	0	988.2	NA	0.0000		9999	2300	0	0	0
2019/10/19 01:17:00	BASE	5.65	12	6.17	12	-3.0	91	-4.3	0	0	988.2	NA	0.0000		9999	2330	0	0	0
2019/10/19 01:18:00	BASE	6.20	13	6.94	14	-3.0	91	-4.3	0	0	988.2	NA	0.0000		9999	2360	0	0	0
2019/10/19 01:19:00	BASE	6.59	16	7.10	18	-3.0	91	-4.3	0	0	988.2	NA	0.0000		9999	2330	0	0	0
2019/10/19 01:20:00	BASE	6.52	19	7.10	18	-3.0	91	-4.3	0	0	988.2	NA	0.0000		9999	2300	0	0	0
2019/10/19 01:21:00	BASE	6.58	21	7.10	18	-3.0	91	-4.3	0	0	988.2	NA	0.0000		9999	2300	0	0	0
2019/10/19 01:22:00	BASE	6.66	21	7.25	16	-3.0	91	-4.3	0	0	988.2	NA	0.0000		9999	2260	0	0	0
2019/10/19 01:23:00	BASE	6.62	22	7.25	16	-3.0	91	-4.3	0	0	988.2	NA	0.0000		9999	2260	0	0	0
2019/10/19 01:24:00	BASE	6.51	24	7.25	16	-3.0	91	-4.3	0	0	988.2	NA	0.0000		9999	2330	0	0	0
2019/10/19 01:25:00	BASE	6.61	24	7.25	16	-3.0	90	-4.4	0	0	988.2	NA	0.0000		9999	2260	0	0	0
2019/10/19 01:26:00	BASE	6.31	23	7.25	16	-3.0	90	-4.4	0	0	988.2	NA	0.0000		9999	2130	0	0	0
2019/10/19 01:27:00	BASE	6.08	24	7.25	16	-3.0	90	-4.4	0	0	988.2	NA	0.0000		9999	2100	0	0	0
2019/10/19 01:28:00	BASE	6.30	22	7.25	16	-3.0	90	-4.4	0	0	988.2	NA	0.0000		9999	2170	0	0	0
2019/10/19 01:29:00	BASE	6.30	20	7.25	16	-3.0	90	-4.4	0	0	988.2	NA	0.0000		9999	2130	0	0	0
2019/10/19 01:30:00	BASE	6.18	22	7.25	16	-3.0	90	-4.4	0	0	988.2	NA	0.0000		9999	2100	0	0	0
2019/10/19 01:31:00	BASE	5.96	22	7.25	16	-3.0	90	-4.4	0	0	988.2	NA	0.0000		9999	2100	0	0	0
2019/10/19 01:32:00	BASE	5.85	22	7.15	23	-3.0	90	-4.5	0	0	988.2	NA	0.0000		9999	2100	0	0	0
2019/10/19 01:33:00	BASE	5.66	23	7.15	23	-3.0	89	-4.5	0	0	988.2	NA	0.0000		9999	2170	0	0	0
2019/10/19 01:34:00	BASE	5.67	24	7.15	23	-3.0	89	-4.5	0	0	988.2	NA	0.0000		9999	2230	0	0	0
2019/10/19 01:35:00	BASE	5.53	25	6.69	20	-3.0	89	-4.6	0	0	988.2	NA	0.0000		9999	2300	0	0	0
2019/10/19 01:36:00	BASE	5.16	25	6.69	20	-3.0	89	-4.6	0	0	988.2	NA	0.0000		9999	2260	0	0	0
2019/10/19 01:37:00	BASE	5.07	25	6.64	23	-3.0	89	-4.6	0	0	988.2	NA	0.0000		9999	2200	0	0	0
2019/10/19 01:38:00	BASE	4.93	22	6.64	23	-3.0	89	-4.6	0	0	988.2	NA	0.0000		9999	2200	0	0	0
2019/10/19 01:39:00	BASE	4.61	21	6.64	23	-3.0	89	-4.6	0	0	988.3	NA	0.0000		9999	2200	0	0	0
2019/10/19 01:40:00	BASE	4.43	21	6.38	19	-3.0	89	-4.6	0	0	988.3	NA	0.0000		9999	2200	0	0	0
2019/10/19 01:41:00	BASE	4.70	22	6.38	19	-3.0	88	-4.6	0	0	988.3	NA	0.0000		9999	2260	0	0	0
2019/10/19 01:42:00	BASE	5.01	29	6.12	26	-3.0	88	-4.7	0	0	988.3	NA	0.0000		9999	2200	0	0	0
2019/10/19 01:43:00	BASE	5.37	33	6.12	26	-3.0	88	-4.7	0	0	988.3	NA	0.0000		9999	2260	0	0	0
2019/10/19 01:44:00	BASE	5.09	33	5.81	34	-3.0	88	-4.6	0	0	988.3	NA	0.0000		9999	2230	0	0	0
2019/10/19 01:45:00	BASE	4.22	30	5.81	34	-3.0	89	-4.6	0	0	988.3	NA	0.0000		9999	2200	0	0	0
2019/10/19 01:46:00	BASE	4.11	30	5.81	34	-3.0	89	-4.6	0	0	988.3	NA	0.0000		9999	2170	0	0	0
2019/10/19 01:47:00	BASE	4.10	30	5.81	34	-3.0	89	-4.6	0	0	988.3	NA	0.0000		9999	2230	0	0	0
2019/10/19 01:48:00	BASE	3.81	30	5.81	34	-3.0	88	-4.6	0	0	988.3	NA	0.0000		9999	2200	0	0	0
2019/10/19 01:49:00	BASE	3.81	25	5.81	34	-3.0	88	-4.6	0	0	988.3	NA	0.0000		9999	2170	0	0	0
2019/10/19 01:50:00	BASE	4.25	9	5.81	34	-2.9	88	-4.7	0	0	988.3	NA	0.0000		9999	2130	0	0	0
2019/10/19 01:51:00	BASE	4.29	2	5.81	34	-3.0	88	-4.7	0	0	988.3	NA	0.0000		9999	2130	0	0	0
2019/10/19 01:52:00	BASE	3.75	2	5.81	34	-3.0	88	-4.7	0	0	988.3	NA	0.0000		9999	2230	0	0	0
2019/10/19 01:53:00	BASE	3.21	5	5.25	31	-3.0	87	-4.8	0	0	988.3	NA	0.0000		9999	2230	0	0	0
2019/10/19 01:54:00	BASE	2.48	15	5.14	1	-3.0	87	-4.9	0	0	988.3	NA	0.0000		9999	2230	0	0	0
2019/10/19 01:55:00	BASE	2.37	22	5.14	1	-3.0	87	-4.9	0	0	988.3	NA	0.0000		9999	2230	0	0	0
2019/10/19 01:56:00	BASE	2.87	29	5.14	1	-3.0	86	-5.0	0	0	988.2	NA	0.0000		9999	2260	0	0	0
2019/10/19 01:57:00	BASE	2.72	48	5.14	1	-3.0	86	-5.0	0	0	988.2	NA	0.0000		9999	2300	0	0	0
2019/10/19 01:58:00	BASE	2.14	79	5.14	1	-3.0	86	-5.0	0	0	988.2	NA	0.0000		9999	2330	0	0	0
2019/10/19 01:59:00	BASE	1.61	85	5.14	1	-3.0	86	-5.0	0	0	988.2	NA	0.0000		9999	2300	0	0	0
2019/10/19 02:00:00	BASE	1.12	69	4.78	6	-3.0	86	-5.0	0	0	988.1	NA	0.0000		9999	2260	2920	0	0
2019/10/19 02:01:00	BASE	1.89	60	4.01	354	-3.0	86	-4.9	0	0	988.0	NA	0.0000		9999	2300	0	0	0
2019/10/19 02:02:00	BASE	3.25	58	4.01	62	-3.0	87	-4.9	0	0	988.0	NA	0.0000		9999	2330	0	0	0
2019/10/19 02:03:00	BASE	3.69	64	4.48	66	-3.0	87	-4.9	0	0	988.0	NA	0.0000		9999	2300	0	0	0
2019/10/19 02:04:00	BASE	3.89	66	4.48	66	-3.0	87	-4.9	0	0	988.0	NA	0.0000		9999	2330	0	0	0
2019/10/19 02:05:00	BASE	3.91	62	4.48	66	-3.0	87	-4.9	0	0	987.9	NA	0.0000		9999	2300	0	0	0
2019/10/19 02:06:00	BASE	4.00	60	4.68	54	-3.0	87	-4.9	0	0	987.9	NA	0.0000		9999	2330	0	0	0
2019/10/19 02:07:00	BASE	4.45	55	4.94	47	-3.0	86	-4.9	0	0	987.9	NA	0.0000		9999	2300	0	0	0
2019/10/19 02:08:00	BASE	4.68	50	4.94	51	-3.0	86	-5.0	0	0	987.9	NA	0.0000		9999	2260	0	0	0
2019/10/19 02:09:00	BASE	4.61	50	4.94	51	-3.0	86	-5.0	0	0	987.9	NA	0.0000		9999	2230	0	0	0
2019/10/19 02:10:00	BASE	4.41	51	5.25	44	-3.0	86	-5.0	0	0	987.9	NA	0.0000		9999	2230	0	0	0
2019/10/19 02:11:00	BASE	4.44	53	6.12	55	-3.0	86	-5.0	0	0	987.9	NA	0.0000		9999	2230	0	0	0
2019/10/19 02:12:00	BASE	4.84	53	6.12	55	-3.0	86	-5.0	0	0	987.9	NA	0.0000		9999	2200	0	0	0
2019/10/19 02:13:00	BASE	4.83	48	6.12	55	-3.0	86	-5.1	0	0	987.9	NA	0.0000		9999	2230	0	0	0
2019/10/19 02:14:00	BASE	4.52	44	6.12	55	-3.0	85	-5.1	0	0	987.9	NA	0.0000		9999	2230	0	0	0
2019/10/19 02:15:00	BASE	4.49	41	6.12	55	-3.0	85	-5.1	0	0	987.9	NA	0.0000		9999	2230	0	0	0
2019/10/19 02:16:00	BASE	4.50	34	6.12	55	-3.0	85	-5.2	0	0	987.9	NA	0.0000		9999	2230	0	0	0
2019/10/19 02:17:00	BASE	4.62	25	6.12	55	-3.0	84	-5.2	0	0	987.9	NA	0.0000		9999	2200	0	0	0
2019/10/19 02:18:00	BASE	4.35	21	6.12	55	-3.0	84	-5.3	0	0	987.9	NA	0.0000		9999	2200	0	0	0
2019/10/19 02:19:00	BASE	3.94	25	6.12	55	-3.0	84	-5.4	0	0	988.0	NA	0.0000		9999	2200	0	0	0
2019/10/19 02:20:00	BASE	4.59	22	6.12	13	-3.0	83	-5.4	0	0	987.9	NA	0.0000		9999	2200	0	0	0
2019/10/19 02:21:00	BASE	5.64	15	7.51	24	-3.0	83	-5.4	0	0	988.0	NA	0.0000		9999	2200	0	0	0
2019/10/19 02:22:00	BASE	5.91	15	7.51	24	-3.0	83	-5.5	0	0	988.0	NA	0.0000		9999	2200	0	0	0
2019/10/19 02:23:00	BASE	5.57	15	7.51	24	-3.0	83	-5.5	0	0	988.0	NA	0.0000		9999	2170	0	0	0
2019/10/19 02:24:00	BASE	5.84	17	7.51	24	-3.0	82	-5.5	0	0	988.0	NA	0.0000		9999	2130	0	0	0
2019/10/19 02:25:00	BASE	6.52	20	7.51	24	-3.0	82	-5.5	0	0	988.0	NA	0.0000		9999	2130	0	0	0
2019/10/19 02:26:00	BASE	6.56	23	7.51	24	-3.0	83	-5.5	0	0	988.0	NA	0.0000		9999	2170	0	0	0
2019/10/19 02:27:00	BASE	6.06	25	7.51	24	-3.0	83	-5.5	0	0	988.0	NA	0.0000		9999	2170	0	0	0
2019/10/19 02:28:00	BASE	5.42	24	7.51	24	-3.0	84	-5.4	0	0	988.0	NA	0.0000		9999	2170	0	0	0
2019/10/19 02:29:00	BASE	5.20	23	7.51	24	-3.0	84	-5.3	0	0	988.0	NA	0.0000		9999	2170	0	0	0
2019/10/19 02:30:00	BASE	5.21	19	7.51	24	-3.1	85	-5.3	0	0	987.9	NA	0.0000		9999	2170	0	0	0
2019/10/19 02:31:00	BASE	5.26	12	7.05	20	-3.1	85	-5.3	0	0	987.9	NA	0.0000		9999	2100	0	0	0
2019/10/19 02:32:00	BASE	5.32	9	7.05	20	-3.1	85	-5.2	0	0	987.9	NA	0.0000		9999	2100	0	0	0
2019/10/19 02:33:00	BASE	5.04	8	7.05	20	-3.1	85	-5.2	0	0	987.9	NA	0.0000		9999	2170	0	0	0
2019/10/19 02:34:00	BASE	4.90	10	7.05	20	-3.1	86	-5.2	0	0	988.0	NA	0.0000		9999	2070	0	0	0
2019/10/19 02:35:00	BASE	5.15	9	6.84	23	-3.1	86	-5.1	0	0	988.0	NA	0.0000		9999	2070	0	0	0
2019/10/19 02:36:00	BASE	5.27	3	5.97	22	-3.1	86	-5.1	0	0	988.0	NA	0.0000		9999	2100	0	0	0
2019/10/19 02:37:00	BASE	4.82	2	5.92	360	-3.1	86	-5.1	0	0	987.9	NA	0.0000		9999	2130	0	0	0
2019/10/19 02:38:00	BASE	4.22	5	5.92	360	-3.1	86	-5.1	0	0	987.9	NA	0.0000		9999	2100	0	0	0
2019/10/19 02:39:00	BASE	4.04	11	5.92	360	-3.1	86	-5.1	0	0	988.0	NA	0.0000		9999	2100	0	0	0
2019/10/19 02:40:00	BASE	4.13	13	5.92	360	-3.1	86	-5.2	0	0	988.0	NA	0.0000		9999	2130	0	0	0
2019/10/19 02:41:00	BASE	4.33	9	5.92	360	-3.1	85	-5.2	0	0	988.0	NA	0.0000		9999	2000	0	0	0
2019/10/19 02:42:00	BASE	4.36	4	5.92	360	-3.1	85	-5.2	0	0	988.0	NA	0.0000		9999	1970	0	0	0
2019/10/19 02:43:00	BASE	4.43	354	5.92	360	-3.1	85	-5.2	0	0	988.0	NA	0.0000		9999	1940	0	0	0
2019/10/19 02:44:00	BASE	4.31	349	5.92	360	-3.1	85	-5.2	0	0	988.0	NA	0.0000		9999	1840	0	0	0
2019/10/19 02:45:00	BASE	3.65	353	5.92	360	-3.1	85	-5.2	0	0	988.0	NA	0.0000		9999	1800	0	0	0
2019/10/19 02:46:00	BASE	2.98	0	4.84	349	-3.1	85	-5.2	0	0	988.0	NA	0.0000		9999	1840	0	0	0
2019/10/19 02:47:00	BASE	2.63	11	4.84	349	-3.1	85	-5.2	0	0	988.0	NA	0.0000		9999	1940	0	0	0
2019/10/19 02:48:00	BASE	2.68	23	4.84	349	-3.1	85	-5.2	0	0	988.0	NA	0.0000		9999	1970	0	0	0
2019/10/19 02:49:00	BASE	2.77	25	4.84	349	-3.1	86	-5.2	0	0	988.0	NA	0.0000		9999	2030	0	0	0
2019/10/19 02:50:00	BASE	2.60	24	4.84	349	-3.1	86	-5.1	0	0	987.9	NA	0.0000		9999	2070	0	0	0
2019/10/19 02:51:00	BASE	2.55	25	4.84	349	-3.1	86	-5.1	0	0	987.9	NA	0.0000		9999	2030	0	0	0
2019/10/19 02:52:00	BASE	2.54	31	4.84	349	-3.1	87	-5.0	0	0	987.9	NA	0.0000		9999	2000	0	0	0
2019/10/19 02:53:00	BASE	2.65	34	4.63	345	-3.1	87	-5.0	0	0	987.9	NA	0.0000		9999	2000	0	0	0
2019/10/19 02:54:00	BASE	3.09	38	3.81	48	-3.1	87	-5.0	0	0	987.9	NA	0.0000		9999	1940	0	0	0
2019/10/19 02:55:00	BASE	3.57	47	4.06	53	-3.1	87	-5.0	0	0	987.9	NA	0.0000		9999	2000	0	0	0
2019/10/19 02:56:00	BASE	3.59	56	4.06	53	-3.1	87	-5.0	0	0	987.9	NA	0.0000		9999	1940	0	0	0
2019/10/19 02:57:00	BASE	3.45	66	4.06	53	-3.1	87	-5.0	0	0	987.9	NA	0.0000		9999	2000	0	0	0
2019/10/19 02:58:00	BASE	3.42	73	4.06	53	-3.1	86	-5.1	0	0	987.8	NA	0.0000		9999	2070	0	0	0
2019/10/19 02:59:00	BASE	3.42	75	4.06	53	-3.1	86	-5.2	0	0	987.8	NA	0.0000		9999	2030	0	0	0
2019/10/19 03:00:00	BASE	3.45	72	4.06	53	-3.1	85	-5.2	0	0	987.8	NA	0.0000		9999	2070	0	0	0
2019/10/19 03:01:00	BASE	3.37	70	4.06	53	-3.1	85	-5.3	0	0	987.8	NA	0.0000		9999	2100	0	0	0
2019/10/19 03:02:00	BASE	3.20	71	4.06	53	-3.1	85	-5.3	0	0	987.8	NA	0.0000		9999	2200	0	0	0
2019/10/19 03:03:00	BASE	3.23	71	4.06	53	-3.1	84	-5.4	0	0	987.8	NA	0.0000		9999	2070	0	0	0
2019/10/19 03:04:00	BASE	3.69	71	4.27	71	-3.1	84	-5.4	0	0	987.8	NA	0.0000		9999	2030	0	0	0
2019/10/19 03:05:00	BASE	3.70	74	4.27	71	-3.1	84	-5.4	0	0	987.8	NA	0.0000		9999	2000	0	0	0
2019/10/19 03:06:00	BASE	3.51	75	4.27	71	-3.1	84	-5.4	0	0	987.8	NA	0.0000		9999	1940	0	0	0
2019/10/19 03:07:00	BASE	3.43	75	4.27	71	-3.1	84	-5.4	0	0	987.8	NA	0.0000		9999	1870	0	0	0
2019/10/19 03:08:00	BASE	3.31	80	4.27	71	-3.1	84	-5.5	0	0	987.8	NA	0.0000		9999	1970	0	0	0
2019/10/19 03:09:00	BASE	3.61	89	4.27	93	-3.1	84	-5.5	0	0	987.8	NA	0.0000		9999	1940	0	0	0
2019/10/19 03:10:00	BASE	3.96	97	4.27	104	-3.1	84	-5.5	0	0	987.7	NA	0.0000		9999	1940	0	0	0
2019/10/19 03:11:00	BASE	4.20	98	4.37	94	-3.2	84	-5.5	0	0	987.7	NA	0.0000		9999	2030	0	0	0
2019/10/19 03:12:00	BASE	4.17	96	4.37	94	-3.2	84	-5.6	0	0	987.7	NA	0.0000		9999	2030	0	0	0
2019/10/19 03:13:00	BASE	4.02	94	4.37	94	-3.3	84	-5.5	0	0	987.7	NA	0.0000		9999	2070	0	0	0
2019/10/19 03:14:00	BASE	4.22	93	4.78	91	-3.3	85	-5.5	0	0	987.7	NA	0.0000		9999	2030	0	0	0
2019/10/19 03:15:00	BASE	4.59	94	4.84	95	-3.4	86	-5.4	0	0	987.7	NA	0.0000		9999	2000	0	0	0
2019/10/19 03:16:00	BASE	4.64	96	4.84	95	-3.4	86	-5.4	0	0	987.7	NA	0.0000		9999	2000	0	0	0
2019/10/19 03:17:00	BASE	4.46	98	4.84	95	-3.5	87	-5.3	0	0	987.7	NA	0.0000		9999	1970	0	0	0
2019/10/19 03:18:00	BASE	4.39	100	4.84	95	-3.5	87	-5.3	0	0	987.7	NA	0.0000		9999	1940	0	0	0
2019/10/19 03:19:00	BASE	4.43	101	4.84	95	-3.5	88	-5.3	0	0	987.7	NA	0.0000		9999	2000	0	0	0
2019/10/19 03:20:00	BASE	4.41	97	4.84	95	-3.5	88	-5.2	0	0	987.7	NA	0.0000		9999	1970	0	0	0
2019/10/19 03:21:00	BASE	4.36	96	4.84	95	-3.5	88	-5.2	0	0	987.7	NA	0.0000		9999	2000	0	0	0
2019/10/19 03:22:00	BASE	4.43	95	4.94	91	-3.5	88	-5.2	0	0	987.7	NA	0.0000		9999	2030	0	0	0
2019/10/19 03:23:00	BASE	4.50	88	5.04	83	-3.5	88	-5.2	0	0	987.7	NA	0.0000		9999	2000	0	0	0
2019/10/19 03:24:00	BASE	4.24	84	5.04	83	-3.5	88	-5.2	0	0	987.7	NA	0.0000		9999	1940	0	0	0
2019/10/19 03:25:00	BASE	4.10	82	5.04	83	-3.5	88	-5.2	0	0	987.6	NA	0.0000		9999	1970	0	0	0
2019/10/19 03:26:00	BASE	4.33	83	5.04	83	-3.5	88	-5.2	0	0	987.6	NA	0.0000		9999	1970	0	0	0
2019/10/19 03:27:00	BASE	4.50	86	5.04	83	-3.5	88	-5.2	0	0	987.6	NA	0.0000		9999	1970	0	0	0
2019/10/19 03:28:00	BASE	4.39	89	5.04	83	-3.5	88	-5.2	0	0	987.6	NA	0.0000		9999	1970	0	0	0
2019/10/19 03:29:00	BASE	4.40	92	5.04	83	-3.5	88	-5.2	0	0	987.6	NA	0.0000		9999	1970	0	0	0
2019/10/19 03:30:00	BASE	4.42	90	5.04	83	-3.6	88	-5.2	0	0	987.6	NA	0.0000		9999	1970	0	0	0
2019/10/19 03:31:00	BASE	4.11	87	5.04	83	-3.6	88	-5.2	0	0	987.6	NA	0.0000		9999	1940	0	0	0
2019/10/19 03:32:00	BASE	3.80	81	5.04	83	-3.6	89	-5.2	0	0	987.6	NA	0.0000		9999	1940	0	0	0
2019/10/19 03:33:00	BASE	3.51	74	4.89	88	-3.7	89	-5.2	0	0	987.6	NA	0.0000		9999	1900	0	0	0
2019/10/19 03:34:00	BASE	3.26	70	4.89	88	-3.7	89	-5.2	0	0	987.6	NA	0.0000		9999	1900	0	0	0
2019/10/19 03:35:00	BASE	3.17	71	4.89	88	-3.7	90	-5.1	0	0	987.6	NA	0.0000		9999	1870	0	0	0
2019/10/19 03:36:00	BASE	3.19	66	4.89	88	-3.6	90	-5.0	0	0	987.6	NA	0.0000		9999	1970	0	0	0
2019/10/19 03:37:00	BASE	3.36	54	4.89	88	-3.6	90	-5.0	0	0	987.6	NA	0.0000		9999	1970	0	0	0
2019/10/19 03:38:00	BASE	3.50	44	4.68	84	-3.5	90	-4.9	0	0	987.6	NA	0.0000		9999	1970	0	0	0
2019/10/19 03:39:00	BASE	3.89	44	4.58	87	-3.4	90	-4.9	0	0	987.6	NA	0.0000		9999	2000	0	0	0
2019/10/19 03:40:00	BASE	4.34	48	4.58	43	-3.4	90	-4.9	0	0	987.5	NA	0.0000		9999	2030	0	0	0
2019/10/19 03:41:00	BASE	4.43	48	4.78	42	-3.4	89	-4.9	0	0	987.4	NA	0.0000		9999	2000	0	0	0
2019/10/19 03:42:00	BASE	4.47	48	4.78	42	-3.3	89	-4.9	0	0	987.4	NA	0.0000		9999	1940	0	0	0
2019/10/19 03:43:00	BASE	4.54	49	4.78	42	-3.3	89	-4.9	0	0	987.4	NA	0.0000		9999	1970	0	0	0
2019/10/19 03:44:00	BASE	4.49	48	4.78	44	-3.3	89	-4.9	0	0	987.4	NA	0.0000		9999	1970	0	0	0
2019/10/19 03:45:00	BASE	4.32	47	4.78	44	-3.4	89	-4.9	0	0	987.4	NA	0.0000		9999	1940	0	0	0
2019/10/19 03:46:00	BASE	4.65	43	5.86	29	-3.4	89	-4.9	0	0	987.4	NA	0.0000		9999	1940	0	0	0
2019/10/19 03:47:00	BASE	5.77	40	6.79	40	-3.4	89	-5.0	0	0	987.4	NA	0.0000		9999	1900	0	0	0
2019/10/19 03:48:00	BASE	6.31	43	6.79	40	-3.5	89	-5.1	0	0	987.4	NA	0.0000		9999	1870	0	0	0
2019/10/19 03:49:00	BASE	6.16	48	6.79	50	-3.5	88	-5.1	0	0	987.3	NA	0.0000		9999	1870	0	0	0
2019/10/19 03:50:00	BASE	6.35	51	7.15	51	-3.5	88	-5.2	0	0	987.3	NA	0.0000		9999	1840	0	0	0
2019/10/19 03:51:00	BASE	6.10	51	7.15	51	-3.6	88	-5.3	0	0	987.3	NA	0.0000		9999	1840	0	0	0
2019/10/19 03:52:00	BASE	6.00	52	7.15	51	-3.6	88	-5.3	0	0	987.3	NA	0.0000		9999	1840	0	0	0
2019/10/19 03:53:00	BASE	6.14	48	7.15	51	-3.6	88	-5.3	0	0	987.3	NA	0.0000		9999	1840	0	0	0
2019/10/19 03:54:00	BASE	6.00	47	7.15	51	-3.6	88	-5.4	0	0	987.3	NA	0.0000		9999	1870	13650	0	0
2019/10/19 03:55:00	BASE	6.14	50	7.15	51	-3.7	88	-5.4	0	0	987.3	NA	0.0000		9999	13620	0	0	0
2019/10/19 03:56:00	BASE	5.99	52	7.15	51	-3.7	87	-5.5	0	0	987.3	NA	0.0000		9999	13220	0	0	0
2019/10/19 03:57:00	BASE	5.75	52	7.15	51	-3.7	87	-5.5	0	0	987.3	NA	0.0000		9999	13190	13650	0	0
2019/10/19 03:58:00	BASE	5.68	51	7.15	51	-3.7	87	-5.6	0	0	987.3	NA	0.0000		9999	13550	0	0	0
2019/10/19 03:59:00	BASE	5.50	50	7.15	51	-3.7	87	-5.5	0	0	987.3	NA	0.0000		9999	13350	0	0	0
2019/10/19 04:00:00	BASE	5.46	49	6.74	48	-3.7	87	-5.5	0	0	987.3	NA	0.0000		9999	13420	0	0	0
2019/10/19 04:01:00	BASE	5.47	47	6.74	48	-3.7	87	-5.5	0	0	987.3	NA	0.0000		9999	13420	0	0	0
2019/10/19 04:02:00	BASE	5.39	44	6.58	50	-3.7	87	-5.5	0	0	987.3	NA	0.0000		9999	13390	14170	0	0
2019/10/19 04:03:00	BASE	5.27	41	6.58	50	-3.7	88	-5.4	0	0	987.2	NA	0.0000		9999	13350	0	0	0
2019/10/19 04:04:00	BASE	5.26	39	6.58	50	-3.7	88	-5.4	0	0	987.2	NA	0.0000		9999	13320	14170	0	0
2019/10/19 04:05:00	BASE	5.22	38	6.58	50	-3.7	88	-5.4	0	0	987.2	NA	0.0000		9999	13290	14140	0	0
2019/10/19 04:06:00	BASE	5.05	39	6.17	54	-3.7	88	-5.4	0	0	987.2	NA	0.0000		9999	13350	13850	0	0
2019/10/19 04:07:00	BASE	5.17	38	5.81	36	-3.7	88	-5.4	0	0	987.2	NA	0.0000		9999	13320	0	0	0
2019/10/19 04:08:00	BASE	5.25	37	5.81	36	-3.7	88	-5.4	0	0	987.2	NA	0.0000		9999	13220	13940	0	0
2019/10/19 04:09:00	BASE	5.01	37	5.81	36	-3.7	88	-5.4	0	0	987.2	NA	0.0000		9999	13350	13910	0	0
2019/10/19 04:10:00	BASE	4.86	38	5.81	36	-3.7	88	-5.4	0	0	987.2	NA	0.0000		9999	13850	0	0	0
2019/10/19 04:11:00	BASE	4.72	40	5.81	36	-3.7	88	-5.4	0	0	987.2	NA	0.0000		9999	13480	0	0	0
2019/10/19 04:12:00	BASE	4.65	39	5.81	36	-3.7	88	-5.4	0	0	987.2	NA	0.0000		9999	13750	0	0	0
2019/10/19 04:13:00	BASE	4.82	42	5.81	36	-3.7	88	-5.4	0	0	987.1	NA	0.0000		9999	13580	0	0	0
2019/10/19 04:14:00	BASE	4.86	43	5.61	37	-3.7	88	-5.4	0	0	987.1	NA	0.0000		9999	13520	0	0	0
2019/10/19 04:15:00	BASE	4.78	38	5.61	37	-3.7	88	-5.4	0	0	987.1	NA	0.0000		9999	13750	0	0	0
2019/10/19 04:16:00	BASE	4.55	37	5.61	37	-3.7	88	-5.4	0	0	987.1	NA	0.0000		9999	13780	0	0	0
2019/10/19 04:17:00	BASE	4.54	40	5.35	39	-3.8	88	-5.5	0	0	987.1	NA	0.0000		9999	13710	0	0	0
2019/10/19 04:18:00	BASE	4.60	45	5.25	40	-3.9	88	-5.5	0	0	987.0	NA	0.0000		9999	13520	0	0	0
2019/10/19 04:19:00	BASE	4.50	49	5.25	40	-3.9	88	-5.5	0	0	987.0	NA	0.0000		9999	13550	0	0	0
2019/10/19 04:20:00	BASE	4.49	52	5.25	40	-3.9	89	-5.5	0	0	987.0	NA	0.0000		9999	13420	13910	0	0
2019/10/19 04:21:00	BASE	4.35	55	5.25	40	-4.0	89	-5.5	0	0	986.9	NA	0.0000		9999	13480	0	0	0
2019/10/19 04:22:00	BASE	4.26	59	5.14	39	-3.9	89	-5.5	0	0	986.8	NA	0.0000		9999	13450	13980	0	0
2019/10/19 04:23:00	BASE	4.42	67	5.14	39	-3.9	89	-5.5	0	0	986.8	NA	0.0000		9999	13450	14080	0	0
2019/10/19 04:24:00	BASE	4.68	70	4.99	67	-3.9	89	-5.4	0	0	986.8	NA	0.0000		9999	13420	14110	0	0
2019/10/19 04:25:00	BASE	4.58	66	4.99	67	-3.9	89	-5.5	0	0	986.8	NA	0.0000		9999	13390	14080	0	0
2019/10/19 04:26:00	BASE	3.95	64	4.99	67	-3.9	89	-5.5	0	0	986.8	NA	0.0000		9999	13480	13980	0	0
2019/10/19 04:27:00	BASE	3.48	72	4.99	67	-3.9	89	-5.5	0	0	986.7	NA	0.0000		9999	13480	0	0	0
2019/10/19 04:28:00	BASE	3.39	79	4.99	67	-4.0	89	-5.6	0	0	986.7	NA	0.0000		9999	13390	0	0	0
2019/10/19 04:29:00	BASE	3.39	79	4.99	67	-4.0	89	-5.6	0	0	986.7	NA	0.0000		9999	13420	0	0	0
2019/10/19 04:30:00	BASE	3.41	78	4.99	67	-4.0	89	-5.6	0	0	986.7	NA	0.0000		9999	13420	0	0	0
2019/10/19 04:31:00	BASE	3.30	77	4.99	67	-4.0	89	-5.6	0	0	986.7	NA	0.0000		9999	12010	13450	14240	0
2019/10/19 04:32:00	BASE	3.11	77	4.99	67	-4.0	88	-5.7	0	0	986.7	NA	0.0000		9999	13480	14080	0	0
2019/10/19 04:33:00	BASE	2.93	76	4.99	67	-4.0	88	-5.6	0	0	986.7	NA	0.0000		9999	13810	0	0	0
2019/10/19 04:34:00	BASE	2.79	75	4.68	66	-4.0	88	-5.6	0	0	986.7	NA	0.0000		9999	14010	0	0	0
2019/10/19 04:35:00	BASE	2.65	70	3.91	63	-3.9	88	-5.6	0	0	986.7	NA	0.0000		9999	14170	14860	0	0
2019/10/19 04:36:00	BASE	2.54	57	3.76	84	-3.9	88	-5.6	0	0	986.7	NA	0.0000		9999	14210	14830	0	0
2019/10/19 04:37:00	BASE	2.48	44	3.76	84	-3.9	87	-5.7	0	0	986.7	NA	0.0000		9999	14310	0	0	0
2019/10/19 04:38:00	BASE	2.58	38	3.70	79	-3.9	87	-5.7	0	0	986.7	NA	0.0000		9999	14270	14860	0	0
2019/10/19 04:39:00	BASE	2.72	33	3.70	79	-3.9	86	-5.9	0	0	986.7	NA	0.0000		9999	14240	14860	0	0
2019/10/19 04:40:00	BASE	2.71	31	3.60	76	-3.9	86	-6.0	0	0	986.7	NA	0.0000		9999	14760	0	0	0
2019/10/19 04:41:00	BASE	2.40	33	3.19	78	-4.0	85	-6.1	0	0	986.7	NA	0.0000		9999	11840	14760	0	0
2019/10/19 04:42:00	BASE	2.05	35	3.09	25	-4.0	85	-6.2	0	0	986.7	NA	0.0000		9999	11750	14700	0	0
2019/10/19 04:43:01	BASE	1.89	40	3.09	25	-4.0	85	-6.2	0	0	986.7	NA	0.0000		9999	11680	14700	0	0
2019/10/19 04:44:00	BASE	1.71	51	3.09	25	-4.0	85	-6.1	0	0	986.7	NA	0.0000		9999	11580	0	0	0
2019/10/19 04:45:00	BASE	1.34	58	3.09	25	-4.0	85	-6.1	0	0	986.7	NA	0.0000		9999	11480	14500	0	0
2019/10/19 04:46:00	BASE	1.05	56	3.09	25	-4.0	85	-6.1	0	0	986.7	NA	0.0000		9999	11550	0	0	0
2019/10/19 04:47:00	BASE	1.13	54	3.09	25	-3.9	85	-6.1	0	0	986.7	NA	0.0000		9999	0	0	0	0
2019/10/19 04:48:01	BASE	1.33	52	3.09	25	-3.9	85	-6.1	0	0	986.7	NA	0.0000		9999	0	0	0	0
2019/10/19 04:49:00	BASE	1.22	43	2.83	31	-3.9	84	-6.2	0	0	986.7	NA	0.0000		9999	0	0	0	0
2019/10/19 04:50:00	BASE	0.91	38	2.37	33	-3.9	84	-6.2	0	0	986.7	NA	0.0000		9999	0	0	0	0
2019/10/19 04:51:00	BASE	0.76	40	2.26	31	-3.9	83	-6.3	0	0	986.6	NA	0.0000		9999	0	0	0	0
2019/10/19 04:52:00	BASE	0.92	37	2.06	43	-3.9	83	-6.4	0	0	986.6	NA	0.0000		9999	0	0	0	0
2019/10/19 04:53:00	BASE	1.28	36	1.75	69	-3.9	82	-6.5	0	0	986.6	NA	0.0000		9999	0	0	0	0
2019/10/19 04:54:00	BASE	1.36	37	1.65	37	-3.9	82	-6.5	0	0	986.6	NA	0.0000		9999	0	0	0	0
2019/10/19 04:55:00	BASE	1.28	42	1.65	37	-3.9	81	-6.7	0	0	986.6	NA	0.0000		9999	0	0	0	0
2019/10/19 04:56:00	BASE	1.08	78	1.65	37	-3.9	81	-6.7	0	0	986.6	NA	0.0000		9999	0	0	0	0
2019/10/19 04:57:00	BASE	0.97	116	1.65	122	-3.9	81	-6.8	0	0	986.6	NA	0.0000		9999	0	0	0	0
2019/10/19 04:58:00	BASE	1.54	127	2.57	132	-4.0	80	-6.8	0	0	986.5	NA	0.0000		9999	0	0	0	0
2019/10/19 04:59:00	BASE	1.95	128	2.57	132	-4.0	80	-6.9	0	0	986.5	NA	0.0000		9999	0	0	0	0
2019/10/19 05:00:00	BASE	2.02	127	2.57	132	-3.9	80	-6.8	0	0	986.5	NA	0.0000		9999	0	0	0	0
2019/10/19 05:01:00	BASE	1.92	134	2.57	132	-3.9	80	-6.8	0	0	986.5	NA	0.0000		9999	0	0	0	0
2019/10/19 05:02:00	BASE	1.58	141	2.57	132	-3.9	80	-6.8	0	0	986.5	NA	0.0000		9999	0	0	0	0
2019/10/19 05:03:00	BASE	1.40	147	2.57	132	-3.9	80	-6.8	0	0	986.5	NA	0.0000		9999	0	0	0	0
2019/10/19 05:04:00	BASE	1.65	150	2.57	132	-3.8	80	-6.8	0	0	986.4	NA	0.0000		9999	0	0	0	0
2019/10/19 05:05:00	BASE	2.01	145	2.57	132	-3.8	80	-6.8	0	0	986.4	NA	0.0000		9999	12730	0	0	0
2019/10/19 05:06:00	BASE	2.34	144	2.78	147	-3.8	79	-6.9	0	0	986.4	NA	0.0000		9999	12700	0	0	0
2019/10/19 05:07:00	BASE	2.61	148	2.88	146	-3.9	79	-6.9	0	0	986.3	NA	0.0000		9999	12730	0	0	0
2019/10/19 05:08:00	BASE	2.88	154	3.34	153	-3.9	79	-7.0	0	0	986.3	NA	0.0000		9999	0	0	0	0
2019/10/19 05:09:00	BASE	3.15	156	3.55	152	-3.9	79	-7.0	0	0	986.3	NA	0.0000		9999	0	0	0	0
2019/10/19 05:10:00	BASE	2.94	158	3.55	152	-3.9	79	-7.0	0	0	986.3	NA	0.0000		9999	12730	0	0	0
2019/10/19 05:11:00	BASE	2.83	159	3.55	152	-4.0	79	-7.1	0	0	986.3	NA	0.0000		9999	0	0	0	0
2019/10/19 05:12:00	BASE	2.68	161	3.55	152	-4.0	79	-7.1	0	0	986.3	NA	0.0000		9999	12600	0	0	0
2019/10/19 05:13:00	BASE	2.24	158	3.55	152	-4.0	79	-7.0	0	0	986.3	NA	0.0000		9999	12570	0	0	0
2019/10/19 05:14:00	BASE	1.98	145	3.55	152	-4.0	80	-7.0	0	0	986.3	NA	0.0000		9999	12660	0	0	0
2019/10/19 05:15:00	BASE	1.77	136	3.55	152	-4.0	80	-7.0	0	0	986.3	NA	0.0000		9999	0	0	0	0
2019/10/19 05:16:00	BASE	1.52	140	3.55	152	-4.0	80	-6.9	0	0	986.3	NA	0.0000		9999	11190	0	0	0
2019/10/19 05:17:00	BASE	1.20	145	3.55	152	-4.0	80	-6.9	0	0	986.2	NA	0.0000		9999	11160	0	0	0
2019/10/19 05:18:00	BASE	1.17	143	3.55	152	-4.0	80	-6.9	0	0	986.2	NA	0.0000		9999	11020	0	0	0
2019/10/19 05:19:00	BASE	0.98	140	3.45	162	-3.9	80	-6.9	0	0	986.2	NA	0.0000		9999	10990	12860	0	0
2019/10/19 05:20:00	BASE	0.34	137	3.45	162	-3.9	80	-6.8	0	0	986.2	NA	0.0000		9999	10960	12830	0	0
2019/10/19 05:21:00	BASE	0.00	135	2.52	164	-3.9	80	-6.8	0	0	986.2	NA	0.0000		9999	11020	0	0	0
2019/10/19 05:22:00	BASE	0.30	113	2.42	165	-3.8	80	-6.8	0	0	986.2	NA	0.0000		9999	11090	12830	0	0
2019/10/19 05:23:00	BASE	1.52	60	2.78	52	-3.8	80	-6.8	0	0	986.2	NA	0.0000		9999	0	0	0	0
2019/10/19 05:24:00	BASE	2.51	40	2.78	52	-3.9	80	-6.9	0	0	986.2	NA	0.0000		9999	0	0	0	0
2019/10/19 05:25:00	BASE	2.48	31	2.78	52	-4.0	80	-6.9	0	0	986.1	NA	0.0000		9999	0	0	0	0
2019/10/19 05:26:00	BASE	2.22	25	2.78	52	-4.1	80	-7.0	0	0	986.0	NA	0.0000		9999	0	0	0	0
2019/10/19 05:27:00	BASE	1.95	29	2.78	52	-4.2	80	-7.1	0	0	986.0	NA	0.0000		9999	0	0	0	0
2019/10/19 05:28:00	BASE	1.94	41	2.78	52	-4.2	80	-7.1	0	0	986.0	NA	0.0000		9999	0	0	0	0
2019/10/19 05:29:00	BASE	2.21	51	2.83	58	-4.2	81	-7.0	0	0	986.0	NA	0.0000		9999	0	0	0	0
2019/10/19 05:30:00	BASE	2.40	58	2.83	58	-4.2	81	-7.0	0	0	986.0	NA	0.0000		9999	0	0	0	0
2019/10/19 05:31:00	BASE	2.33	58	2.83	58	-4.2	81	-6.9	0	0	985.9	NA	0.0000		9999	0	0	0	0
2019/10/19 05:32:00	BASE	2.19	58	2.83	58	-4.2	82	-6.9	0	0	985.9	NA	0.0000		9999	0	0	0	0
2019/10/19 05:33:00	BASE	2.33	59	2.83	58	-4.2	82	-6.9	0	0	985.9	NA	0.0000		9999	0	0	0	0
2019/10/19 05:34:00	BASE	2.50	61	2.83	58	-4.2	82	-6.8	0	0	985.8	NA	0.0000		9999	0	0	0	0
2019/10/19 05:35:00	BASE	2.44	60	2.83	58	-4.2	82	-6.8	0	0	985.8	NA	0.0000		9999	0	0	0	0
2019/10/19 05:36:00	BASE	2.31	55	2.83	58	-4.1	82	-6.8	0	0	985.8	NA	0.0000		9999	0	0	0	0
2019/10/19 05:37:00	BASE	2.23	50	2.83	58	-4.1	81	-6.8	0	0	985.8	NA	0.0000		9999	0	0	0	0
2019/10/19 05:38:00	BASE	2.23	46	2.83	58	-4.0	81	-6.8	0	0	985.8	NA	0.0000		9999	0	0	0	0
2019/10/19 05:39:00	BASE	2.29	43	2.73	60	-4.0	81	-6.9	0	0	985.7	NA	0.0000		9999	0	0	0	0
2019/10/19 05:40:00	BASE	2.26	40	2.68	60	-4.0	80	-6.9	0	0	985.7	NA	0.0000		9999	0	0	0	0
2019/10/19 05:41:00	BASE	2.36	37	2.68	60	-4.0	80	-6.9	0	0	985.7	NA	0.0000		9999	0	0	0	0
2019/10/19 05:42:00	BASE	2.55	29	2.78	25	-4.1	80	-7.0	0	0	985.7	NA	0.0000		9999	0	0	0	0
2019/10/19 05:43:00	BASE	2.45	26	2.78	25	-4.1	80	-7.0	0	0	985.7	NA	0.0000		9999	0	0	0	0
2019/10/19 05:44:00	BASE	2.36	30	2.78	25	-4.1	80	-7.0	0	0	985.7	NA	0.0000		9999	0	0	0	0
2019/10/19 05:45:00	BASE	2.48	29	2.78	25	-4.1	81	-6.9	0	0	985.7	NA	0.0000		9999	0	0	0	0
2019/10/19 05:46:00	BASE	2.66	26	2.93	29	-4.2	81	-6.9	0	0	985.7	NA	0.0000		9999	0	0	0	0
2019/10/19 05:47:00	BASE	2.67	21	2.93	29	-4.2	82	-6.9	0	0	985.6	NA	0.0000		9999	0	0	0	0
2019/10/19 05:48:00	BASE	2.52	16	2.93	29	-4.3	82	-6.9	0	0	985.6	NA	0.0000		9999	0	0	0	0
2019/10/19 05:49:00	BASE	2.29	16	2.93	29	-4.3	83	-6.8	0	0	985.6	NA	0.0000		9999	0	0	0	0
2019/10/19 05:50:00	BASE	2.20	19	2.93	29	-4.4	83	-6.8	0	0	985.6	NA	0.0000		9999	0	0	0	0
2019/10/19 05:51:00	BASE	2.34	27	2.93	29	-4.4	84	-6.7	0	0	985.5	NA	0.0000		9999	0	0	0	0
2019/10/19 05:52:00	BASE	2.52	34	2.93	29	-4.5	85	-6.6	0	0	985.5	NA	0.0000		9999	0	0	0	0
2019/10/19 05:53:00	BASE	2.61	36	2.93	29	-4.5	85	-6.6	0	0	985.4	NA	0.0000		9999	0	0	0	0
2019/10/19 05:54:00	BASE	2.75	32	3.34	29	-4.5	86	-6.6	0	0	985.4	NA	0.0000		9999	0	0	0	0
2019/10/19 05:55:00	BASE	2.73	33	3.34	29	-4.5	86	-6.6	0	0	985.4	NA	0.0000		9999	0	0	0	0
2019/10/19 05:56:00	BASE	2.52	40	3.34	29	-4.5	86	-6.5	0	0	985.4	NA	0.0000		9999	0	0	0	0
2019/10/19 05:57:00	BASE	2.42	43	3.34	29	-4.6	86	-6.5	0	0	985.4	NA	0.0000		9999	0	0	0	0
2019/10/19 05:58:00	BASE	2.51	42	3.34	29	-4.6	86	-6.6	0	0	985.4	NA	0.0000		9999	0	0	0	0
2019/10/19 05:59:00	BASE	2.64	47	3.34	29	-4.6	86	-6.6	0	0	985.4	NA	0.0000		9999	0	0	0	0
2019/10/19 06:00:00	BASE	2.51	54	3.34	29	-4.6	86	-6.5	0	0	985.3	NA	0.0000		9999	0	0	0	0
2019/10/19 06:01:00	BASE	2.50	57	3.34	29	-4.6	87	-6.5	0	0	985.3	NA	0.0000		9999	0	0	0	0
2019/10/19 06:02:00	BASE	2.68	56	3.34	29	-4.6	87	-6.4	0	0	985.3	NA	0.0000		9999	0	0	0	0
2019/10/19 06:03:00	BASE	2.79	58	3.34	29	-4.5	88	-6.3	0	0	985.3	NA	0.0000		9999	0	0	0	0
2019/10/19 06:04:00	BASE	2.76	63	3.14	60	-4.5	88	-6.2	0	0	985.3	NA	0.0000		9999	0	0	0	0
2019/10/19 06:05:00	BASE	2.52	59	3.14	60	-4.5	88	-6.2	0	0	985.3	NA	0.0000		9999	0	0	0	0
2019/10/19 06:06:00	BASE	2.35	58	3.14	60	-4.5	87	-6.3	0	0	985.3	NA	0.0000		9999	0	0	0	0
2019/10/19 06:07:00	BASE	2.32	65	3.14	60	-4.5	87	-6.4	0	0	985.3	NA	0.0000		9999	0	0	0	0
2019/10/19 06:08:00	BASE	2.55	65	3.19	48	-4.5	86	-6.4	0	0	985.3	NA	0.0000		9999	0	0	0	0
2019/10/19 06:09:00	BASE	2.80	64	3.19	48	-4.5	86	-6.5	0	0	985.3	NA	0.0000		9999	0	0	0	0
2019/10/19 06:10:00	BASE	2.37	60	3.19	48	-4.5	86	-6.5	0	0	985.3	NA	0.0000		9999	0	0	0	0
2019/10/19 06:11:00	BASE	1.67	69	3.19	48	-4.5	86	-6.5	0	0	985.3	NA	0.0000		9999	0	0	0	0
2019/10/19 06:12:00	BASE	1.35	99	3.19	48	-4.5	85	-6.6	0	0	985.3	NA	0.0000		9999	0	0	0	0
2019/10/19 06:13:00	BASE	2.00	115	3.45	100	-4.5	85	-6.7	0	0	985.3	NA	0.0000		9999	0	0	0	0
2019/10/19 06:14:00	BASE	2.75	99	3.45	100	-4.6	84	-6.9	0	0	985.3	NA	0.0000		9999	0	0	0	0
2019/10/19 06:15:00	BASE	2.75	87	3.45	100	-4.6	84	-6.9	0	0	985.3	NA	0.0000		9999	0	0	0	0
2019/10/19 06:16:00	BASE	2.73	92	3.86	62	-4.5	83	-7.0	0	0	985.3	NA	0.0000		9999	0	0	0	0
2019/10/19 06:17:00	BASE	2.89	91	3.86	62	-4.5	83	-7.0	0	0	985.2	NA	0.0000		9999	11940	0	0	0
2019/10/19 06:18:00	BASE	3.04	77	3.86	62	-4.4	82	-6.9	0	0	985.2	NA	0.0000		9999	0	0	0	0
2019/10/19 06:19:00	BASE	2.83	58	3.86	62	-4.3	82	-6.9	0	0	985.2	NA	0.0000		9999	11910	0	0	0
2019/10/19 06:20:00	BASE	2.75	31	4.68	24	-4.2	81	-7.0	0	0	985.2	NA	0.0000		9999	9580	11840	0	0
2019/10/19 06:21:00	BASE	3.55	15	9.05	21	-4.1	80	-7.1	0	0	985.1	NA	0.0000		9999	9550	0	0	0
2019/10/19 06:22:00	BASE	5.71	17	9.05	21	-4.1	79	-7.3	0	0	985.1	NA	0.0000		9999	9610	11840	0	0
2019/10/19 06:23:00	BASE	6.99	24	9.05	21	-4.1	78	-7.4	0	0	985.1	NA	0.0000		9999	9550	0	0	0
2019/10/19 06:24:00	BASE	6.17	30	9.05	21	-4.2	78	-7.5	0	0	985.2	NA	0.0000		9999	9480	11840	0	0
2019/10/19 06:25:00	BASE	5.81	35	9.05	21	-4.2	78	-7.5	0	0	985.2	NA	0.0000		9999	9420	10110	11810	0
2019/10/19 06:26:00	BASE	5.56	54	9.05	21	-4.2	77	-7.6	0	0	985.2	NA	0.0000		9999	9380	10140	11780	0
2019/10/19 06:27:00	BASE	5.31	78	9.05	21	-4.1	76	-7.7	0	0	985.2	NA	0.0000		9999	9380	11780	0	0
2019/10/19 06:28:00	BASE	5.64	91	9.05	21	-4.0	75	-7.9	0	0	985.2	NA	0.0000		9999	9350	11810	0	0
2019/10/19 06:29:00	BASE	6.19	82	9.05	21	-4.0	72	-8.2	0	0	985.2	NA	0.0000		9999	9350	11810	0	0
2019/10/19 06:30:00	BASE	6.52	74	9.05	21	-3.9	70	-8.5	0	0	985.2	NA	0.0000		9999	9290	11840	0	0
2019/10/19 06:31:00	BASE	5.96	71	8.39	10	-3.9	69	-8.8	0	0	985.2	NA	0.0000		9999	9250	11780	0	0
2019/10/19 06:32:00	BASE	5.19	71	7.92	71	-3.9	67	-9.0	0	0	985.1	NA	0.0000		9999	9220	11810	0	0
2019/10/19 06:33:00	BASE	4.87	78	7.92	71	-3.9	67	-9.2	0	0	985.1	NA	0.0000		9999	9120	11750	0	0
2019/10/19 06:34:00	BASE	5.14	71	7.92	71	-3.9	66	-9.3	0	0	985.1	NA	0.0000		9999	11810	0	0	0
2019/10/19 06:35:00	BASE	5.20	55	7.92	71	-3.8	65	-9.4	0	0	985.0	NA	0.0000		9999	11810	0	0	0
2019/10/19 06:36:00	BASE	4.58	50	7.92	71	-3.7	65	-9.4	0	0	984.9	NA	0.0000		9999	11750	0	0	0
2019/10/19 06:37:00	BASE	4.11	38	7.92	71	-3.6	64	-9.4	0	0	984.9	NA	0.0000		9999	11710	0	0	0
2019/10/19 06:38:00	BASE	3.79	22	7.92	71	-3.5	63	-9.5	0	0	984.9	NA	0.0000		9999	11680	0	0	0
2019/10/19 06:39:00	BASE	3.35	32	7.25	70	-3.5	63	-9.6	0	0	984.9	NA	0.0000		9999	11710	0	0	0
2019/10/19 06:40:00	BASE	3.38	62	6.69	67	-3.5	62	-9.7	0	0	984.8	NA	0.0000		9999	11750	0	0	0
2019/10/19 06:41:00	BASE	3.61	79	6.69	67	-3.6	62	-9.8	0	0	984.8	NA	0.0000		9999	11750	0	0	0
2019/10/19 06:42:00	BASE	3.20	78	6.69	67	-3.8	63	-9.9	0	0	984.8	NA	0.0000		9999	11680	0	0	0
2019/10/19 06:43:00	BASE	2.50	82	6.69	67	-3.9	63	-9.9	0	0	984.8	NA	0.0000		9999	11750	0	0	0
2019/10/19 06:44:00	BASE	1.85	88	5.81	53	-4.0	64	-9.8	0	0	984.8	NA	0.0000		9999	11710	0	0	0
2019/10/19 06:45:00	BASE	1.26	92	4.99	46	-4.0	64	-9.8	0	0	984.8	NA	0.0000		9999	11750	0	0	0
2019/10/19 06:46:00	BASE	1.01	108	4.48	29	-3.9	64	-9.8	0	0	984.7	NA	0.0000		9999	8530	11580	0	0
2019/10/19 06:47:00	BASE	0.92	124	4.12	91	-3.8	63	-9.8	0	0	984.7	NA	0.0000		9999	8630	11680	0	0
2019/10/19 06:48:00	BASE	0.65	122	4.12	91	-3.8	63	-9.8	0	0	984.7	NA	0.0000		9999	8630	11580	0	0
2019/10/19 06:49:00	BASE	1.31	86	4.12	91	-3.7	63	-9.8	0	0	984.7	NA	0.0000		9999	8830	11580	0	0
2019/10/19 06:50:00	BASE	3.23	69	4.48	78	-3.8	63	-9.8	0	0	984.7	NA	0.0000		9999	11550	0	0	0
2019/10/19 06:51:00	BASE	4.61	84	5.61	93	-3.8	64	-9.7	0	0	984.7	NA	0.0000		9999	11450	0	0	0
2019/10/19 06:52:00	BASE	5.21	93	5.71	104	-3.9	65	-9.6	0	0	984.7	NA	0.0000		9999	11520	0	0	0
2019/10/19 06:53:00	BASE	5.29	102	6.64	106	-4.0	66	-9.3	0	0	984.7	NA	0.0000		9999	11450	0	0	0
2019/10/19 06:54:00	BASE	4.86	109	6.64	106	-4.0	68	-9.0	0	0	984.6	NA	0.0000		9999	11520	0	0	0
2019/10/19 06:55:00	BASE	4.84	114	6.64	106	-4.1	70	-8.7	0	0	984.6	NA	0.0000		9999	11450	0	0	0
2019/10/19 06:56:00	BASE	5.06	118	6.64	106	-4.1	72	-8.3	0	0	984.6	NA	0.0000		9999	11520	0	0	0
2019/10/19 06:57:00	BASE	5.78	119	7.15	120	-4.0	74	-8.0	0	0	984.6	NA	0.0000		9999	11450	0	0	0
2019/10/19 06:58:00	BASE	6.48	122	7.15	120	-4.0	74	-7.8	0	0	984.5	NA	0.0000		9999	11390	0	0	0
2019/10/19 06:59:00	BASE	6.36	127	7.15	120	-3.9	75	-7.8	0	0	984.5	NA	0.0000		9999	11480	0	0	0
2019/10/19 07:00:00	BASE	6.07	132	7.15	120	-3.8	74	-7.7	0	0	984.5	NA	0.0000		9999	11390	0	0	0
2019/10/19 07:01:00	BASE	5.83	135	7.15	120	-3.8	73	-7.8	0	0	984.4	NA	0.0000		9999	11450	0	0	0
2019/10/19 07:02:00	BASE	6.06	138	7.15	120	-3.8	72	-8.0	0	0	984.3	NA	0.0000		9999	11420	0	0	0
2019/10/19 07:03:00	BASE	6.33	142	7.15	120	-3.8	71	-8.2	0	0	984.3	NA	0.0000		9999	11250	0	0	0
2019/10/19 07:04:00	BASE	6.60	142	7.41	140	-3.8	71	-8.4	0	0	984.2	NA	0.0000		9999	11390	0	0	0
2019/10/19 07:05:00	BASE	6.75	140	7.41	140	-3.9	71	-8.4	0	0	984.2	NA	0.0000		9999	11420	0	0	0
2019/10/19 07:06:00	BASE	6.71	137	7.41	128	-3.9	72	-8.3	0	0	984.2	NA	0.0000		9999	11420	0	0	0
2019/10/19 07:07:00	BASE	6.25	135	7.41	128	-3.8	72	-8.1	0	0	984.2	NA	0.0000		9999	11390	0	0	0
2019/10/19 07:08:00	BASE	5.53	136	7.41	128	-3.8	73	-7.9	0	0	984.2	NA	0.0000		9999	11350	0	0	0
2019/10/19 07:09:00	BASE	5.32	133	7.41	128	-3.8	74	-7.8	0	0	984.2	NA	0.0000		9999	11350	0	0	0
2019/10/19 07:10:00	BASE	5.46	132	7.41	128	-3.9	74	-7.8	0	0	984.2	NA	0.0000		9999	11350	0	0	0
2019/10/19 07:11:00	BASE	5.35	131	7.41	128	-4.0	74	-7.9	0	0	984.2	NA	0.0000		9999	11350	0	0	0
2019/10/19 07:12:00	BASE	4.97	130	7.41	128	-4.0	74	-8.0	0	0	984.2	NA	0.0000		9999	11390	0	0	0
2019/10/19 07:13:00	BASE	4.91	133	7.41	128	-4.1	74	-8.1	0	0	984.2	NA	0.0000		9999	11350	0	0	0
2019/10/19 07:14:00	BASE	4.80	134	7.41	128	-4.2	74	-8.2	0	0	984.1	NA	0.0000		9999	11250	0	0	0
2019/10/19 07:15:00	BASE	5.07	135	7.41	128	-4.3	74	-8.2	0	0	984.1	NA	0.0000		9999	11350	0	0	0
2019/10/19 07:16:00	BASE	5.84	138	6.64	141	-4.3	74	-8.3	0	0	984.1	NA	0.0000		9999	11390	0	0	0
2019/10/19 07:17:00	BASE	6.24	141	6.64	141	-4.4	73	-8.4	0	0	984.1	NA	0.0000		9999	11390	0	0	0
2019/10/19 07:18:00	BASE	6.15	141	7.15	134	-4.4	73	-8.5	0	0	984.1	NA	0.0000		9999	11390	0	0	0
2019/10/19 07:19:00	BASE	6.84	137	7.92	135	-4.4	72	-8.6	0	0	984.0	NA	0.0000		9999	11290	0	0	0
2019/10/19 07:20:00	BASE	7.63	139	7.97	139	-4.3	72	-8.6	0	0	984.0	NA	0.0000		9999	11320	0	0	0
2019/10/19 07:21:00	BASE	7.44	142	7.97	139	-4.2	71	-8.6	0	0	984.0	NA	0.0000		9999	11320	0	0	0
2019/10/19 07:22:00	BASE	7.47	142	8.28	143	-4.1	71	-8.6	0	0	983.9	NA	0.0000		9999	11290	0	0	0
2019/10/19 07:23:00	BASE	8.09	142	8.90	146	-4.1	71	-8.5	0	0	983.8	NA	0.0000		9999	11320	0	0	0
2019/10/19 07:24:00	BASE	8.60	143	9.05	142	-4.0	71	-8.4	0	0	983.8	NA	0.0000		9999	11250	0	0	0
2019/10/19 07:25:00	BASE	8.43	140	9.05	142	-3.9	72	-8.3	0	0	983.8	NA	0.0000		9999	11250	0	0	0
2019/10/19 07:26:00	BASE	7.34	138	9.05	142	-3.9	72	-8.1	0	0	983.9	NA	0.0000		9999	11250	0	0	0
2019/10/19 07:27:00	BASE	6.12	138	9.05	142	-3.9	73	-8.0	0	0	983.8	NA	0.0000		9999	11220	0	0	0
2019/10/19 07:28:00	BASE	5.69	138	9.05	142	-3.9	74	-7.9	0	0	983.7	NA	0.0000		9999	11220	0	0	0
2019/10/19 07:29:00	BASE	6.38	140	9.05	142	-4.0	74	-7.8	0	0	983.7	NA	0.0000		9999	11190	0	0	0
2019/10/19 07:30:00	BASE	7.37	141	9.05	142	-4.0	75	-7.8	0	0	983.5	NA	0.0000		9999	0	0	0	0
2019/10/19 07:31:00	BASE	7.92	142	9.05	142	-4.1	76	-7.8	0	0	983.5	NA	0.0000		9999	0	0	0	0
2019/10/19 07:32:00	BASE	8.70	142	10.34	140	-4.2	76	-7.8	0	0	983.4	NA	0.0000		9999	0	0	0	0
2019/10/19 07:33:00	BASE	9.62	142	10.34	140	-4.2	77	-7.7	0	0	983.3	NA	0.0000		9999	0	0	0	0
2019/10/19 07:34:00	BASE	10.19	138	11.06	134	-4.2	77	-7.6	0	0	983.3	NA	0.0000		9999	0	0	0	0
2019/10/19 07:35:00	BASE	10.45	133	11.11	131	-4.2	78	-7.5	0	0	983.3	NA	0.0000		9999	0	0	0	0
2019/10/19 07:36:00	BASE	9.74	132	11.11	131	-4.2	78	-7.4	0	0	983.3	NA	0.0000		9999	0	0	0	0
2019/10/19 07:37:00	BASE	8.85	133	11.11	131	-4.1	79	-7.3	0	0	983.3	NA	0.0000		9999	0	0	0	0
2019/10/19 07:38:00	BASE	8.87	136	11.11	131	-4.1	79	-7.2	0	0	983.3	NA	0.0000		9999	0	0	0	0
2019/10/19 07:39:00	BASE	8.90	138	11.11	131	-4.0	79	-7.1	0	0	983.2	NA	0.0000		9999	0	0	0	0
2019/10/19 07:40:00	BASE	8.82	138	11.11	131	-4.0	79	-7.0	0	0	983.2	NA	0.0000		9999	0	0	0	0
2019/10/19 07:41:00	BASE	9.61	138	11.11	131	-4.0	80	-7.0	0	0	983.1	NA	0.0000		9999	0	0	0	0
2019/10/19 07:42:00	BASE	9.66	134	11.11	131	-4.0	80	-7.0	0	0	983.2	NA	0.0000		9999	0	0	0	0
2019/10/19 07:43:00	BASE	9.69	129	12.81	128	-4.0	80	-7.0	0	0	983.1	NA	0.0000		9999	0	0	0	0
2019/10/19 07:44:00	BASE	10.26	132	12.81	128	-3.9	79	-6.9	0	0	983.0	NA	0.0000		9999	0	0	0	0
2019/10/19 07:45:00	BASE	9.90	137	12.81	128	-3.9	79	-7.0	0	0	982.9	NA	0.0000		9999	0	0	0	0
2019/10/19 07:46:00	BASE	9.97	138	12.81	128	-3.8	78	-7.1	0	0	982.8	NA	0.0000		9999	0	0	0	0
2019/10/19 07:47:00	BASE	10.37	141	12.81	128	-3.8	77	-7.2	0	0	982.8	NA	0.0000		9999	0	0	0	0
2019/10/19 07:48:00	BASE	10.52	142	12.81	128	-3.8	76	-7.3	0	0	982.8	NA	0.0000		9999	0	0	0	0
2019/10/19 07:49:00	BASE	10.69	138	12.81	128	-3.8	76	-7.4	0	0	982.8	NA	0.0000		9999	0	0	0	0
2019/10/19 07:50:00	BASE	10.76	136	12.81	128	-3.8	76	-7.5	0	0	982.8	NA	0.0000		9999	0	0	0	0
2019/10/19 07:51:00	BASE	10.22	132	12.81	128	-3.8	76	-7.4	0	0	982.8	NA	0.0000		9999	0	0	0	0
2019/10/19 07:52:00	BASE	9.88	129	12.81	128	-3.7	76	-7.4	0	0	982.8	NA	0.0000		9999	0	0	0	0
2019/10/19 07:53:00	BASE	8.86	125	12.45	138	-3.6	76	-7.2	0	0	982.9	NA	0.0000		9999	0	0	0	0
2019/10/19 07:54:00	BASE	8.20	124	12.45	138	-3.5	76	-7.2	0	0	982.9	NA	0.0000		9999	0	0	0	0
2019/10/19 07:55:00	BASE	7.82	126	12.45	138	-3.5	76	-7.1	0	0	982.9	NA	0.0000		9999	0	0	0	0
2019/10/19 07:56:00	BASE	6.34	117	12.45	138	-3.5	76	-7.2	0	0	982.9	NA	0.0000		9999	0	0	0	0
2019/10/19 07:57:00	BASE	6.84	103	12.45	138	-3.7	76	-7.3	0	0	982.9	NA	0.0000		9999	0	0	0	0
2019/10/19 07:58:00	BASE	8.58	96	12.45	138	-3.8	76	-7.5	0	0	982.9	NA	0.0000		9999	0	0	0	0
2019/10/19 07:59:00	BASE	8.90	96	12.14	129	-4.0	76	-7.6	1	0	982.9	NA	0.0000		9999	0	0	0	0
2019/10/19 08:00:00	BASE	8.45	101	11.32	140	-4.1	75	-7.8	1	0	982.9	NA	0.0000		9999	0	0	0	0
2019/10/19 08:01:00	BASE	8.17	106	11.32	140	-4.1	74	-8.0	1	0	982.8	NA	0.0000		9999	0	0	0	0
2019/10/19 08:02:00	BASE	8.50	108	9.77	108	-4.0	73	-8.2	1	0	982.8	NA	0.0000		9999	0	0	0	0
2019/10/19 08:03:00	BASE	9.77	111	13.58	112	-3.9	71	-8.3	1	0	982.7	NA	0.0000		9999	0	0	0	0
2019/10/19 08:04:00	BASE	11.14	112	13.58	112	-3.8	69	-8.6	1	0	982.7	NA	0.0000		9999	0	0	0	0
2019/10/19 08:05:00	BASE	11.35	113	13.58	112	-3.6	68	-8.8	1	0	982.7	NA	0.0000		9999	0	0	0	0
2019/10/19 08:06:00	BASE	10.88	112	13.58	112	-3.5	66	-9.0	1	0	982.7	NA	0.0000		9999	0	0	0	0
2019/10/19 08:07:00	BASE	10.67	114	13.58	112	-3.4	64	-9.2	1	0	982.6	NA	0.0000		9999	0	0	0	0
2019/10/19 08:08:00	BASE	9.88	118	13.58	112	-3.3	63	-9.4	1	0	982.6	NA	0.0000		9999	0	0	0	0
2019/10/19 08:09:00	BASE	8.88	116	13.58	112	-3.3	61	-9.7	1	0	982.6	NA	0.0000		9999	0	0	0	0
2019/10/19 08:10:00	BASE	9.24	112	13.58	112	-3.4	60	-10.1	2	0	982.5	NA	0.0000		9999	0	0	0	0
2019/10/19 08:11:00	BASE	10.05	108	13.58	112	-3.4	58	-10.5	2	0	982.4	NA	0.0000		9999	0	0	0	0
2019/10/19 08:12:00	BASE	9.49	105	13.58	112	-3.5	57	-10.8	2	0	982.4	NA	0.0000		9999	0	0	0	0
2019/10/19 08:13:00	BASE	8.19	101	12.30	112	-3.7	56	-11.3	2	0	982.4	NA	0.0000		9999	0	0	0	0
2019/10/19 08:14:00	BASE	8.51	108	12.24	105	-3.9	55	-11.6	2	0	982.3	NA	0.0000		9999	0	0	0	0
2019/10/19 08:15:00	BASE	9.69	119	11.63	108	-4.0	55	-11.6	2	0	982.2	NA	0.0000		9999	0	0	0	0
2019/10/19 08:16:00	BASE	9.61	119	11.47	110	-4.0	56	-11.6	2	0	982.2	NA	0.0000		9999	0	0	0	0
2019/10/19 08:17:00	BASE	9.77	113	11.37	113	-4.0	56	-11.5	3	0	982.2	NA	0.0000		9999	0	0	0	0
2019/10/19 08:18:00	BASE	10.01	111	11.42	107	-3.9	56	-11.3	3	0	982.2	NA	0.0000		9999	0	0	0	0
2019/10/19 08:19:00	BASE	10.94	110	13.27	107	-3.7	57	-11.1	3	0	982.1	NA	0.0000		9999	0	0	0	0
2019/10/19 08:20:00	BASE	12.45	109	13.32	107	-3.7	57	-10.9	3	0	982.1	NA	0.0000		9999	0	0	0	0
2019/10/19 08:21:00	BASE	11.91	109	13.32	107	-3.7	57	-10.9	4	0	982.1	NA	0.0000		9999	0	0	0	0
2019/10/19 08:22:00	BASE	11.31	110	13.32	107	-3.7	57	-10.9	4	0	982.0	NA	0.0000		9999	0	0	0	0
2019/10/19 08:23:00	BASE	10.99	110	13.32	107	-3.8	57	-11.0	5	0	982.0	NA	0.0000		9999	0	0	0	0
2019/10/19 08:24:00	BASE	10.83	112	13.32	107	-3.7	56	-11.2	6	0	981.9	NA	0.0000		9999	0	0	0	0
2019/10/19 08:25:00	BASE	11.37	118	13.32	107	-3.7	55	-11.4	6	0	981.8	NA	0.0000		9999	0	0	0	0
2019/10/19 08:26:00	BASE	11.62	123	13.89	119	-3.7	55	-11.5	6	0	981.7	NA	0.0000		9999	0	0	0	0
2019/10/19 08:27:00	BASE	12.56	123	14.10	124	-3.6	55	-11.4	7	0	981.7	NA	0.0000		9999	0	0	0	0
2019/10/19 08:28:00	BASE	13.83	121	14.61	121	-3.5	55	-11.2	7	0	981.6	NA	0.0000		9999	0	0	0	0
2019/10/19 08:29:00	BASE	13.93	121	14.61	121	-3.4	56	-10.8	7	0	981.6	NA	0.0000		9999	0	0	0	0
2019/10/19 08:30:00	BASE	13.01	125	14.61	121	-3.3	58	-10.5	7	0	981.6	NA	0.0000		9999	0	0	0	0
2019/10/19 08:31:00	BASE	12.09	129	14.61	121	-3.3	59	-10.1	7	0	981.5	NA	0.0000		9999	0	0	0	0
2019/10/19 08:32:00	BASE	12.08	127	14.61	121	-3.3	61	-9.8	7	0	981.5	NA	0.0000		9999	0	0	0	0
2019/10/19 08:33:00	BASE	12.43	126	14.61	121	-3.2	62	-9.5	8	0	981.5	NA	0.0000		9999	0	0	0	0
2019/10/19 08:34:00	BASE	12.02	129	14.61	121	-3.3	63	-9.4	8	0	981.5	NA	0.0000		9999	0	0	0	0
2019/10/19 08:35:00	BASE	11.10	133	14.61	121	-3.3	63	-9.3	8	0	981.4	NA	0.0000		9999	0	0	0	0
2019/10/19 08:36:00	BASE	10.63	136	14.61	121	-3.4	64	-9.2	8	0	981.4	NA	0.0000		9999	0	0	0	0
2019/10/19 08:37:00	BASE	11.20	131	14.61	121	-3.4	64	-9.2	8	0	981.4	NA	0.0000		9999	0	0	0	0
2019/10/19 08:38:00	BASE	11.98	127	14.46	121	-3.4	65	-9.1	8	0	981.3	NA	0.0000		9999	0	0	0	0
2019/10/19 08:39:00	BASE	12.02	132	13.43	129	-3.3	65	-9.0	9	0	981.2	NA	0.0000		9999	0	0	0	0
2019/10/19 08:40:00	BASE	11.73	136	13.43	129	-3.3	65	-8.9	9	0	981.2	NA	0.0000		9999	0	0	0	0
2019/10/19 08:41:00	BASE	11.41	139	13.43	129	-3.3	65	-9.0	9	0	981.2	NA	0.0000		9999	0	0	0	0
2019/10/19 08:42:00	BASE	11.19	138	13.43	129	-3.3	64	-9.0	9	0	981.2	NA	0.0000		9999	0	0	0	0
2019/10/19 08:43:00	BASE	10.54	138	13.12	135	-3.3	64	-9.1	9	0	981.2	NA	0.0000		9999	0	0	0	0
2019/10/19 08:44:00	BASE	9.25	137	13.12	135	-3.3	64	-9.2	9	0	981.1	NA	0.0000		9999	0	0	0	0
2019/10/19 08:45:00	BASE	8.65	138	13.12	135	-3.4	64	-9.2	10	0	981.0	NA	0.0000		9999	0	0	0	0
2019/10/19 08:46:00	BASE	8.91	138	13.12	135	-3.4	65	-9.2	10	0	981.0	NA	0.0000		9999	0	0	0	0
2019/10/19 08:47:00	BASE	8.87	137	13.12	135	-3.5	65	-9.2	10	0	981.0	NA	0.0000		9999	0	0	0	0
2019/10/19 08:48:00	BASE	8.46	141	13.12	135	-3.5	64	-9.2	10	0	980.9	NA	0.0000		9999	0	0	0	0
2019/10/19 08:49:00	BASE	8.90	147	12.24	130	-3.5	65	-9.2	10	0	980.8	NA	0.0000		9999	0	0	0	0
2019/10/19 08:50:00	BASE	10.95	147	13.32	141	-3.5	65	-9.1	11	0	980.7	NA	0.0000		9999	0	0	0	0
2019/10/19 08:51:00	BASE	12.00	142	13.32	141	-3.4	65	-9.0	11	0	980.7	NA	0.0000		9999	0	0	0	0
2019/10/19 08:52:00	BASE	11.30	139	13.32	141	-3.4	66	-8.8	11	0	980.8	NA	0.0000		9999	0	0	0	0
2019/10/19 08:53:00	BASE	10.47	135	13.32	141	-3.4	67	-8.6	11	0	980.8	NA	0.0000		9999	0	0	0	0
2019/10/19 08:54:00	BASE	9.85	135	13.32	141	-3.3	68	-8.4	11	0	980.8	NA	0.0000		9999	0	0	0	0
2019/10/19 08:55:00	BASE	10.29	135	13.32	141	-3.3	68	-8.3	12	0	980.7	NA	0.0000		9999	0	0	0	0
2019/10/19 08:56:00	BASE	10.13	133	13.32	141	-3.3	69	-8.2	12	0	980.8	NA	0.0000		9999	0	0	0	0
2019/10/19 08:57:00	BASE	9.35	131	13.32	141	-3.3	69	-8.3	12	0	980.7	NA	0.0000		9999	0	0	0	0
2019/10/19 08:58:00	BASE	9.04	130	13.32	141	-3.4	69	-8.3	12	0	980.7	NA	0.0000		9999	0	0	0	0
2019/10/19 08:59:00	BASE	8.64	131	13.32	141	-3.4	68	-8.4	13	0	980.7	NA	0.0000		9999	0	0	0	0
2019/10/19 09:00:00	BASE	7.42	129	12.76	140	-3.5	68	-8.5	13	0	980.7	NA	0.0000		9999	0	0	0	0
2019/10/19 09:01:00	BASE	6.17	124	12.19	140	-3.6	68	-8.7	14	0	980.6	NA	0.0000		9999	0	0	0	0
2019/10/19 09:02:00	BASE	5.99	133	11.88	128	-3.6	66	-9.0	14	0	980.5	NA	0.0000		9999	0	0	0	0
2019/10/19 09:03:00	BASE	6.31	155	11.88	128	-3.6	65	-9.3	15	0	980.4	NA	0.0000		9999	0	0	0	0
2019/10/19 09:04:00	BASE	6.60	166	11.88	128	-3.5	63	-9.5	15	0	980.3	NA	0.0000		9999	0	0	0	0
2019/10/19 09:05:00	BASE	7.11	164	10.19	125	-3.4	62	-9.6	15	0	980.3	NA	0.0000		9999	0	0	0	0
2019/10/19 09:06:01	BASE	7.22	156	10.19	125	-3.4	62	-9.7	16	0	980.3	NA	0.0000		9999	0	0	0	0
2019/10/19 09:07:00	BASE	7.18	147	9.62	126	-3.5	63	-9.6	16	0	980.2	NA	0.0000		9999	0	0	0	0
2019/10/19 09:08:00	BASE	7.99	142	9.52	138	-3.6	64	-9.5	17	0	980.2	NA	0.0000		9999	0	0	0	0
2019/10/19 09:09:00	BASE	8.71	133	10.55	130	-3.8	65	-9.5	18	0	980.1	NA	0.0000		9999	0	0	0	0
2019/10/19 09:10:00	BASE	9.90	122	11.83	121	-3.8	65	-9.5	19	0	980.1	NA	0.0000		9999	0	0	0	0
2019/10/19 09:11:00	BASE	11.43	118	13.17	120	-3.7	65	-9.4	20	0	980.0	NA	0.0000		9999	0	0	0	0
2019/10/19 09:12:00	BASE	11.54	120	13.17	120	-3.5	64	-9.2	21	0	979.9	NA	0.0000		9999	0	0	0	0
2019/10/19 09:13:00	BASE	10.02	125	13.17	120	-3.3	64	-9.2	22	0	979.9	NA	0.0000		9999	0	0	0	0
2019/10/19 09:14:00	BASE	8.97	126	13.17	120	-3.0	63	-9.2	24	0	979.9	NA	0.0000		9999	0	0	0	0
2019/10/19 09:15:00	BASE	9.06	121	13.17	120	-2.9	62	-9.2	27	0	979.9	NA	0.0000		9999	0	0	0	0
2019/10/19 09:16:00	BASE	9.54	116	13.17	120	-2.7	61	-9.2	31	0	979.8	NA	0.0000		9999	0	0	0	0
2019/10/19 09:17:00	BASE	9.90	115	13.17	120	-2.7	60	-9.3	36	0	979.8	NA	0.0000		9999	0	0	0	0
2019/10/19 09:18:00	BASE	10.31	117	13.17	120	-2.6	59	-9.4	39	0	979.8	NA	0.0000		9999	0	0	0	0
2019/10/19 09:19:00	BASE	10.72	117	13.17	120	-2.5	58	-9.6	41	0	979.8	NA	0.0000		9999	0	0	0	0
2019/10/19 09:20:00	BASE	9.92	116	13.17	120	-2.5	57	-9.8	40	0	979.8	NA	0.0000		9999	0	0	0	0
2019/10/19 09:21:00	BASE	8.69	119	12.04	122	-2.5	56	-10.0	37	0	979.8	NA	0.0000		9999	0	0	0	0
2019/10/19 09:22:00	BASE	7.51	119	11.83	117	-2.5	56	-10.2	37	0	979.8	NA	0.0000		9999	7420	0	0	0
2019/10/19 09:23:00	BASE	5.76	114	11.83	117	-2.5	55	-10.3	39	0	979.8	NA	0.0000		9999	0	0	0	0
2019/10/19 09:24:00	BASE	4.47	123	11.83	117	-2.5	55	-10.4	40	0	979.8	NA	0.0000		9999	0	0	0	0
2019/10/19 09:25:00	BASE	3.38	125	11.83	117	-2.5	54	-10.5	41	0	979.7	NA	0.0000		9999	7320	0	0	0
2019/10/19 09:26:00	BASE	2.64	128	11.83	117	-2.6	54	-10.7	42	0	979.7	NA	0.0000		9999	0	0	0	0
2019/10/19 09:27:00	BASE	2.38	150	11.83	117	-2.7	54	-10.9	46	0	979.6	NA	0.0000		9999	7420	0	0	0
2019/10/19 09:28:00	BASE	1.87	172	11.83	117	-2.9	54	-11.0	51	0	979.5	NA	0.0000		9999	7350	0	0	0
2019/10/19 09:29:00	BASE	1.74	193	9.77	113	-3.0	54	-11.0	55	0	979.5	NA	0.0000		9999	7350	0	0	0
2019/10/19 09:30:00	BASE	1.92	198	9.11	126	-3.2	54	-11.1	58	0	979.4	NA	0.0000		9999	7380	0	0	0
2019/10/19 09:31:00	BASE	2.31	202	7.10	118	-3.3	55	-11.0	61	0	979.3	NA	0.0000		9999	7480	0	0	0
2019/10/19 09:32:00	BASE	2.31	228	6.12	116	-3.3	56	-10.9	65	0	979.3	NA	0.0000		9999	7450	0	0	0
2019/10/19 09:33:00	BASE	1.43	250	5.04	130	-3.4	57	-10.7	68	0	979.2	NA	0.0000		9999	7420	0	0	0
2019/10/19 09:34:00	BASE	0.51	260	3.65	135	-3.5	58	-10.5	70	0	979.2	NA	0.0000		9999	7420	0	0	0
2019/10/19 09:35:00	BASE	0.09	256	3.19	142	-3.5	60	-10.2	74	0	979.2	NA	0.0000		9999	7420	0	0	0
2019/10/19 09:36:00	BASE	0.41	138	2.98	187	-3.5	61	-9.9	88	0	979.2	NA	0.0000		9999	7420	7940	0	0
2019/10/19 09:37:00	BASE	1.69	109	5.04	94	-3.5	62	-9.7	97	0	979.1	NA	0.0000		9999	7380	0	0	0
2019/10/19 09:38:00	BASE	3.58	98	5.09	101	-3.5	62	-9.8	104	0	979.1	NA	0.0000		9999	0	0	0	0
2019/10/19 09:39:00	BASE	4.81	87	5.56	78	-3.5	61	-10.1	117	0	979.1	NA	0.0000		9999	7870	0	0	0
2019/10/19 09:40:00	BASE	5.28	81	6.17	73	-3.5	59	-10.4	115	0	979.1	NA	0.0000		9999	7680	0	0	0
2019/10/19 09:41:00	BASE	4.75	89	6.17	73	-3.5	57	-10.7	118	0	979.1	NA	0.0000		9999	0	0	0	0
2019/10/19 09:42:00	BASE	3.22	104	6.17	73	-3.4	56	-10.9	126	0	979.1	NA	0.0000		9999	0	0	0	0
2019/10/19 09:43:00	BASE	2.74	115	6.17	73	-3.4	55	-11.1	131	0	979.0	NA	0.0000		9999	0	0	0	0
2019/10/19 09:44:00	BASE	2.68	110	6.17	73	-3.3	54	-11.2	128	0	979.0	NA	0.0000		9999	0	0	0	0
2019/10/19 09:45:00	BASE	2.07	94	6.17	73	-3.2	53	-11.4	138	0	979.0	NA	0.0000		9999	0	0	0	0
2019/10/19 09:46:00	BASE	2.06	80	6.17	73	-3.1	52	-11.5	147	0	979.0	NA	0.0000		9999	0	0	0	0
2019/10/19 09:47:00	BASE	2.18	82	6.17	73	-3.0	51	-11.7	154	0	978.9	NA	0.0000		9999	0	0	0	0
2019/10/19 09:48:00	BASE	2.26	94	6.17	73	-2.8	50	-11.8	157	0	978.8	NA	0.0000		9999	0	0	0	0
2019/10/19 09:49:00	BASE	2.12	102	6.17	73	-2.6	49	-11.9	147	0	978.7	NA	0.0000		9999	0	0	0	0
2019/10/19 09:50:00	BASE	2.13	111	4.78	94	-2.6	48	-12.0	149	0	978.7	NA	0.0000		9999	0	0	0	0
2019/10/19 09:51:00	BASE	2.52	126	3.70	121	-2.7	48	-12.2	162	0	978.7	NA	0.0000		9999	0	0	0	0
2019/10/19 09:52:00	BASE	2.87	115	4.53	85	-2.9	48	-12.4	175	0	978.7	NA	0.0000		9999	0	0	0	0
2019/10/19 09:53:00	BASE	3.89	93	5.35	97	-3.0	49	-12.3	166	0	978.7	NA	0.0000		9999	0	0	0	0
2019/10/19 09:54:00	BASE	4.48	102	5.35	97	-3.1	49	-12.3	167	0	978.6	NA	0.0000		9999	0	0	0	0
2019/10/19 09:55:00	BASE	4.20	122	5.35	97	-3.1	49	-12.2	169	0	978.5	NA	0.0000		9999	0	0	0	0
2019/10/19 09:56:00	BASE	3.83	135	5.35	97	-3.0	50	-12.1	161	0	978.5	NA	0.0000		9999	0	0	0	0
2019/10/19 09:57:00	BASE	3.50	131	5.35	97	-2.9	50	-12.0	129	0	978.5	NA	0.0000		9999	0	0	0	0
2019/10/19 09:58:00	BASE	3.00	108	5.35	97	-2.9	50	-12.0	130	0	978.5	NA	0.0000		9999	0	0	0	0
2019/10/19 09:59:00	BASE	2.02	85	5.35	97	-3.0	50	-11.9	133	0	978.5	NA	0.0000		9999	0	0	0	0
2019/10/19 10:00:00	BASE	0.68	73	5.35	97	-3.0	51	-11.7	127	0	978.4	NA	0.0000		9999	0	0	0	0
2019/10/19 10:01:00	BASE	0.00	91	5.35	97	-3.0	52	-11.6	113	0	978.3	NA	0.0000		9999	0	0	0	0
2019/10/19 10:02:00	BASE	0.00	106	5.35	97	-3.0	52	-11.5	101	0	978.3	NA	0.0000		9999	0	0	0	0
2019/10/19 10:03:00	BASE	0.00	83	5.25	103	-2.9	52	-11.4	98	0	978.3	NA	0.0000		9999	0	0	0	0
2019/10/19 10:04:00	BASE	0.00	79	4.17	125	-2.8	52	-11.4	99	0	978.2	NA	0.0000		9999	0	0	0	0
2019/10/19 10:05:00	BASE	0.82	150	3.81	141	-2.7	51	-11.4	87	0	978.1	NA	0.0000		9999	0	0	0	0
2019/10/19 10:06:00	BASE	3.10	189	5.71	189	-2.6	51	-11.4	87	0	978.0	NA	0.0000		9999	0	0	0	0
2019/10/19 10:07:00	BASE	5.92	179	8.08	174	-2.7	51	-11.3	88	0	977.9	NA	0.0000		9999	0	0	0	0
2019/10/19 10:08:00	BASE	7.43	167	8.18	174	-2.7	52	-11.1	89	0	977.9	NA	0.0000		9999	0	0	0	0
2019/10/19 10:09:00	BASE	7.18	163	8.18	174	-2.7	54	-10.8	91	0	977.9	NA	0.0000		9999	10700	0	0	0
2019/10/19 10:10:00	BASE	6.79	152	8.18	174	-2.7	55	-10.5	93	0	977.9	NA	0.0000		9999	10790	0	0	0
2019/10/19 10:11:00	BASE	6.92	146	8.18	174	-2.7	57	-10.1	93	0	977.8	NA	0.0000		9999	10790	0	0	0
2019/10/19 10:12:00	BASE	7.59	147	8.54	147	-2.6	58	-9.8	93	0	977.8	NA	0.0000		9999	10730	0	0	0
2019/10/19 10:13:00	BASE	8.16	150	8.90	149	-2.7	58	-9.7	92	0	977.7	NA	0.0000		9999	10730	0	0	0
2019/10/19 10:14:00	BASE	8.17	151	8.90	149	-2.8	59	-9.7	92	0	977.7	NA	0.0000		9999	10760	0	0	0
2019/10/19 10:15:00	BASE	7.56	145	8.90	149	-2.8	59	-9.7	92	0	977.7	NA	0.0000		9999	10760	0	0	0
2019/10/19 10:16:00	BASE	6.26	137	8.90	149	-2.9	59	-9.7	92	0	977.7	NA	0.0000		9999	0	0	0	0
2019/10/19 10:17:00	BASE	4.94	130	8.90	149	-2.9	60	-9.7	93	0	977.7	NA	0.0000		9999	0	0	0	0
2019/10/19 10:18:00	BASE	4.16	105	8.90	149	-3.0	60	-9.7	94	0	977.7	NA	0.0000		9999	0	0	0	0
2019/10/19 10:19:00	BASE	3.20	58	8.90	149	-3.1	60	-9.7	94	0	977.6	NA	0.0000		9999	0	0	0	0
2019/10/19 10:20:00	BASE	1.55	47	8.90	149	-3.2	60	-9.8	95	0	977.5	NA	0.0000		9999	0	0	0	0
2019/10/19 10:21:00	BASE	0.45	68	8.90	149	-3.3	61	-9.8	96	0	977.4	NA	0.0000		9999	0	0	0	0
2019/10/19 10:22:00	BASE	0.71	81	8.90	149	-3.3	61	-9.8	96	0	977.3	NA	0.0000		9999	0	0	0	0
2019/10/19 10:23:00	BASE	1.87	88	8.64	150	-3.3	60	-9.9	96	0	977.3	NA	0.0000		9999	11680	0	0	0
2019/10/19 10:24:00	BASE	3.19	90	7.56	143	-3.3	60	-9.9	96	0	977.3	NA	0.0000		9999	11680	0	0	0
2019/10/19 10:25:00	BASE	4.16	97	5.97	134	-3.1	60	-9.9	95	0	977.3	NA	0.0000		9999	11710	0	0	0
2019/10/19 10:26:00	BASE	4.24	114	5.50	143	-3.1	59	-9.9	94	0	977.2	NA	0.0000		9999	11650	0	0	0
2019/10/19 10:27:00	BASE	4.22	133	5.25	142	-3.1	59	-10.0	94	0	977.2	NA	0.0000		9999	11580	0	0	0
2019/10/19 10:28:00	BASE	4.62	145	5.35	148	-3.2	59	-10.0	93	0	977.1	NA	0.0000		9999	11550	0	0	0
2019/10/19 10:29:00	BASE	4.94	145	5.76	142	-3.2	59	-10.1	92	0	977.1	NA	0.0000		9999	10270	11580	0	0
2019/10/19 10:30:00	BASE	4.73	142	5.92	160	-3.3	59	-10.1	90	0	977.1	NA	0.0000		9999	10140	0	0	0
2019/10/19 10:31:00	BASE	4.70	143	6.22	158	-3.4	60	-10.1	88	0	977.1	NA	0.0000		9999	10040	0	0	0
2019/10/19 10:32:00	BASE	4.51	134	6.22	158	-3.3	60	-10.0	85	0	977.1	NA	0.0000		9999	9970	0	0	0
2019/10/19 10:33:00	BASE	4.45	125	6.22	158	-3.3	60	-9.8	83	0	977.0	NA	0.0000		9999	10010	0	0	0
2019/10/19 10:34:00	BASE	4.91	129	6.22	158	-3.1	60	-9.8	82	0	977.0	NA	0.0000		9999	10170	0	0	0
2019/10/19 10:35:00	BASE	4.78	130	6.22	158	-2.9	59	-9.9	81	0	977.0	NA	0.0000		9999	10240	0	0	0
2019/10/19 10:36:00	BASE	4.78	124	6.22	158	-2.7	56	-10.2	81	0	977.0	NA	0.0000		9999	10200	0	0	0
2019/10/19 10:37:00	BASE	4.82	122	6.22	158	-2.5	54	-10.6	82	0	976.8	NA	0.0000		9999	10240	0	0	0
2019/10/19 10:38:00	BASE	4.80	126	6.22	158	-2.4	52	-10.9	83	0	976.8	NA	0.0000		9999	10200	0	0	0
2019/10/19 10:39:00	BASE	4.86	128	6.22	158	-2.2	50	-11.2	84	0	976.7	NA	0.0000		9999	10370	0	0	0
2019/10/19 10:40:00	BASE	5.12	123	6.22	158	-2.1	49	-11.5	86	0	976.7	NA	0.0000		9999	10400	0	0	0
2019/10/19 10:41:00	BASE	4.76	119	5.86	116	-2.1	48	-11.6	89	0	976.7	NA	0.0000		9999	10270	0	0	0
2019/10/19 10:42:00	BASE	3.92	125	5.86	116	-2.0	47	-11.7	92	0	976.6	NA	0.0000		9999	10240	0	0	0
2019/10/19 10:43:00	BASE	3.89	132	5.86	116	-1.9	47	-11.8	95	0	976.6	NA	0.0000		9999	10240	0	0	0
2019/10/19 10:44:00	BASE	4.22	131	5.86	116	-1.8	46	-12.0	98	0	976.6	NA	0.0000		9999	9740	10300	0	0
2019/10/19 10:45:00	BASE	4.90	128	6.33	132	-1.8	45	-12.0	98	0	976.6	NA	0.0000		9999	9650	10270	0	0
2019/10/19 10:46:00	BASE	6.13	125	8.18	130	-1.7	45	-12.0	98	0	976.5	NA	0.0000		9999	9740	10270	0	0
2019/10/19 10:47:00	BASE	6.39	120	8.18	130	-1.7	46	-11.9	97	0	976.4	NA	0.0000		9999	9580	10240	0	0
2019/10/19 10:48:00	BASE	5.19	116	8.18	130	-1.7	46	-11.9	96	0	976.3	NA	0.0000		9999	9550	10300	0	0
2019/10/19 10:49:00	BASE	4.80	128	8.18	130	-1.7	46	-11.7	94	0	976.2	NA	0.0000		9999	9380	10270	0	0
2019/10/19 10:50:00	BASE	5.12	138	8.18	130	-1.6	46	-11.6	93	0	976.2	NA	0.0000		9999	9610	10170	0	0
2019/10/19 10:51:00	BASE	4.90	130	8.18	130	-1.6	47	-11.5	91	0	976.2	NA	0.0000		9999	9350	10110	0	0
2019/10/19 10:52:00	BASE	4.32	124	8.18	130	-1.6	47	-11.4	89	0	976.2	NA	0.0000		9999	9380	10270	0	0
2019/10/19 10:53:00	BASE	3.68	126	8.18	130	-1.7	48	-11.2	87	0	976.2	NA	0.0000		9999	9320	0	0	0
2019/10/19 10:54:00	BASE	3.62	118	8.18	130	-1.8	49	-11.1	84	0	976.1	NA	0.0000		9999	9250	0	0	0
2019/10/19 10:55:00	BASE	3.65	106	8.18	130	-1.9	49	-11.1	81	0	976.2	NA	0.0000		9999	9250	0	0	0
2019/10/19 10:56:00	BASE	3.19	91	7.25	124	-2.0	49	-11.2	77	0	976.2	NA	0.0000		9999	9190	0	0	0
2019/10/19 10:57:00	BASE	2.37	72	6.22	135	-1.9	48	-11.4	75	0	976.1	NA	0.0000		9999	9090	0	0	0
2019/10/19 10:58:00	BASE	1.00	74	6.22	135	-1.8	47	-11.7	73	0	976.0	NA	0.0000		9999	8990	0	0	0
2019/10/19 10:59:00	BASE	0.09	88	5.86	143	-1.7	46	-11.9	71	0	976.0	NA	0.0000		9999	8920	0	0	0
2019/10/19 11:00:00	BASE	0.00	101	5.20	119	-1.5	45	-12.0	70	0	976.0	NA	0.0000		9999	9060	0	0	0
2019/10/19 11:01:00	BASE	0.00	197	4.22	108	-1.3	44	-12.0	70	0	976.0	NA	0.0000		9999	8860	0	0	0
2019/10/19 11:02:00	BASE	0.15	197	4.22	108	-1.2	44	-11.9	70	0	975.9	NA	0.0000		9999	9250	0	0	0
2019/10/19 11:03:00	BASE	1.17	165	4.22	108	-1.2	44	-11.8	71	0	975.9	NA	0.0000		9999	9250	0	0	0
2019/10/19 11:04:00	BASE	2.43	152	4.01	109	-1.2	45	-11.8	72	0	975.8	NA	0.0000		9999	9190	0	0	0
2019/10/19 11:05:00	BASE	3.09	130	4.32	101	-1.4	45	-11.7	74	0	975.8	NA	0.0000		9999	8960	0	0	0
2019/10/19 11:06:00	BASE	3.24	115	4.32	101	-1.5	46	-11.6	76	0	975.7	NA	0.0000		9999	8860	0	0	0
2019/10/19 11:07:00	BASE	2.70	111	4.32	101	-1.6	46	-11.6	79	0	975.6	NA	0.0000		9999	8920	0	0	0
2019/10/19 11:08:00	BASE	2.86	124	4.32	101	-1.7	47	-11.4	81	0	975.6	NA	0.0000		9999	8920	0	0	0
2019/10/19 11:09:00	BASE	4.37	145	6.43	144	-1.8	49	-11.1	84	0	975.6	NA	0.0000		9999	7780	0	0	0
2019/10/19 11:10:00	BASE	5.73	147	6.58	143	-1.9	50	-10.9	86	0	975.6	NA	0.0000		9999	9380	0	0	0
2019/10/19 11:11:01	BASE	5.81	138	6.58	143	-1.9	51	-10.8	88	0	975.6	NA	0.0000		9999	9150	0	0	0
2019/10/19 11:12:00	BASE	5.15	133	6.58	143	-2.0	51	-10.7	89	0	975.6	NA	0.0000		9999	7780	0	0	0
2019/10/19 11:13:00	BASE	4.83	131	6.58	143	-2.1	51	-10.8	90	0	975.6	NA	0.0000		9999	8100	0	0	0
2019/10/19 11:14:00	BASE	4.55	128	6.58	143	-2.0	50	-11.0	90	0	975.5	NA	0.0000		9999	8040	0	0	0
2019/10/19 11:15:00	BASE	4.48	126	6.58	143	-1.9	49	-11.2	91	0	975.4	NA	0.0000		9999	8070	0	0	0
2019/10/19 11:16:00	BASE	5.09	123	6.58	143	-1.8	48	-11.4	91	0	975.4	NA	0.0000		9999	8990	0	0	0
2019/10/19 11:17:00	BASE	5.81	121	6.94	126	-1.7	48	-11.4	91	0	975.4	NA	0.0000		9999	8600	0	0	0
2019/10/19 11:18:00	BASE	6.17	117	6.94	126	-1.6	47	-11.4	91	0	975.4	NA	0.0000		9999	8830	0	0	0
2019/10/19 11:19:00	BASE	6.36	111	7.25	99	-1.6	47	-11.3	91	0	975.3	NA	0.0000		9999	8860	0	0	0
2019/10/19 11:20:00	BASE	6.06	106	7.25	99	-1.5	48	-11.2	92	0	975.3	NA	0.0000		9999	8660	0	0	0
2019/10/19 11:21:00	BASE	5.68	105	7.25	99	-1.5	48	-11.0	92	0	975.2	NA	0.0000		9999	8400	0	0	0
2019/10/19 11:22:00	BASE	5.69	108	7.25	99	-1.5	49	-10.9	93	0	975.2	NA	0.0000		9999	8560	0	0	0
2019/10/19 11:23:00	BASE	5.64	107	7.25	99	-1.6	50	-10.7	94	0	975.2	NA	0.0000		9999	8530	0	0	0
2019/10/19 11:24:00	BASE	5.85	103	7.25	99	-1.6	51	-10.5	95	0	975.2	NA	0.0000		9999	8600	9610	0	0
2019/10/19 11:25:00	BASE	6.42	103	7.25	105	-1.6	51	-10.5	98	0	975.2	NA	0.0000		9999	8760	9510	0	0
2019/10/19 11:26:00	BASE	6.42	109	7.25	105	-1.6	50	-10.6	100	0	975.1	NA	0.0000		9999	8690	9450	0	0
2019/10/19 11:27:00	BASE	6.17	114	7.25	105	-1.5	50	-10.6	103	0	975.1	NA	0.0000		9999	8730	9420	0	0
2019/10/19 11:28:00	BASE	5.67	108	7.25	105	-1.4	49	-10.8	106	0	975.1	NA	0.0000		9999	8560	9380	0	0
2019/10/19 11:29:00	BASE	5.25	96	7.25	105	-1.2	48	-10.9	108	0	975.0	NA	0.0000		9999	8400	9320	0	0
2019/10/19 11:30:00	BASE	5.29	98	7.25	105	-1.1	47	-11.0	111	0	975.0	NA	0.0000		9999	8330	9290	0	0
2019/10/19 11:31:00	BASE	5.12	112	7.25	105	-1.0	46	-11.1	113	0	974.8	NA	0.0000		9999	8400	0	0	0
2019/10/19 11:32:00	BASE	5.28	118	7.25	105	-0.9	46	-11.1	114	0	974.8	NA	0.0000		9999	8140	0	0	0
2019/10/19 11:33:00	BASE	5.62	110	7.25	105	-0.9	46	-11.1	114	0	974.8	NA	0.0000		9999	7970	0	0	0
2019/10/19 11:34:00	BASE	5.72	107	7.25	105	-0.9	46	-11.1	112	0	974.8	NA	0.0000		9999	8070	0	0	0
2019/10/19 11:35:00	BASE	5.48	111	6.84	122	-0.9	47	-11.0	110	0	974.8	NA	0.0000		9999	7640	0	0	0
2019/10/19 11:36:00	BASE	5.46	112	6.84	122	-1.0	47	-10.8	108	0	974.8	NA	0.0000		9999	7740	0	0	0
2019/10/19 11:37:00	BASE	5.23	116	6.28	107	-1.0	47	-10.8	106	0	974.7	NA	0.0000		9999	8100	0	0	0
2019/10/19 11:38:00	BASE	4.68	120	6.28	107	-0.9	47	-10.8	106	0	974.6	NA	0.0000		9999	8170	0	0	0
2019/10/19 11:39:00	BASE	3.98	115	6.28	107	-0.9	47	-10.8	105	0	974.6	NA	0.0000		9999	8270	0	0	0
2019/10/19 11:40:00	BASE	3.05	105	6.28	107	-0.9	47	-10.8	105	0	974.6	NA	0.0000		9999	8200	0	0	0
2019/10/19 11:41:00	BASE	2.69	92	6.28	107	-0.9	47	-10.8	104	0	974.6	NA	0.0000		9999	8170	0	0	0
2019/10/19 11:42:00	BASE	2.40	63	6.28	107	-0.9	47	-10.7	103	0	974.5	NA	0.0000		9999	7940	0	0	0
2019/10/19 11:43:00	BASE	2.43	334	6.28	107	-1.0	48	-10.6	102	0	974.5	NA	0.0000		9999	7940	0	0	0
2019/10/19 11:44:00	BASE	3.61	314	6.02	109	-1.3	50	-10.3	101	0	974.5	NA	0.0000		9999	8070	0	0	0
2019/10/19 11:45:00	BASE	4.02	311	6.02	109	-1.6	53	-9.9	100	0	974.4	NA	0.0000		9999	8010	0	0	0
2019/10/19 11:46:00	BASE	2.71	315	5.35	120	-1.8	56	-9.5	99	0	974.3	NA	0.0000		9999	8100	0	0	0
2019/10/19 11:47:00	BASE	1.64	7	4.94	114	-2.0	57	-9.4	98	0	974.3	NA	0.0000		9999	8070	0	0	0
2019/10/19 11:48:00	BASE	2.30	68	4.68	321	-2.1	58	-9.3	97	0	974.2	NA	0.0000		9999	8040	0	0	0
2019/10/19 11:49:00	BASE	2.88	86	4.68	321	-1.9	57	-9.4	96	0	973.8	NA	0.0000		9999	8010	0	0	0
2019/10/19 11:50:00	BASE	2.50	87	4.68	321	-1.6	54	-9.7	94	0	974.1	NA	0.0000		9999	8010	0	0	0
2019/10/19 11:51:00	BASE	1.70	84	4.68	321	-1.3	52	-10.0	93	0	974.1	NA	0.0000		9999	7910	0	0	0
2019/10/19 11:52:00	BASE	1.05	58	4.68	321	-1.1	50	-10.3	92	0	974.1	NA	0.0000		9999	7610	0	0	0
2019/10/19 11:53:00	BASE	1.13	12	4.68	321	-1.0	49	-10.4	91	0	974.1	NA	0.0000		9999	7550	0	0	0
2019/10/19 11:54:00	BASE	0.61	3	4.22	92	-1.1	49	-10.4	91	0	973.9	NA	0.0000		9999	7610	0	0	0
2019/10/19 11:55:00	BASE	0.25	225	4.22	92	-1.2	50	-10.4	91	0	973.9	NA	0.0000		9999	7350	0	0	0
2019/10/19 11:56:00	BASE	0.88	199	4.22	92	-1.4	51	-10.3	92	0	973.7	NA	0.0000		9999	7550	0	0	0
2019/10/19 11:57:00	BASE	2.32	182	4.53	168	-1.5	52	-10.1	93	0	973.8	NA	0.0000		9999	7680	0	0	0
2019/10/19 11:58:00	BASE	3.28	173	4.53	168	-1.6	53	-9.9	94	0	973.5	NA	0.0000		9999	7580	0	0	0
2019/10/19 11:59:00	BASE	2.79	179	4.53	168	-1.6	54	-9.8	97	0	973.5	NA	0.0000		9999	7450	0	0	0
2019/10/19 12:00:00	BASE	1.76	166	4.53	168	-1.7	55	-9.6	99	0	973.7	NA	0.0000		9999	7190	0	0	0
2019/10/19 12:01:00	BASE	1.41	148	4.53	168	-1.7	56	-9.5	99	0	973.7	NA	0.0000		9999	6890	9150	0	0
2019/10/19 12:02:00	BASE	3.41	132	6.74	133	-1.7	56	-9.4	99	0	973.7	NA	0.0000		9999	7220	0	0	0
2019/10/19 12:03:00	BASE	6.24	131	8.18	135	-1.7	56	-9.3	99	0	973.6	NA	0.0000		9999	7810	0	0	0
2019/10/19 12:04:00	BASE	8.10	134	9.57	133	-1.5	56	-9.3	99	0	973.5	NA	0.0000		9999	7970	0	0	0
2019/10/19 12:05:00	BASE	8.43	130	9.88	130	-1.3	55	-9.3	101	0	973.4	NA	0.0000		9999	9380	0	0	0
2019/10/19 12:06:00	BASE	9.27	133	13.58	142	-1.2	54	-9.2	103	0	973.2	NA	0.0000		9999	8990	0	0	0
2019/10/19 12:07:00	BASE	10.87	140	13.58	142	-1.0	53	-9.3	104	0	973.0	NA	0.0000		9999	8990	0	0	0
2019/10/19 12:08:00	BASE	10.90	139	13.58	142	-0.8	52	-9.4	106	0	973.0	NA	0.0000		9999	8400	0	0	0
2019/10/19 12:09:00	BASE	10.46	138	13.58	142	-0.6	51	-9.5	107	0	972.9	NA	0.0000		9999	6730	8760	0	0
2019/10/19 12:10:00	BASE	11.42	132	14.61	122	-0.5	50	-9.6	109	0	972.8	NA	0.0000		9999	6730	8690	0	0
2019/10/19 12:11:00	BASE	12.22	125	14.61	122	-0.4	50	-9.7	110	0	972.8	NA	0.0000		9999	6960	8660	0	0
2019/10/19 12:12:00	BASE	11.78	124	14.61	122	-0.3	49	-9.7	110	0	972.8	NA	0.0000		9999	6860	8660	0	0
2019/10/19 12:13:00	BASE	11.82	126	14.61	122	-0.3	50	-9.6	109	0	972.8	NA	0.0000		9999	6860	8630	0	0
2019/10/19 12:14:00	BASE	12.38	128	14.61	122	-0.3	50	-9.5	106	0	972.8	NA	0.0000		9999	7050	8600	0	0
2019/10/19 12:15:00	BASE	11.47	127	14.61	122	-0.3	50	-9.4	104	0	972.9	NA	0.0000		9999	6920	0	0	0
2019/10/19 12:16:00	BASE	10.39	127	14.61	122	-0.4	51	-9.3	101	0	972.8	NA	0.0000		9999	7050	0	0	0
2019/10/19 12:17:00	BASE	10.51	123	14.61	122	-0.4	52	-9.0	99	0	972.8	NA	0.0000		9999	8890	0	0	0
2019/10/19 12:18:00	BASE	10.27	114	14.61	122	-0.5	54	-8.8	99	0	972.9	NA	0.0000		9999	23000	0	0	0
2019/10/19 12:19:00	BASE	9.58	110	14.61	122	-0.6	55	-8.6	101	0	972.9	NA	0.0000		9999	8170	0	0	0
2019/10/19 12:20:00	BASE	8.15	117	13.48	125	-0.7	56	-8.4	105	0	972.9	NA	0.0000		9999	8040	0	0	0
2019/10/19 12:21:00	BASE	7.17	120	13.48	125	-0.8	57	-8.2	109	0	972.9	NA	0.0000		9999	8460	0	0	0
2019/10/19 12:22:00	BASE	8.75	104	14.61	88	-0.8	58	-8.1	112	0	972.8	NA	0.0000		9999	8100	0	0	0
2019/10/19 12:23:00	BASE	12.55	88	16.31	79	-0.8	59	-7.9	115	0	972.7	NA	0.0000		9999	8270	0	0	0
2019/10/19 12:24:00	BASE	15.29	83	17.90	82	-0.8	59	-7.8	118	0	972.7	NA	0.0000		9999	8100	0	0	0
2019/10/19 12:25:00	BASE	16.47	81	18.67	74	-0.8	59	-7.8	122	0	972.6	NA	0.0000		9999	7970	0	0	0
2019/10/19 12:26:00	BASE	17.04	80	18.88	80	-0.8	59	-7.8	125	0	972.5	NA	0.0000		9999	6000	0	0	0
2019/10/19 12:27:00	BASE	16.34	80	18.88	80	-0.8	59	-7.8	126	0	972.5	NA	0.0000		9999	9090	0	0	0
2019/10/19 12:28:00	BASE	15.78	79	18.88	80	-0.7	58	-7.9	126	0	972.4	NA	0.0000		9999	8760	0	0	0
2019/10/19 12:29:00	BASE	15.61	79	18.88	80	-0.7	58	-7.9	125	0	972.4	NA	0.0000		9999	7250	0	0	0
2019/10/19 12:30:00	BASE	15.36	76	18.88	80	-0.6	58	-8.0	125	0	972.3	NA	0.0000		9999	8860	0	0	0
2019/10/19 12:31:00	BASE	15.73	70	18.88	80	-0.4	56	-8.1	124	0	972.3	NA	0.0000		9999	8530	0	0	0
2019/10/19 12:32:00	BASE	16.56	69	19.55	68	-0.3	55	-8.2	124	0	972.2	NA	0.0000		9999	8530	0	0	0
2019/10/19 12:33:00	BASE	17.50	71	19.55	68	-0.3	56	-8.1	122	0	972.2	NA	0.0000		9999	7120	0	0	0
2019/10/19 12:34:00	BASE	19.22	74	22.07	77	-0.3	56	-8.1	121	0	972.0	NA	0.0000		9999	8690	0	0	0
2019/10/19 12:35:00	BASE	19.34	76	22.07	77	-0.4	56	-8.1	121	0	972.0	NA	0.0000		9999	8560	0	0	0
2019/10/19 12:36:00	BASE	18.63	73	22.07	77	-0.5	57	-8.0	121	0	972.0	NA	0.0000		9999	6860	0	0	0
2019/10/19 12:37:00	BASE	19.19	69	22.07	77	-0.6	58	-8.0	121	0	971.9	NA	0.0000		9999	8460	0	0	0
2019/10/19 12:38:00	BASE	19.21	67	22.07	77	-0.7	58	-7.9	119	0	971.9	NA	0.0000		9999	6920	0	0	0
2019/10/19 12:39:00	BASE	18.13	69	22.07	77	-0.7	58	-7.9	118	0	971.9	NA	0.0000		9999	8830	0	0	0
2019/10/19 12:40:00	BASE	16.66	73	22.07	77	-0.6	58	-7.8	117	0	971.7	NA	0.0000		9999	8760	0	0	0
2019/10/19 12:41:00	BASE	15.55	75	22.07	77	-0.6	58	-7.8	116	0	971.7	NA	0.0000		9999	8200	0	0	0
2019/10/19 12:42:00	BASE	14.86	73	22.07	77	-0.5	58	-7.8	117	0	971.7	NA	0.0000		9999	8040	0	0	0
2019/10/19 12:43:00	BASE	15.15	67	22.07	77	-0.4	57	-7.8	118	0	971.7	NA	0.0000		9999	8170	0	0	0
2019/10/19 12:44:00	BASE	16.85	64	21.76	65	-0.3	57	-7.8	116	0	971.5	NA	0.0000		9999	8530	0	0	0
2019/10/19 12:45:00	BASE	18.82	65	21.76	65	-0.3	57	-7.8	113	0	971.4	NA	0.0000		9999	7380	0	0	0
2019/10/19 12:46:00	BASE	18.81	68	21.76	65	-0.3	58	-7.7	110	0	971.4	NA	0.0000		9999	6690	0	0	0
2019/10/19 12:47:00	BASE	17.06	72	21.25	66	-0.4	58	-7.6	109	0	971.4	NA	0.0000		9999	6170	0	0	0
2019/10/19 12:48:00	BASE	17.42	73	21.20	62	-0.4	59	-7.5	109	0	971.3	NA	0.0000		9999	4530	0	0	0
2019/10/19 12:49:00	BASE	18.20	74	21.20	62	-0.5	59	-7.5	111	0	971.2	NA	0.0000		9999	5940	0	0	0
2019/10/19 12:50:00	BASE	17.17	73	21.20	62	-0.5	59	-7.6	114	0	971.2	NA	0.0000		9999	6370	0	0	0
2019/10/19 12:51:00	BASE	16.89	69	21.20	62	-0.5	58	-7.6	115	0	971.1	NA	0.0000		9999	6630	0	0	0
2019/10/19 12:52:00	BASE	16.67	71	21.20	62	-0.5	59	-7.6	114	0	971.0	NA	0.0000		9999	7120	0	0	0
2019/10/19 12:53:00	BASE	16.43	76	21.20	62	-0.6	59	-7.5	113	0	971.0	NA	0.0000		9999	6170	0	0	0
2019/10/19 12:54:00	BASE	17.15	78	21.20	62	-0.7	60	-7.5	112	0	970.9	NA	0.0000		9999	5970	0	0	0
2019/10/19 12:55:00	BASE	17.49	78	21.09	71	-0.7	61	-7.4	111	0	970.9	NA	0.0000		9999	6530	0	0	0
2019/10/19 12:56:00	BASE	16.40	83	21.09	71	-0.7	61	-7.4	112	0	970.8	NA	0.0000		9999	6230	0	0	0
2019/10/19 12:57:00	BASE	17.60	91	22.17	104	-0.7	60	-7.4	112	0	970.7	NA	0.0000		9999	6660	0	0	0
2019/10/19 12:58:00	BASE	17.95	97	22.17	104	-0.6	60	-7.4	114	0	970.7	NA	0.0000		9999	21420	24480	0	0
2019/10/19 12:59:00	BASE	17.60	97	22.17	104	-0.6	61	-7.3	117	0	970.6	NA	0.0000		9999	6890	0	0	0
2019/10/19 13:00:00	BASE	18.11	96	22.17	104	-0.6	61	-7.2	119	0	970.6	NA	0.0000		9999	6660	0	0	0
2019/10/19 13:01:00	BASE	16.31	98	22.17	104	-0.7	62	-7.1	119	0	970.6	NA	0.0000		9999	8690	0	0	0
2019/10/19 13:02:00	BASE	15.88	100	22.17	104	-0.8	63	-7.0	118	0	970.5	NA	0.0000		9999	8400	0	0	0
2019/10/19 13:03:00	BASE	17.31	99	22.17	104	-0.8	63	-7.0	118	0	970.5	NA	0.0000		9999	6990	0	0	0
2019/10/19 13:04:00	BASE	18.47	95	22.17	104	-0.8	63	-6.9	117	0	970.4	NA	0.0000		9999	6990	0	0	0
2019/10/19 13:05:00	BASE	19.78	90	23.05	79	-0.8	63	-6.9	116	0	970.3	NA	0.0000		9999	6530	0	0	0
2019/10/19 13:06:00	BASE	19.50	89	23.05	79	-0.8	63	-6.9	116	0	970.3	NA	0.0000		9999	6370	0	0	0
2019/10/19 13:07:00	BASE	18.05	95	23.05	79	-0.8	63	-6.9	117	0	970.2	NA	0.0000		9999	6660	0	0	0
2019/10/19 13:08:00	BASE	19.33	97	23.92	94	-0.9	63	-6.9	117	0	970.1	NA	0.0000		9999	6230	0	0	0
2019/10/19 13:09:00	BASE	20.33	97	23.92	94	-0.9	64	-6.9	115	0	970.0	NA	0.0000		9999	6400	0	0	0
2019/10/19 13:10:00	BASE	19.15	97	23.92	94	-0.9	64	-6.9	112	0	970.0	NA	0.0000		9999	7810	0	0	0
2019/10/19 13:11:00	BASE	17.81	101	23.92	94	-0.9	64	-6.9	109	0	970.0	NA	0.0000		9999	7510	0	0	0
2019/10/19 13:12:00	BASE	15.83	101	23.92	94	-0.9	64	-6.8	107	0	970.2	NA	0.0000		9999	7320	0	0	0
2019/10/19 13:13:00	BASE	15.21	100	23.92	94	-0.9	65	-6.8	106	0	970.1	NA	0.0000		9999	6820	0	0	0
2019/10/19 13:14:00	BASE	17.35	101	23.92	94	-0.9	65	-6.7	104	0	969.9	NA	0.0000		9999	6890	0	0	0
2019/10/19 13:15:00	BASE	18.44	102	23.92	94	-0.9	65	-6.6	101	0	969.9	NA	0.0000		9999	5610	0	0	0
2019/10/19 13:16:00	BASE	18.28	99	23.92	94	-0.9	65	-6.5	99	0	969.9	NA	0.0000		9999	5910	0	0	0
2019/10/19 13:17:00	BASE	18.52	99	23.92	94	-0.9	66	-6.5	99	0	969.8	NA	0.0000		9999	5510	0	0	0
2019/10/19 13:18:00	BASE	19.45	102	23.41	99	-0.9	66	-6.4	100	0	969.7	NA	0.0000		9999	4950	0	0	0
2019/10/19 13:19:00	BASE	20.55	98	24.90	98	-1.0	67	-6.3	99	0	969.7	NA	0.0000		9999	5050	0	0	0
2019/10/19 13:20:00	BASE	19.73	92	24.90	98	-1.0	68	-6.2	99	0	969.8	NA	0.0000		9999	6330	22180	0	0
2019/10/19 13:21:00	BASE	17.36	87	24.90	98	-1.0	68	-6.1	99	0	969.8	NA	0.0000		9999	6960	0	0	0
2019/10/19 13:22:00	BASE	15.25	86	24.90	98	-1.0	69	-6.0	101	0	969.8	NA	0.0000		9999	6400	0	0	0
2019/10/19 13:23:00	BASE	17.36	88	26.19	89	-1.1	70	-5.9	102	0	969.6	NA	0.0000		9999	6820	0	0	0
2019/10/19 13:24:00	BASE	22.46	85	27.93	96	-1.2	70	-5.9	103	0	969.5	NA	0.0000		9999	24050	0	0	0
2019/10/19 13:25:00	BASE	24.10	84	27.93	96	-1.2	71	-5.8	104	0	969.5	NA	0.0000		7000	20310	0	0	0
2019/10/19 13:26:00	BASE	23.18	85	27.93	96	-1.3	72	-5.7	105	0	969.4	NA	0.0000		8000	6790	0	0	0
2019/10/19 13:27:00	BASE	24.39	86	29.79	78	-1.4	73	-5.6	105	0	969.1	NA	0.0000	HZ	6000	6630	0	0	0
2019/10/19 13:28:00	BASE	24.84	87	29.79	78	-1.5	74	-5.5	104	0	969.4	NA	0.0000	HZ	7000	7090	0	0	0
2019/10/19 13:29:00	BASE	23.00	87	29.79	78	-1.5	75	-5.4	105	0	969.4	NA	0.0000	HZ	8000	6070	0	0	0
2019/10/19 13:30:00	BASE	23.12	88	29.79	78	-1.5	76	-5.3	107	0	969.3	NA	0.0000	HZ	8000	5840	0	0	0
2019/10/19 13:31:00	BASE	23.72	86	29.79	78	-1.5	76	-5.2	108	0	969.3	NA	0.0000	HZ	9999	6560	0	0	0
2019/10/19 13:32:00	BASE	21.95	88	29.79	78	-1.5	77	-5.1	109	0	969.3	NA	0.0000	HZ	9999	6070	0	0	0
2019/10/19 13:33:00	BASE	20.03	98	29.79	78	-1.5	77	-5.0	110	0	969.3	NA	0.0000	HZ	9999	6530	0	0	0
2019/10/19 13:34:00	BASE	20.11	105	29.79	78	-1.5	77	-5.0	109	0	969.1	NA	0.0000	HZ	9999	6300	0	0	0
2019/10/19 13:35:00	BASE	19.90	109	29.79	78	-1.5	78	-4.9	109	0	969.1	NA	0.0000	HZ	9999	6400	0	0	0
2019/10/19 13:36:00	BASE	21.47	115	29.79	78	-1.4	78	-4.7	109	0	969.0	NA	0.0000	HZ	9999	6560	0	0	0
2019/10/19 13:37:00	BASE	22.18	118	27.83	92	-1.3	78	-4.6	106	0	969.0	NA	0.0000	HZ	9999	7090	0	0	0
2019/10/19 13:38:00	BASE	19.38	113	27.83	92	-1.3	78	-4.5	104	0	969.0	NA	0.0000		9999	7120	0	0	0
2019/10/19 13:39:00	BASE	19.87	106	27.83	92	-1.3	78	-4.5	104	0	969.0	NA	0.0000		9999	7220	0	0	0
2019/10/19 13:40:00	BASE	20.82	104	27.11	117	-1.3	78	-4.6	104	0	969.0	NA	0.0000		9999	6730	0	0	0
2019/10/19 13:41:00	BASE	19.98	106	27.11	117	-1.4	78	-4.7	107	0	968.9	NA	0.0000		9999	7350	0	0	0
2019/10/19 13:42:00	BASE	20.73	99	27.11	117	-1.4	78	-4.7	109	0	968.8	NA	0.0000		9999	6820	0	0	0
2019/10/19 13:43:00	BASE	21.13	93	27.11	117	-1.5	79	-4.7	112	0	968.7	NA	0.0000		9999	7090	0	0	0
2019/10/19 13:44:00	BASE	21.62	97	27.11	117	-1.6	79	-4.8	113	0	968.7	NA	0.0000		9999	6530	0	0	0
2019/10/19 13:45:00	BASE	20.83	107	27.11	117	-1.6	79	-4.7	113	0	968.7	NA	0.0000		9999	7150	0	0	0
2019/10/19 13:46:00	BASE	20.58	111	25.46	96	-1.6	79	-4.7	113	0	968.7	NA	0.0000		9999	7450	0	0	0
2019/10/19 13:47:00	BASE	20.75	113	25.46	96	-1.6	80	-4.7	112	0	968.7	NA	0.0000		9999	6960	0	0	0
2019/10/19 13:48:00	BASE	19.79	119	25.46	96	-1.6	80	-4.7	112	0	968.5	NA	0.0000		9999	6920	0	0	0
2019/10/19 13:49:00	BASE	19.87	115	25.46	96	-1.6	80	-4.6	112	0	968.5	NA	0.0000		9999	6760	0	0	0
2019/10/19 13:50:00	BASE	19.01	112	25.46	96	-1.5	80	-4.5	112	0	968.5	NA	0.0000		9999	7090	0	0	0
2019/10/19 13:51:00	BASE	19.22	109	25.46	96	-1.5	81	-4.4	110	0	968.4	NA	0.0000		9999	7050	0	0	0
2019/10/19 13:52:00	BASE	21.23	102	25.46	96	-1.5	81	-4.4	110	0	968.3	NA	0.0000		9999	7020	0	0	0
2019/10/19 13:53:00	BASE	23.06	98	25.88	93	-1.5	81	-4.4	111	0	968.2	NA	0.0000		9000	7050	0	0	0
2019/10/19 13:54:00	BASE	23.01	98	25.88	93	-1.5	81	-4.4	111	0	968.3	NA	0.0000		9999	6820	0	0	0
2019/10/19 13:55:00	BASE	23.09	106	26.29	99	-1.5	81	-4.4	110	0	968.3	NA	0.0000		9000	6730	0	0	0
2019/10/19 13:56:00	BASE	21.99	115	26.29	99	-1.6	81	-4.4	111	0	968.3	NA	0.0000		9999	6760	0	0	0
2019/10/19 13:57:00	BASE	19.61	113	26.29	99	-1.6	81	-4.4	111	0	968.4	NA	0.0000		9999	8430	0	0	0
2019/10/19 13:58:00	BASE	19.45	113	26.29	99	-1.6	81	-4.4	111	0	968.2	NA	0.0000		9999	8140	0	0	0
2019/10/19 13:59:00	BASE	21.44	118	26.29	99	-1.6	81	-4.4	112	0	968.1	NA	0.0000		9999	6430	0	0	0
2019/10/19 14:00:00	BASE	22.63	116	26.29	99	-1.6	82	-4.4	112	0	968.1	NA	0.0000	HZ	9000	6590	0	0	0
2019/10/19 14:01:00	BASE	20.72	116	26.29	99	-1.6	82	-4.3	113	0	968.1	NA	0.0000	HZ	9000	6730	0	0	0
2019/10/19 14:02:00	BASE	21.39	118	26.29	99	-1.6	82	-4.3	113	0	968.0	NA	0.0000	HZ	9999	8170	0	0	0
2019/10/19 14:03:00	BASE	22.39	121	26.29	99	-1.6	82	-4.3	111	0	968.0	NA	0.0000		9999	6300	6890	0	0
2019/10/19 14:04:00	BASE	21.02	121	26.29	99	-1.6	82	-4.3	111	0	967.9	NA	0.0000		9999	6140	0	0	0
2019/10/19 14:05:00	BASE	21.48	122	25.41	121	-1.7	82	-4.3	111	0	967.9	NA	0.0000		9999	6500	0	0	0
2019/10/19 14:06:00	BASE	20.62	124	25.41	121	-1.7	82	-4.4	112	0	968.0	NA	0.0000		9999	6530	0	0	0
2019/10/19 14:07:00	BASE	19.52	116	25.41	121	-1.8	82	-4.4	114	0	967.9	NA	0.0000		9999	7020	0	0	0
2019/10/19 14:08:00	BASE	20.81	112	25.41	121	-1.8	82	-4.5	117	0	967.6	NA	0.0000	HZ	7000	6100	0	0	0
2019/10/19 14:09:00	BASE	21.75	116	25.31	118	-1.8	82	-4.5	119	0	967.4	NA	0.0000	HZ	9000	6400	0	0	0
2019/10/19 14:10:00	BASE	20.97	119	25.31	118	-1.8	82	-4.4	122	0	967.6	NA	0.0000	HZ	9999	6500	0	0	0
2019/10/19 14:11:00	BASE	20.44	123	25.31	118	-1.8	83	-4.4	125	0	967.5	NA	0.0000	HZ	9999	6500	0	0	0
2019/10/19 14:12:00	BASE	19.53	121	24.90	111	-1.9	83	-4.4	125	0	967.5	NA	0.0000	HZ	9999	7610	0	0	0
2019/10/19 14:13:00	BASE	19.55	113	24.90	111	-1.8	83	-4.3	126	0	967.4	NA	0.0000	HZ	9000	6790	0	0	0
2019/10/19 14:14:00	BASE	21.58	102	24.90	111	-1.8	83	-4.3	129	0	967.4	NA	0.0000	HZ	9000	6400	0	0	0
2019/10/19 14:15:00	BASE	21.64	96	24.90	111	-1.8	83	-4.3	130	0	967.4	NA	0.0000	HZ	8000	6890	0	0	0
2019/10/19 14:16:00	BASE	21.30	98	25.57	95	-1.8	83	-4.3	131	0	967.3	NA	0.0000	HZ	9000	7870	0	0	0
2019/10/19 14:17:00	BASE	21.17	98	25.57	95	-1.7	83	-4.2	132	0	967.3	NA	0.0000	HZ	8000	7610	0	0	0
2019/10/19 14:18:00	BASE	20.88	97	25.57	95	-1.7	83	-4.1	134	0	967.2	NA	0.0000	HZ	9999	7910	0	0	0
2019/10/19 14:19:00	BASE	20.11	97	25.57	95	-1.6	83	-4.1	136	0	967.2	NA	0.0000	HZ	9999	7640	0	0	0
2019/10/19 14:20:00	BASE	20.56	99	25.67	92	-1.6	83	-4.0	138	0	967.1	NA	0.0000	HZ	9999	8140	0	0	0
2019/10/19 14:21:00	BASE	22.94	98	26.85	92	-1.5	83	-4.0	141	0	966.9	NA	0.0000	HZ	9999	7680	0	0	0
2019/10/19 14:22:00	BASE	22.95	98	26.85	92	-1.6	83	-4.0	143	0	967.0	NA	0.0000	HZ	9000	8400	0	0	0
2019/10/19 14:23:00	BASE	21.78	97	26.85	92	-1.6	83	-4.0	143	0	966.9	NA	0.0000	HZ	9999	8790	0	0	0
2019/10/19 14:24:00	BASE	20.79	96	26.85	92	-1.6	84	-4.0	142	0	966.9	NA	0.0000	HZ	9999	8370	0	0	0
2019/10/19 14:25:00	BASE	21.90	98	26.85	92	-1.6	84	-4.0	141	0	966.7	NA	0.0000	HZ	9999	8600	0	0	0
2019/10/19 14:26:00	BASE	24.27	95	26.85	92	-1.5	84	-3.9	139	0	966.7	NA	0.0000	HZ	9000	17880	0	0	0
2019/10/19 14:27:00	BASE	24.67	93	28.14	94	-1.5	84	-3.8	138	0	966.6	NA	0.0000	HZ	9000	9220	0	0	0
2019/10/19 14:28:00	BASE	24.39	92	28.14	94	-1.5	84	-3.8	135	0	966.6	NA	0.0000	HZ	9000	8830	0	0	0
2019/10/19 14:29:00	BASE	23.74	94	28.14	94	-1.5	84	-3.9	132	0	966.5	NA	0.0000	HZ	9000	8920	0	0	0
2019/10/19 14:30:00	BASE	21.96	97	28.14	94	-1.5	84	-3.9	128	0	966.5	NA	0.0000	HZ	9999	9220	0	0	0
2019/10/19 14:31:00	BASE	22.10	100	28.14	94	-1.6	84	-3.9	125	0	966.3	NA	0.0000	HZ	9999	8300	0	0	0
2019/10/19 14:32:00	BASE	22.79	103	28.14	94	-1.6	84	-4.0	121	0	966.3	NA	0.0000	HZ	9999	8200	0	0	0
2019/10/19 14:33:00	BASE	21.53	100	28.14	94	-1.6	84	-4.0	118	0	966.4	NA	0.0000	HZ	9999	7870	0	0	0
2019/10/19 14:34:00	BASE	21.66	96	28.14	94	-1.6	84	-4.0	115	0	966.3	NA	0.0000	HZ	9999	7840	0	0	0
2019/10/19 14:35:00	BASE	22.84	99	28.14	94	-1.6	84	-4.0	112	0	966.1	NA	0.0000	HZ	9000	7740	0	0	0
2019/10/19 14:36:00	BASE	25.07	101	30.25	101	-1.6	84	-3.9	111	0	966.1	NA	0.0000	HZ	9000	8100	0	0	0
2019/10/19 14:37:00	BASE	26.58	99	30.25	101	-1.6	84	-3.9	111	0	966.2	NA	0.0000	HZ	7000	7970	0	0	0
2019/10/19 14:38:00	BASE	26.53	99	33.08	102	-1.6	84	-3.9	113	0	966.0	NA	0.0000	HZ	6000	20340	23160	0	0
2019/10/19 14:39:00	BASE	25.94	99	33.08	102	-1.6	84	-4.0	114	0	966.1	NA	0.0000	HZ	6000	23070	0	0	0
2019/10/19 14:40:00	BASE	26.39	94	33.08	102	-1.7	84	-4.1	115	0	965.9	NA	0.0000	HZ	6000	9150	0	0	0
2019/10/19 14:41:00	BASE	26.49	93	33.08	102	-1.8	84	-4.1	117	0	965.9	NA	0.0000	HZ	6000	8370	0	0	0
2019/10/19 14:42:00	BASE	24.01	97	33.08	102	-1.8	84	-4.1	119	0	965.9	NA	0.0000	HZ	7000	8730	0	0	0
2019/10/19 14:43:00	BASE	24.11	94	33.08	102	-1.8	85	-4.1	121	0	965.9	NA	0.0000	HZ	8000	9510	0	0	0
2019/10/19 14:44:00	BASE	25.37	89	33.08	102	-1.8	85	-4.0	122	0	965.9	NA	0.0000	BR	6000	9150	0	0	0
2019/10/19 14:45:00	BASE	25.66	92	33.08	102	-1.8	85	-4.0	123	0	965.8	NA	0.0000	BR	6000	9610	0	0	0
2019/10/19 14:46:00	BASE	28.44	95	33.95	94	-1.8	85	-3.9	121	0	965.6	NA	0.0000	BR	6000	9120	0	0	0
2019/10/19 14:47:00	BASE	30.98	93	33.95	94	-1.8	85	-3.9	118	0	965.6	NA	0.0000	BR	4800	8990	0	0	0
2019/10/19 14:48:00	BASE	29.78	95	33.95	94	-1.8	86	-3.9	115	0	965.6	NA	0.0000	BR	5000	8730	0	0	0
2019/10/19 14:49:00	BASE	26.84	97	33.95	94	-1.8	86	-3.8	114	0	965.6	NA	0.0000	BR	6000	8960	0	0	0
2019/10/19 14:50:00	BASE	25.62	96	33.95	94	-1.8	86	-3.8	113	0	965.5	NA	0.0000	BR	7000	8370	0	0	0
2019/10/19 14:51:00	BASE	24.56	98	33.95	94	-1.8	86	-3.8	114	0	965.5	NA	0.0000	BR	7000	7940	0	0	0
2019/10/19 14:52:00	BASE	24.21	100	33.95	94	-1.8	86	-3.8	115	0	965.4	NA	0.0000	BR	7000	7740	0	0	0
2019/10/19 14:53:00	BASE	24.51	100	33.95	94	-1.8	86	-3.8	118	0	965.4	NA	0.0000	BR	7000	8100	0	0	0
2019/10/19 14:54:00	BASE	24.55	100	33.95	94	-1.8	86	-3.8	120	0	965.3	NA	0.0000	BR	8000	8300	0	0	0
2019/10/19 14:55:00	BASE	25.27	97	33.95	94	-1.8	87	-3.8	122	0	965.3	NA	0.0000	BR	8000	7970	0	0	0
2019/10/19 14:56:00	BASE	24.92	94	32.87	94	-1.8	87	-3.7	123	0	965.4	NA	0.0000	BR	8000	8010	0	0	0
2019/10/19 14:57:00	BASE	25.84	96	30.46	89	-1.8	87	-3.7	123	0	965.4	NA	0.0000	BR	8000	8790	0	0	0
2019/10/19 14:58:00	BASE	23.99	100	30.20	88	-1.8	87	-3.6	123	0	965.4	NA	0.0000	BR	7000	9120	0	0	0
2019/10/19 14:59:00	BASE	21.35	100	30.20	88	-1.8	87	-3.6	122	0	965.3	NA	0.0000	BR	7000	8830	0	0	0
2019/10/19 15:00:00	BASE	22.09	100	30.20	88	-1.7	87	-3.6	121	0	965.3	NA	0.0000	BR	8000	8270	0	0	0
2019/10/19 15:01:00	BASE	22.75	102	30.20	88	-1.6	87	-3.5	120	0	965.3	NA	0.0000	BR	9000	8140	0	0	0
2019/10/19 15:02:00	BASE	24.86	99	30.76	90	-1.6	87	-3.5	119	0	965.3	NA	0.0000	BR	8000	7870	0	0	0
2019/10/19 15:03:00	BASE	25.67	99	30.76	90	-1.6	87	-3.5	118	0	965.2	NA	0.0000	BR	7000	7580	0	0	0
2019/10/19 15:04:00	BASE	24.53	106	30.76	90	-1.6	86	-3.5	116	0	965.1	NA	0.0000	BR	6000	7510	0	0	0
2019/10/19 15:05:00	BASE	23.38	109	30.76	90	-1.6	86	-3.6	114	0	965.1	NA	0.0000	BR	8000	7420	0	0	0
2019/10/19 15:06:00	BASE	21.31	108	30.76	90	-1.7	86	-3.7	111	0	965.1	NA	0.0000	BR	8000	7220	0	0	0
2019/10/19 15:07:00	BASE	19.69	105	30.76	90	-1.7	86	-3.7	105	0	965.2	NA	0.0000	BR	9000	7220	0	0	0
2019/10/19 15:08:00	BASE	19.71	98	30.76	90	-1.7	86	-3.6	100	0	965.2	NA	0.0000	BR	8000	6960	0	0	0
2019/10/19 15:09:00	BASE	19.52	96	30.76	90	-1.6	87	-3.6	96	0	965.2	NA	0.0000	BR	8000	6860	0	0	0
2019/10/19 15:10:00	BASE	19.67	99	30.76	90	-1.5	87	-3.5	95	0	965.1	NA	0.0000	BR	8000	6660	0	0	0
2019/10/19 15:11:00	BASE	20.67	105	30.76	90	-1.5	87	-3.4	95	0	965.1	NA	0.0000	BR	9000	5740	0	0	0
2019/10/19 15:12:00	BASE	20.61	107	28.24	84	-1.4	86	-3.4	96	0	965.1	NA	0.0000	BR	9000	5580	0	0	0
2019/10/19 15:13:00	BASE	22.14	99	28.55	88	-1.4	86	-3.4	96	0	965.0	NA	0.0000	BR	9000	5180	0	0	0
2019/10/19 15:14:00	BASE	25.57	97	29.84	109	-1.3	85	-3.5	96	0	964.9	NA	0.0000	BR	8000	5180	0	0	0
2019/10/19 15:15:00	BASE	25.73	98	29.84	109	-1.3	85	-3.5	101	0	965.0	NA	0.0000	HZ	7000	4630	0	0	0
2019/10/19 15:16:00	BASE	25.25	99	29.84	109	-1.3	84	-3.6	106	0	964.9	NA	0.0000	HZ	6000	4760	0	0	0
2019/10/19 15:17:00	BASE	26.57	103	30.20	104	-1.4	84	-3.7	108	0	964.8	NA	0.0000	HZ	7000	5180	0	0	0
2019/10/19 15:18:00	BASE	25.02	102	30.20	104	-1.5	84	-3.8	107	0	964.8	NA	0.0000	HZ	7000	5250	0	0	0
2019/10/19 15:19:00	BASE	22.86	102	30.20	104	-1.6	84	-3.9	106	0	964.8	NA	0.0000	HZ	8000	5250	0	0	0
2019/10/19 15:20:00	BASE	21.45	101	30.20	104	-1.6	84	-3.9	106	0	964.9	NA	0.0000	HZ	8000	5350	0	0	0
2019/10/19 15:21:00	BASE	21.00	101	30.20	104	-1.6	85	-3.9	105	0	964.8	NA	0.0000	HZ	8000	5380	0	0	0
2019/10/19 15:22:00	BASE	22.14	102	30.20	104	-1.6	85	-3.8	105	0	964.8	NA	0.0000	BR	8000	5020	0	0	0
2019/10/19 15:23:00	BASE	23.10	105	30.20	104	-1.6	86	-3.7	106	0	964.8	NA	0.0000	BR	8000	4990	0	0	0
2019/10/19 15:24:00	BASE	22.72	108	30.20	104	-1.5	86	-3.6	108	0	964.8	NA	0.0000	BR	8000	4820	0	0	0
2019/10/19 15:25:00	BASE	21.09	109	30.20	104	-1.5	86	-3.6	109	0	964.8	NA	0.0000	BR	8000	4760	0	0	0
2019/10/19 15:26:00	BASE	21.61	109	30.20	104	-1.4	85	-3.6	108	0	964.6	NA	0.0000	BR	7000	4630	0	0	0
2019/10/19 15:27:00	BASE	24.36	110	27.57	112	-1.4	85	-3.6	104	0	964.6	NA	0.0000	BR	7000	4990	0	0	0
2019/10/19 15:28:00	BASE	24.33	110	27.57	112	-1.4	85	-3.6	102	0	964.7	NA	0.0000	BR	7000	4890	0	0	0
2019/10/19 15:29:00	BASE	22.73	108	27.57	112	-1.5	85	-3.7	104	0	964.6	NA	0.0000	BR	7000	4400	0	0	0
2019/10/19 15:30:00	BASE	22.33	105	27.57	112	-1.5	85	-3.7	105	0	964.5	NA	0.0000	BR	7000	4330	0	0	0
2019/10/19 15:31:00	BASE	21.51	108	27.57	112	-1.5	85	-3.7	105	0	964.6	NA	0.0000	BR	7000	4400	0	0	0
2019/10/19 15:32:00	BASE	21.68	114	27.57	112	-1.5	85	-3.7	103	0	964.6	NA	0.0000	BR	7000	5180	0	0	0
2019/10/19 15:33:00	BASE	23.98	113	29.17	107	-1.5	85	-3.7	102	0	964.4	NA	0.0000	BR	7000	4530	0	0	0
2019/10/19 15:34:00	BASE	24.85	108	29.17	107	-1.4	85	-3.7	99	0	964.5	NA	0.0000	HZ	7000	5610	0	0	0
2019/10/19 15:35:00	BASE	24.54	106	29.17	107	-1.5	85	-3.7	96	0	964.5	NA	0.0000	UP	7000	0	0	0	6140
2019/10/19 15:36:00	BASE	25.25	106	29.17	107	-1.5	85	-3.8	95	0	964.4	NA	0.0000	UP	8000	4790	0	0	0
2019/10/19 15:37:00	BASE	26.77	108	34.52	108	-1.6	85	-3.8	95	0	964.2	NA	0.0000	UP	7000	4430	0	0	0
2019/10/19 15:38:00	BASE	27.88	107	34.52	108	-1.6	85	-3.9	97	0	964.2	NA	0.0000	UP	6000	4660	0	0	0
2019/10/19 15:39:00	BASE	26.71	108	34.52	108	-1.7	85	-3.9	99	0	964.2	NA	0.0000	UP BR	6000	4100	0	0	0
2019/10/19 15:40:00	BASE	24.88	112	34.52	108	-1.7	85	-3.9	101	0	964.2	NA	0.0000	UP BR	6000	21920	0	0	0
2019/10/19 15:41:00	BASE	22.79	116	34.52	108	-1.8	85	-3.9	102	0	964.2	NA	0.0000	UP BR	6000	4490	0	0	0
2019/10/19 15:42:00	BASE	21.63	117	34.52	108	-1.8	85	-3.9	103	0	964.2	NA	0.0000	UP BR	6000	4890	0	0	0
2019/10/19 15:43:00	BASE	21.91	118	34.52	108	-1.8	86	-3.9	105	0	964.1	NA	0.0000	UP BR	6000	4990	0	0	0
2019/10/19 15:44:00	BASE	22.70	115	34.52	108	-1.8	86	-3.9	107	0	964.1	NA	0.0000	UP BR	6000	5090	0	0	0
2019/10/19 15:45:00	BASE	22.98	116	34.52	108	-1.8	86	-3.8	104	0	964.0	NA	0.0000	UP BR	7000	6000	0	0	0
2019/10/19 15:46:00	BASE	23.70	120	34.52	108	-1.8	86	-3.8	101	0	963.8	NA	0.0000	UP BR	8000	6500	0	0	0
2019/10/19 15:47:00	BASE	25.10	117	30.87	104	-1.8	86	-3.8	98	0	963.8	NA	0.0000	UP BR	8000	5350	0	0	0
2019/10/19 15:48:00	BASE	24.62	117	28.96	117	-1.8	86	-3.7	97	0	963.9	NA	0.0000	UP BR	8000	3350	0	0	0
2019/10/19 15:49:00	BASE	24.49	116	27.83	121	-1.8	87	-3.7	95	0	963.9	NA	0.0000	UP BR	8000	5020	0	0	0
2019/10/19 15:50:00	BASE	23.45	111	27.83	121	-1.7	87	-3.6	94	0	964.1	NA	0.0000	UP BR	8000	4990	0	0	0
2019/10/19 15:51:00	BASE	22.65	110	27.83	121	-1.6	87	-3.5	94	0	963.9	NA	0.0000	UP BR	8000	5320	0	0	0
2019/10/19 15:52:00	BASE	23.77	114	27.83	121	-1.6	87	-3.5	93	0	963.8	NA	0.0000	UP BR	8000	5540	0	0	0
2019/10/19 15:53:00	BASE	24.70	112	27.83	121	-1.5	87	-3.5	92	0	963.8	NA	0.0000	UP BR	8000	3580	0	0	0
2019/10/19 15:54:00	BASE	25.86	111	27.83	121	-1.5	86	-3.5	95	0	963.7	NA	0.0000	UP BR	7000	4170	0	0	0
2019/10/19 15:55:00	BASE	25.47	114	27.83	121	-1.5	86	-3.5	101	0	963.6	NA	0.0000	BR	7000	3150	0	0	0
2019/10/19 15:56:00	BASE	24.19	114	27.57	113	-1.6	86	-3.6	106	0	963.6	NA	0.0000	BR	8000	5740	0	0	0
2019/10/19 15:57:00	BASE	23.49	113	27.57	113	-1.6	86	-3.6	112	0	963.6	NA	0.0000	BR	8000	6140	0	0	0
2019/10/19 15:58:00	BASE	23.56	116	27.57	113	-1.6	86	-3.6	120	0	963.4	NA	0.0000	BR	8000	6690	0	0	0
2019/10/19 15:59:00	BASE	23.56	118	27.57	113	-1.6	86	-3.6	129	0	963.3	NA	0.0000	BR	7000	6760	0	0	0
2019/10/19 16:00:00	BASE	24.68	115	28.04	117	-1.6	87	-3.6	140	0	963.2	NA	0.0000	BR	7000	5050	0	0	0
2019/10/19 16:01:00	BASE	26.50	116	30.25	115	-1.6	87	-3.5	152	0	963.2	NA	0.0000	BR	7000	5250	0	0	0
2019/10/19 16:02:00	BASE	24.57	118	30.25	115	-1.6	87	-3.4	163	0	963.4	NA	0.0000	BR	7000	7320	0	0	0
2019/10/19 16:03:00	BASE	23.63	121	30.25	115	-1.5	87	-3.4	172	0	963.1	NA	0.0000	BR	7000	7350	22440	0	0
2019/10/19 16:04:00	BASE	24.03	123	30.25	115	-1.5	87	-3.4	177	0	963.2	NA	0.0000	BR	7000	7420	0	0	0
2019/10/19 16:05:00	BASE	24.40	122	30.25	115	-1.6	87	-3.4	181	0	963.1	NA	0.0000	BR	7000	6370	0	0	0
2019/10/19 16:06:00	BASE	27.67	122	32.41	120	-1.6	87	-3.4	188	0	962.7	NA	0.0000	BR	7000	6370	0	0	0
2019/10/19 16:07:00	BASE	27.69	122	32.41	120	-1.5	88	-3.3	194	0	962.8	NA	0.0000	UP BR	7000	5090	6270	0	0
2019/10/19 16:08:00	BASE	25.94	121	32.41	120	-1.5	88	-3.3	200	0	962.9	NA	0.0000	UP BR	7000	5120	6230	0	0
2019/10/19 16:09:00	BASE	26.41	123	32.41	120	-1.5	88	-3.2	207	0	962.9	NA	0.0000	UP BR	6000	5090	6270	0	0
2019/10/19 16:10:00	BASE	24.95	123	32.41	120	-1.5	88	-3.2	213	0	963.0	NA	0.0000	UP BR	5000	6170	0	0	0
2019/10/19 16:11:00	BASE	23.23	125	32.41	120	-1.4	88	-3.2	220	0	963.1	NA	0.0000	UP BR	6000	6200	0	0	0
2019/10/19 16:12:00	BASE	22.82	127	32.41	120	-1.4	88	-3.2	226	0	963.0	NA	0.0000	UP BR	7000	6170	0	0	0
2019/10/19 16:13:00	BASE	22.21	128	32.41	120	-1.4	87	-3.2	228	0	963.0	NA	0.0000	UP BR	7000	6460	0	0	0
2019/10/19 16:14:00	BASE	22.19	129	32.41	120	-1.4	87	-3.3	225	0	962.9	NA	0.0000	UP BR	7000	6690	0	0	0
2019/10/19 16:15:00	BASE	22.21	132	32.41	120	-1.5	87	-3.3	222	0	962.7	NA	0.0000	UP BR	7000	5910	0	0	0
2019/10/19 16:16:00	BASE	21.77	134	30.04	118	-1.5	87	-3.3	218	0	962.7	NA	0.0000	UP BR	7000	6170	0	0	0
2019/10/19 16:17:00	BASE	21.43	133	30.04	118	-1.5	88	-3.2	215	0	962.6	NA	0.0000	UP BR	7000	6500	0	0	0
2019/10/19 16:18:00	BASE	21.98	134	30.04	118	-1.4	88	-3.2	219	0	962.2	NA	0.0000	UP BR	7000	6990	0	0	0
2019/10/19 16:19:00	BASE	23.66	133	27.47	120	-1.4	88	-3.1	228	0	962.1	NA	0.0000	UP BR	7000	7020	0	0	0
2019/10/19 16:20:00	BASE	24.28	130	27.47	120	-1.4	88	-3.0	235	0	962.3	NA	0.0000	UP BR	7000	7050	22840	0	0
2019/10/19 16:21:00	BASE	24.59	131	27.68	132	-1.3	89	-3.0	238	0	962.1	NA	0.0000	BR	7000	5940	0	0	0
2019/10/19 16:22:00	BASE	24.80	134	27.68	132	-1.3	89	-2.9	248	0	962.0	NA	0.0000	BR	7000	5870	0	0	0
2019/10/19 16:23:00	BASE	23.44	142	27.68	132	-1.3	89	-2.9	256	0	962.1	NA	0.0000	BR	7000	5910	0	0	0
2019/10/19 16:24:00	BASE	20.95	140	27.68	132	-1.2	89	-2.9	263	0	962.3	NA	0.0000	BR	6000	6140	0	0	0
2019/10/19 16:25:00	BASE	21.70	132	27.68	132	-1.2	89	-2.8	264	0	962.2	NA	0.0000	BR	7000	6460	0	0	0
2019/10/19 16:26:00	BASE	22.66	133	27.68	132	-1.1	88	-2.8	266	0	962.2	NA	0.0000	BR	9000	6630	0	0	0
2019/10/19 16:27:00	BASE	19.02	139	27.68	132	-1.1	88	-2.8	265	0	962.3	NA	0.0000	BR	8000	6560	0	0	0
2019/10/19 16:28:00	BASE	15.89	145	27.68	132	-1.1	88	-2.8	262	0	962.3	NA	0.0000	BR	8000	6590	0	0	0
2019/10/19 16:29:00	BASE	16.13	150	27.68	132	-1.1	88	-2.8	259	0	962.2	NA	0.0000	BR	7000	5740	0	0	0
2019/10/19 16:30:00	BASE	18.02	146	27.68	132	-1.1	88	-2.8	258	0	962.0	NA	0.0000	BR	7000	5680	0	0	0
2019/10/19 16:31:00	BASE	22.91	142	30.30	143	-1.1	88	-2.8	262	0	961.5	NA	0.0000	BR	7000	5510	0	0	0
2019/10/19 16:32:00	BASE	24.56	140	30.30	143	-1.1	89	-2.7	268	0	961.9	NA	0.0000	BR	7000	5380	6000	0	0
2019/10/19 16:33:00	BASE	22.01	138	30.30	143	-1.1	89	-2.7	272	0	961.9	NA	0.0000	BR	7000	5220	0	0	0
2019/10/19 16:34:00	BASE	21.36	141	30.30	143	-1.0	89	-2.7	272	0	961.9	NA	0.0000	BR	7000	5120	0	0	0
2019/10/19 16:35:00	BASE	19.30	142	30.30	143	-1.0	89	-2.7	273	0	961.9	NA	0.0000	BR	6000	5090	0	0	0
2019/10/19 16:36:00	BASE	18.68	142	30.30	143	-1.0	88	-2.7	272	0	961.7	NA	0.0000	BR	6000	5770	6230	0	0
2019/10/19 16:37:00	BASE	20.03	138	30.30	143	-0.9	88	-2.6	272	0	961.8	NA	0.0000	BR	6000	6200	0	0	0
2019/10/19 16:38:00	BASE	18.48	132	30.30	143	-0.9	88	-2.5	271	0	962.0	NA	0.0000	BR	6000	6200	0	0	0
2019/10/19 16:39:00	BASE	15.70	127	30.30	143	-0.7	88	-2.4	272	0	962.1	NA	0.0000	BR	6000	6170	0	0	0
2019/10/19 16:40:00	BASE	13.74	123	30.30	143	-0.6	88	-2.3	276	0	962.1	NA	0.0000	BR	6000	6070	0	0	0
2019/10/19 16:41:00	BASE	11.48	125	24.74	148	-0.4	88	-2.1	278	0	962.0	NA	0.0000	BR	5000	6140	0	0	0
2019/10/19 16:42:00	BASE	15.23	113	25.52	84	-0.2	88	-1.9	278	0	961.9	NA	0.0000	BR	6000	6040	0	0	0
2019/10/19 16:43:00	BASE	18.74	104	25.52	84	0.1	88	-1.7	278	0	961.9	NA	0.0000	BR	6000	5910	0	0	0
2019/10/19 16:44:00	BASE	17.58	99	25.52	84	0.4	88	-1.4	278	0	961.9	NA	0.0000	BR	6000	6270	0	0	0
2019/10/19 16:45:00	BASE	19.82	99	26.55	103	0.8	88	-1.0	277	0	961.9	NA	0.0000	BR	6000	6400	0	0	0
2019/10/19 16:46:00	BASE	18.78	113	26.55	103	1.1	87	-0.8	279	0	962.1	NA	0.0000	BR	6000	6200	0	0	0
2019/10/19 16:47:00	BASE	14.19	122	26.55	103	1.1	86	-1.0	282	0	962.2	NA	0.0000	BR	5000	6300	0	0	0
2019/10/19 16:48:00	BASE	13.01	107	26.55	103	1.1	85	-1.2	291	0	962.2	NA	0.0000	HZ	6000	6070	0	0	0
2019/10/19 16:49:00	BASE	13.02	102	26.55	103	1.1	84	-1.3	307	0	962.0	NA	0.0000	HZ	5000	6100	0	0	0
2019/10/19 16:50:00	BASE	14.97	91	27.01	64	1.1	84	-1.4	324	0	961.9	NA	0.0000	HZ	6000	6000	0	0	0
2019/10/19 16:51:00	BASE	20.36	57	27.16	45	1.3	83	-1.3	347	0	961.3	NA	0.0000	HZ	9000	6630	0	0	0
2019/10/19 16:52:00	BASE	25.14	45	32.87	52	1.8	83	-0.8	392	0	961.1	NA	0.0000	HZ SQ	8000	6170	0	0	0
2019/10/19 16:53:00	BASE	27.65	44	33.03	36	2.2	82	-0.5	618	0	960.9	NA	0.0000	HZ SQ	8000	7090	0	0	0
2019/10/19 16:54:00	BASE	27.03	43	33.03	36	2.6	80	-0.5	680	0	960.7	NA	0.0000	HZ	8000	7190	0	0	0
2019/10/19 16:55:00	BASE	27.73	42	35.81	41	3.0	79	-0.4	406	0	960.4	NA	0.0000	HZ	8000	7320	23300	0	0
2019/10/19 16:56:00	BASE	32.47	42	39.15	42	3.1	77	-0.5	362	0	960.0	NA	0.0000	HZ	8000	7550	0	0	0
2019/10/19 16:57:00	BASE	34.97	43	39.20	42	3.2	75	-0.7	317	0	959.8	NA	0.0000	HZ	8000	7550	0	0	0
2019/10/19 16:58:00	BASE	36.34	44	42.54	46	3.2	74	-0.9	310	0	959.4	NA	0.0000	HZ	8000	7580	8460	0	0
2019/10/19 16:59:00	BASE	38.36	47	46.30	48	3.2	74	-1.0	337	0	959.2	NA	0.0000	HZ	7000	7910	0	0	0
2019/10/19 17:00:00	BASE	39.68	48	46.30	48	3.1	74	-1.1	366	0	958.9	NA	0.0000	HZ	8000	8430	0	0	0
2019/10/19 17:01:00	BASE	39.25	48	46.30	48	3.1	73	-1.2	396	0	959.1	NA	0.0000	HZ	8000	6920	0	0	0
2019/10/19 17:02:00	BASE	38.31	47	46.30	48	3.0	73	-1.3	385	0	959.0	NA	0.0000	HZ	8000	7150	0	0	0
2019/10/19 17:03:00	BASE	39.35	47	46.30	48	3.0	74	-1.3	567	0	958.8	NA	0.0000	HZ	8000	7450	0	0	0
2019/10/19 17:04:00	BASE	39.67	48	46.30	48	3.0	74	-1.2	325	0	958.8	NA	0.0000	HZ	9000	7640	0	0	0
2019/10/19 17:05:00	BASE	39.84	47	46.30	48	3.0	74	-1.2	313	0	958.7	NA	0.0000	HZ	8000	7780	0	0	0
2019/10/19 17:06:00	BASE	39.09	44	46.30	48	3.0	74	-1.1	303	0	958.6	NA	0.0000	HZ	8000	7810	0	0	0
2019/10/19 17:07:00	BASE	38.47	43	46.30	48	3.0	74	-1.1	301	0	958.4	NA	0.0000	HZ	7000	7810	0	0	0
2019/10/19 17:08:00	BASE	39.63	44	46.30	48	3.0	75	-1.0	301	0	958.5	NA	0.0000	HZ	8000	7710	0	0	0
2019/10/19 17:09:00	BASE	36.61	42	45.53	43	3.0	75	-1.0	303	0	958.8	NA	0.0000	HZ	8000	7120	7680	0	0
2019/10/19 17:10:00	BASE	33.46	40	45.53	43	3.1	75	-0.9	309	0	958.7	NA	0.0000	HZ	8000	7150	0	0	0
2019/10/19 17:11:00	BASE	35.45	41	45.53	43	3.1	75	-0.8	320	0	958.5	NA	0.0000	HZ	9000	7220	0	0	0
2019/10/19 17:12:00	BASE	36.52	43	45.53	43	3.1	75	-0.8	336	0	958.5	NA	0.0000	HZ	8000	7150	23980	0	0
2019/10/19 17:13:00	BASE	36.96	42	45.53	43	3.2	75	-0.7	342	0	958.3	NA	0.0000	HZ	8000	7190	0	0	0
2019/10/19 17:14:00	BASE	38.42	42	45.53	43	3.3	75	-0.7	345	0	958.3	NA	0.0000	HZ	8000	7020	0	0	0
2019/10/19 17:15:00	BASE	38.34	43	45.53	43	3.4	75	-0.6	362	0	958.4	NA	0.0000	HZ	8000	6820	0	0	0
2019/10/19 17:16:00	BASE	37.90	44	43.52	42	3.4	74	-0.7	398	0	958.4	NA	0.0000	HZ	8000	6500	0	0	0
2019/10/19 17:17:00	BASE	37.73	43	43.52	42	3.5	74	-0.7	925	0	958.2	NA	0.0000	HZ	8000	7420	0	0	0
2019/10/19 17:18:00	BASE	38.36	43	43.93	45	3.6	74	-0.7	474	0	958.1	NA	0.0000	HZ	8000	6960	0	0	0
2019/10/19 17:19:00	BASE	39.28	44	43.93	45	3.6	73	-0.7	516	0	958.2	NA	0.0000	HZ	8000	7870	0	0	0
2019/10/19 17:20:00	BASE	38.87	45	44.14	45	3.6	73	-0.8	539	0	958.1	NA	0.0000	HZ	8000	7510	22870	0	0
2019/10/19 17:21:00	BASE	39.91	45	44.19	41	3.6	73	-0.8	531	0	957.8	NA	0.0000	HZ	8000	7420	0	0	0
2019/10/19 17:22:00	BASE	41.86	45	45.63	37	3.6	73	-0.8	447	0	957.8	NA	0.0000	HZ	8000	7740	0	0	0
2019/10/19 17:23:00	BASE	40.84	44	45.63	37	3.5	73	-1.0	341	0	957.9	NA	0.0000	HZ	8000	7050	0	0	0
2019/10/19 17:24:00	BASE	40.43	45	45.89	52	3.4	73	-1.0	292	0	957.9	NA	0.0000	HZ	8000	6890	0	0	0
2019/10/19 17:25:00	BASE	40.20	45	45.89	52	3.4	73	-1.1	257	0	958.0	NA	0.0000	HZ	7000	6660	0	0	0
2019/10/19 17:26:00	BASE	39.55	47	45.89	52	3.3	73	-1.1	238	0	958.1	NA	0.0000	HZ	5000	6590	0	0	0
2019/10/19 17:27:00	BASE	39.32	47	45.89	52	3.3	73	-1.2	229	0	958.1	NA	0.0000	HZ	5000	6660	0	0	0
2019/10/19 17:28:00	BASE	37.84	45	45.89	52	3.2	73	-1.2	225	0	958.1	NA	0.0000	HZ	5000	6560	0	0	0
2019/10/19 17:29:00	BASE	38.03	47	45.89	52	3.1	73	-1.2	221	0	958.1	NA	0.0000	HZ	5000	6690	7220	7610	0
2019/10/19 17:30:00	BASE	40.04	48	45.89	52	3.1	74	-1.2	215	0	957.9	NA	0.0000	HZ	5000	6270	0	0	0
2019/10/19 17:31:00	BASE	39.58	49	45.89	52	3.0	74	-1.2	206	0	958.1	NA	0.0000	HZ	6000	6790	0	0	0
2019/10/19 17:32:00	BASE	38.95	50	45.89	52	3.0	74	-1.2	197	0	958.0	NA	0.0000	HZ	5000	6990	0	0	0
2019/10/19 17:33:00	BASE	38.45	50	45.89	52	2.9	74	-1.2	190	0	958.1	NA	0.0000	HZ	5000	7940	8330	0	0
2019/10/19 17:34:00	BASE	37.74	51	44.24	51	2.9	74	-1.2	183	0	958.0	NA	0.0000	HZ	5000	7450	8140	0	0
2019/10/19 17:35:00	BASE	38.20	52	44.24	51	2.9	74	-1.3	180	0	958.0	NA	0.0000	HZ	5000	7250	0	0	0
2019/10/19 17:36:00	BASE	39.03	50	44.24	51	2.8	74	-1.4	179	0	957.9	NA	0.0000	HZ	5000	7250	8010	0	0
2019/10/19 17:37:00	BASE	40.05	48	44.24	51	2.8	74	-1.4	180	0	957.8	NA	0.0000	HZ	6000	7350	7780	0	0
2019/10/19 17:38:00	BASE	38.52	48	44.24	51	2.8	74	-1.4	179	0	957.9	NA	0.0000	HZ	6000	7450	0	0	0
2019/10/19 17:39:00	BASE	35.67	50	44.24	51	2.8	74	-1.3	176	0	958.0	NA	0.0000	HZ	5000	7510	0	0	0
2019/10/19 17:40:00	BASE	35.32	52	43.42	45	2.8	74	-1.3	172	0	957.8	NA	0.0000	HZ	5000	7640	0	0	0
2019/10/19 17:41:00	BASE	37.36	51	43.47	49	2.8	74	-1.4	169	0	957.7	NA	0.0000	HZ	5000	7150	7640	0	0
2019/10/19 17:42:00	BASE	38.25	50	43.73	54	2.8	74	-1.4	166	0	957.7	NA	0.0000	HZ	6000	7190	0	0	0
2019/10/19 17:43:00	BASE	37.20	51	43.73	54	2.8	74	-1.4	166	0	957.7	NA	0.0000	HZ	5000	7280	0	0	0
2019/10/19 17:44:00	BASE	36.57	50	43.73	54	2.8	74	-1.3	167	0	957.7	NA	0.0000	HZ	5000	7580	0	0	0
2019/10/19 17:45:00	BASE	35.98	49	43.73	54	2.8	75	-1.3	168	0	957.8	NA	0.0000	HZ	6000	12400	0	0	0
2019/10/19 17:46:00	BASE	35.10	49	43.73	54	2.8	75	-1.2	169	0	957.7	NA	0.0000	HZ	5000	12370	0	0	0
2019/10/19 17:47:00	BASE	34.95	49	43.73	54	2.8	75	-1.2	167	0	957.7	NA	0.0000	HZ	6000	12400	0	0	0
2019/10/19 17:48:00	BASE	34.33	50	43.73	54	2.8	75	-1.2	165	0	957.8	NA	0.0000	HZ	6000	6500	12370	0	0
2019/10/19 17:49:00	BASE	32.32	51	43.73	54	2.8	75	-1.2	164	0	957.9	NA	0.0000	HZ	6000	6560	7190	0	0
2019/10/19 17:50:00	BASE	32.35	53	43.73	54	2.7	75	-1.2	165	0	957.7	NA	0.0000	HZ	6000	7190	0	0	0
2019/10/19 17:51:00	BASE	34.85	53	43.73	54	2.7	75	-1.2	168	0	957.7	NA	0.0000	HZ	5000	7250	0	0	0
2019/10/19 17:52:00	BASE	34.66	52	40.23	45	2.8	75	-1.2	169	0	957.7	NA	0.0000	HZ	7000	12040	0	0	0
2019/10/19 17:53:00	BASE	34.28	52	40.23	45	2.8	75	-1.1	169	0	957.7	NA	0.0000	HZ	8000	11120	0	0	0
2019/10/19 17:54:00	BASE	34.57	50	40.23	45	2.8	75	-1.1	167	0	957.8	NA	0.0000	HZ	8000	7680	12070	0	0
2019/10/19 17:55:00	BASE	32.90	50	40.23	45	2.9	75	-1.1	164	0	957.9	NA	0.0000	HZ	7000	7610	12040	0	0
2019/10/19 17:56:00	BASE	31.75	51	40.23	45	3.0	75	-1.1	161	0	957.9	NA	0.0000	HZ	7000	11910	0	0	0
2019/10/19 17:57:00	BASE	32.27	50	40.23	45	3.0	74	-1.1	155	0	957.8	NA	0.0000	HZ	8000	7250	12010	0	0
2019/10/19 17:58:00	BASE	31.43	50	40.23	45	3.0	74	-1.1	149	0	957.9	NA	0.0000	HZ	8000	11710	0	0	0
2019/10/19 17:59:00	BASE	30.29	50	40.23	45	3.1	74	-1.1	144	0	957.9	NA	0.0000	HZ	8000	7250	0	0	0
2019/10/19 18:00:00	BASE	29.93	52	40.23	45	3.1	74	-1.1	142	0	958.0	NA	0.0000	HZ	7000	11650	0	0	0
2019/10/19 18:01:00	BASE	29.87	51	37.71	49	3.1	74	-1.1	139	0	958.0	NA	0.0000	HZ	7000	7840	11480	0	0
2019/10/19 18:02:00	BASE	29.85	49	37.71	49	3.2	74	-1.0	129	0	958.0	NA	0.0000	HZ	8000	4820	8140	0	0
2019/10/19 18:03:00	BASE	29.14	50	36.83	53	3.2	74	-1.0	122	0	958.0	NA	0.0000	HZ	8000	4790	0	0	0
2019/10/19 18:04:00	BASE	29.61	50	35.24	47	3.2	74	-1.1	119	0	958.0	NA	0.0000	HZ	7000	4790	0	0	0
2019/10/19 18:05:00	BASE	29.53	49	35.24	47	3.2	73	-1.1	115	0	958.1	NA	0.0000	HZ	7000	4200	4820	0	0
2019/10/19 18:06:00	BASE	28.32	50	34.93	50	3.2	73	-1.2	113	0	958.1	NA	0.0000	HZ	7000	4230	4920	0	0
2019/10/19 18:07:00	BASE	27.17	52	34.57	50	3.2	73	-1.2	113	0	958.2	NA	0.0000	HZ	7000	4200	4990	0	0
2019/10/19 18:08:00	BASE	27.92	53	34.57	50	3.1	73	-1.2	111	0	958.0	NA	0.0000	HZ	7000	4200	0	0	0
2019/10/19 18:09:00	BASE	28.37	55	34.57	50	3.1	74	-1.1	111	0	958.1	NA	0.0000	HZ	8000	4100	0	0	0
2019/10/19 18:10:00	BASE	26.63	56	34.57	50	3.2	74	-1.1	109	0	958.1	NA	0.0000	HZ	8000	4040	0	0	0
2019/10/19 18:11:00	BASE	25.29	56	34.57	50	3.2	74	-1.0	107	0	958.1	NA	0.0000	HZ	9000	4100	4790	0	0
2019/10/19 18:12:00	BASE	23.26	60	34.57	50	3.2	74	-1.0	107	0	958.1	NA	0.0000	HZ	7000	4300	4860	0	0
2019/10/19 18:13:00	BASE	22.83	64	34.57	50	3.2	74	-1.0	105	0	958.0	NA	0.0000	HZ	8000	4460	0	0	0
2019/10/19 18:14:00	BASE	23.66	62	32.56	48	3.2	74	-1.0	105	0	957.9	NA	0.0000	HZ	9000	4590	0	0	0
2019/10/19 18:15:00	BASE	23.62	62	32.56	48	3.2	74	-1.0	104	0	957.9	NA	0.0000	HZ	8000	4990	5970	0	0
2019/10/19 18:16:00	BASE	24.80	65	32.20	56	3.3	74	-0.9	102	0	957.8	NA	0.0000	HZ	8000	5090	5770	0	0
2019/10/19 18:17:00	BASE	24.95	67	32.20	56	3.4	74	-0.9	101	0	957.9	NA	0.0000	HZ	8000	5120	5810	0	0
2019/10/19 18:18:00	BASE	24.03	68	29.58	56	3.4	73	-0.9	100	0	957.9	NA	0.0000	HZ	7000	6460	7020	0	0
2019/10/19 18:19:00	BASE	21.83	72	29.58	56	3.5	73	-0.9	97	0	958.0	NA	0.0000	HZ	7000	6920	0	0	0
2019/10/19 18:20:00	BASE	20.91	78	28.29	55	3.5	73	-1.0	94	0	958.0	NA	0.0000	HZ	8000	6890	0	0	0
2019/10/19 18:21:00	BASE	22.14	79	28.24	75	3.5	72	-1.0	90	0	957.9	NA	0.0000	HZ	7000	6920	7480	0	0
2019/10/19 18:22:00	BASE	22.65	75	28.24	75	3.4	72	-1.1	87	0	957.8	NA	0.0000	HZ	8000	7280	0	0	0
2019/10/19 18:23:00	BASE	22.91	75	28.24	75	3.4	73	-1.1	85	0	957.8	NA	0.0000	HZ	7000	7090	0	0	0
2019/10/19 18:24:00	BASE	22.51	80	28.24	75	3.3	73	-1.1	83	0	957.8	NA	0.0000	HZ	7000	7050	0	0	0
2019/10/19 18:25:00	BASE	22.24	81	28.24	75	3.3	73	-1.0	81	0	957.8	NA	0.0000	HZ	6000	7020	0	0	0
2019/10/19 18:26:00	BASE	21.38	84	27.99	62	3.3	74	-0.9	79	0	957.8	NA	0.0000	HZ	6000	6990	0	0	0
2019/10/19 18:27:00	BASE	18.75	88	27.93	68	3.3	74	-0.9	75	0	957.8	NA	0.0000	HZ	5000	6500	0	0	0
2019/10/19 18:28:00	BASE	17.38	86	27.93	68	3.3	75	-0.8	73	0	957.8	NA	0.0000	HZ	4900	6000	6530	0	0
2019/10/19 18:29:00	BASE	18.92	77	27.93	68	3.2	75	-0.8	70	0	957.6	NA	0.0000	HZ	4900	5970	0	0	0
2019/10/19 18:30:00	BASE	21.91	69	28.24	61	3.2	75	-0.8	67	0	957.3	NA	0.0000	HZ	4900	6140	0	0	0
2019/10/19 18:31:00	BASE	24.14	69	28.24	61	3.1	75	-0.9	65	0	957.2	NA	0.0000	HZ	4900	6140	0	0	0
2019/10/19 18:32:00	BASE	24.52	69	28.24	61	3.1	75	-0.9	62	0	957.3	NA	0.0000	HZ	4900	6070	0	0	0
2019/10/19 18:33:00	BASE	25.07	68	28.60	60	3.0	75	-0.9	60	0	957.3	NA	0.0000	HZ	5000	5740	0	0	0
2019/10/19 18:34:00	BASE	24.82	70	28.60	60	3.0	75	-0.9	58	0	957.2	NA	0.0000	UP	6000	5640	6400	0	0
2019/10/19 18:35:00	BASE	24.24	70	28.60	60	2.9	76	-0.9	57	0	957.2	NA	0.0000	UP	6000	5610	6140	0	0
2019/10/19 18:36:00	BASE	24.96	71	30.40	74	2.9	76	-0.9	57	0	957.0	NA	0.0000	UP	6000	6170	0	0	0
2019/10/19 18:37:00	BASE	25.77	71	30.40	74	2.9	77	-0.8	57	0	957.1	NA	0.0000	UP	6000	5810	6300	0	0
2019/10/19 18:38:00	BASE	25.05	70	30.40	74	2.8	77	-0.8	58	0	957.2	NA	0.0000	UP	6000	5810	0	0	0
2019/10/19 18:39:00	BASE	25.01	67	30.40	74	2.8	77	-0.7	58	0	957.2	NA	0.0000	UP	6000	5610	0	0	0
2019/10/19 18:40:00	BASE	25.80	63	31.64	61	2.8	78	-0.7	58	0	957.2	NA	0.0000	UP	6000	5540	0	0	0
2019/10/19 18:41:00	BASE	26.04	64	32.10	59	2.8	78	-0.6	57	0	957.1	NA	0.0000	UP	6000	5580	0	0	0
2019/10/19 18:42:00	BASE	24.68	72	32.10	59	2.8	79	-0.5	56	0	957.2	NA	0.0000	UP	6000	5580	0	0	0
2019/10/19 18:43:00	BASE	21.10	84	32.10	59	2.8	79	-0.4	56	0	957.3	NA	0.0000	HZ	6000	5540	0	0	0
2019/10/19 18:44:00	BASE	17.29	92	32.10	59	2.9	79	-0.3	56	0	957.4	NA	0.0000	HZ	6000	5610	0	0	0
2019/10/19 18:45:00	BASE	16.59	96	32.10	59	2.9	80	-0.3	57	0	957.3	NA	0.0000	HZ	6000	5910	0	0	0
2019/10/19 18:46:00	BASE	14.04	104	32.10	59	2.9	80	-0.3	56	0	957.3	NA	0.0000	HZ	6000	6270	0	0	0
2019/10/19 18:47:00	BASE	12.04	95	32.10	59	2.7	80	-0.4	55	0	957.2	NA	0.0000	HZ	6000	6270	0	0	0
2019/10/19 18:48:00	BASE	16.95	81	32.10	59	2.7	80	-0.5	55	0	957.0	NA	0.0000	HZ	6000	6200	0	0	0
2019/10/19 18:49:00	BASE	19.60	84	32.10	59	2.6	80	-0.5	54	0	956.9	NA	0.0000	HZ SQ	7000	6140	0	0	0
2019/10/19 18:50:00	BASE	18.91	86	32.10	59	2.6	80	-0.6	54	0	956.9	NA	0.0000	HZ	7000	6140	0	0	0
2019/10/19 18:51:00	BASE	19.54	83	26.70	64	2.6	80	-0.5	54	0	956.8	NA	0.0000	HZ	6000	6070	0	0	0
2019/10/19 18:52:00	BASE	21.20	84	25.57	75	2.7	80	-0.4	54	0	956.8	NA	0.0000	HZ	6000	5840	0	0	0
2019/10/19 18:53:00	BASE	20.29	85	25.57	75	2.7	80	-0.4	54	0	956.8	NA	0.0000	HZ	6000	5740	0	0	0
2019/10/19 18:54:00	BASE	18.06	93	25.57	75	2.7	80	-0.4	54	0	956.8	NA	0.0000	HZ	5000	5640	0	0	0
2019/10/19 18:55:00	BASE	16.24	102	25.57	75	2.7	80	-0.4	54	0	956.8	NA	0.0000	HZ	5000	5680	0	0	0
2019/10/19 18:56:00	BASE	14.53	107	25.57	75	2.6	81	-0.3	55	0	956.7	NA	0.0000	HZ	4200	5710	0	0	0
2019/10/19 18:57:00	BASE	14.28	106	25.57	75	2.6	81	-0.3	55	0	956.7	NA	0.0000	HZ	4200	5840	0	0	0
2019/10/19 18:58:00	BASE	15.35	107	25.57	75	2.6	82	-0.2	55	0	956.7	NA	0.0000	HZ	4500	6070	0	0	0
2019/10/19 18:59:00	BASE	13.91	114	25.57	75	2.6	82	-0.2	55	0	956.8	NA	0.0000	HZ	7000	6070	0	0	0
2019/10/19 19:00:00	BASE	11.03	121	25.57	75	2.5	82	-0.2	56	0	956.8	NA	0.0000	HZ	7000	6070	0	0	0
2019/10/19 19:01:00	BASE	10.85	130	25.46	74	2.4	82	-0.4	57	0	956.7	NA	0.0000	HZ	7000	6140	0	0	0
2019/10/19 19:02:00	BASE	11.33	131	24.18	103	2.1	82	-0.7	58	0	956.7	NA	0.0000	HZ	9999	6140	0	0	0
2019/10/19 19:03:00	BASE	11.56	127	21.86	81	1.8	82	-1.0	58	0	956.6	NA	0.0000	HZ	9999	6140	0	0	0
2019/10/19 19:04:00	BASE	11.75	131	20.68	107	1.5	82	-1.3	59	0	956.5	NA	0.0000	HZ	9000	6170	0	0	0
2019/10/19 19:05:00	BASE	11.28	131	20.68	107	1.2	82	-1.6	61	0	956.4	NA	0.0000	HZ	9000	6140	0	0	0
2019/10/19 19:06:00	BASE	10.82	131	20.68	107	1.0	82	-1.7	63	0	956.4	NA	0.0000	HZ	9000	6230	0	0	0
2019/10/19 19:07:00	BASE	10.27	129	19.09	113	1.0	82	-1.7	64	0	956.3	NA	0.0000	HZ	9999	6170	0	0	0
2019/10/19 19:08:00	BASE	8.95	121	16.26	116	1.1	82	-1.6	66	0	956.3	NA	0.0000	HZ	9999	6140	0	0	0
2019/10/19 19:09:00	BASE	8.72	123	15.12	144	1.1	83	-1.5	65	0	956.1	NA	0.0000	HZ	8000	6230	0	0	0
2019/10/19 19:10:00	BASE	8.75	119	15.12	144	1.3	83	-1.3	64	0	956.1	NA	0.0000	HZ	9000	6170	0	0	0
2019/10/19 19:11:00	BASE	8.39	111	15.12	144	1.5	83	-1.0	63	0	956.1	NA	0.0000	HZ	8000	5910	0	0	0
2019/10/19 19:12:00	BASE	11.25	108	15.18	112	1.7	83	-0.8	62	0	956.0	NA	0.0000	HZ	9000	5940	0	0	0
2019/10/19 19:13:00	BASE	15.12	104	17.90	107	2.0	83	-0.5	62	0	956.0	NA	0.0000	HZ	8000	6000	0	0	0
2019/10/19 19:14:00	BASE	14.35	105	17.90	107	2.3	83	-0.3	63	0	955.9	NA	0.0000	HZ	9000	6000	0	0	0
2019/10/19 19:15:00	BASE	12.94	103	18.06	88	2.5	83	-0.1	64	0	955.8	NA	0.0000	HZ	8000	6100	0	0	0
2019/10/19 19:16:00	BASE	14.02	97	18.06	88	2.7	83	0.0	66	0	955.8	NA	0.0000	HZ	8000	6200	0	0	0
2019/10/19 19:17:00	BASE	15.10	92	18.06	88	2.9	82	0.1	66	0	955.6	NA	0.0000	HZ	7000	6300	0	0	0
2019/10/19 19:18:00	BASE	16.35	90	19.96	85	3.0	81	0.1	66	0	955.6	NA	0.0000	HZ	6000	6230	0	0	0
2019/10/19 19:19:00	BASE	17.22	90	19.96	85	3.2	80	0.0	67	0	955.6	NA	0.0000	HZ	7000	6300	0	0	0
2019/10/19 19:20:00	BASE	17.11	91	19.96	85	3.3	78	-0.1	67	0	955.6	NA	0.0000	HZ	6000	6300	0	0	0
2019/10/19 19:21:00	BASE	14.97	91	19.96	85	3.4	77	-0.2	67	0	955.6	NA	0.0000	HZ	6000	6170	0	0	0
2019/10/19 19:22:00	BASE	14.20	83	19.96	85	3.5	76	-0.4	67	0	955.4	NA	0.0000	HZ	6000	6330	0	0	0
2019/10/19 19:23:00	BASE	17.65	77	21.50	71	3.5	75	-0.6	68	0	955.3	NA	0.0000	HZ	6000	6430	0	0	0
2019/10/19 19:24:00	BASE	19.10	79	21.50	71	3.4	74	-0.7	67	0	955.2	NA	0.0000	HZ	6000	6530	0	0	0
2019/10/19 19:25:00	BASE	18.26	81	21.50	71	3.4	74	-0.8	66	0	955.2	NA	0.0000	HZ	6000	6590	0	0	0
2019/10/19 19:26:00	BASE	18.78	77	22.38	71	3.4	74	-0.8	66	0	955.1	NA	0.0000	HZ	6000	6690	0	0	0
2019/10/19 19:27:00	BASE	17.64	80	22.38	71	3.5	74	-0.8	65	0	955.2	NA	0.0000	HZ	6000	6660	0	0	0
2019/10/19 19:28:00	BASE	15.19	83	22.38	71	3.5	74	-0.7	65	0	955.1	NA	0.0000	HZ	6000	6690	0	0	0
2019/10/19 19:29:00	BASE	14.53	82	22.38	71	3.6	73	-0.7	64	0	955.1	NA	0.0000	HZ	6000	6860	0	0	0
2019/10/19 19:30:00	BASE	14.85	80	22.38	71	3.7	73	-0.7	64	0	955.0	NA	0.0000	HZ	6000	6820	0	0	0
2019/10/19 19:31:00	BASE	15.21	75	22.38	71	3.7	73	-0.7	64	0	955.0	NA	0.0000	HZ	8000	6560	0	0	0
2019/10/19 19:32:00	BASE	17.02	73	22.38	71	3.8	72	-0.7	64	0	954.9	NA	0.0000	HZ	9000	6530	0	0	0
2019/10/19 19:33:00	BASE	18.22	75	22.38	71	4.0	72	-0.7	64	0	954.9	NA	0.0000	HZ	9000	6660	0	0	0
2019/10/19 19:34:00	BASE	19.06	74	23.20	85	4.1	71	-0.7	65	0	954.9	NA	0.0000	HZ	9000	6630	0	0	0
2019/10/19 19:35:00	BASE	18.75	73	23.20	85	4.2	70	-0.8	65	0	954.9	NA	0.0000	HZ	8000	6500	0	0	0
2019/10/19 19:36:00	BASE	17.21	78	23.20	85	4.3	69	-0.9	65	0	954.8	NA	0.0000	HZ	8000	6730	0	0	0
2019/10/19 19:37:00	BASE	15.84	81	23.20	85	4.3	68	-1.0	65	0	954.8	NA	0.0000	HZ	8000	6860	0	0	0
2019/10/19 19:38:00	BASE	14.57	83	23.20	85	4.2	68	-1.1	63	0	954.8	NA	0.0000	HZ	7000	6560	0	0	0
2019/10/19 19:39:00	BASE	13.91	82	23.20	85	4.1	69	-1.1	63	0	954.8	NA	0.0000	HZ	9000	6990	0	0	0
2019/10/19 19:40:00	BASE	13.53	82	23.20	85	4.0	69	-1.1	63	0	954.7	NA	0.0000	HZ	9000	6370	0	0	0
2019/10/19 19:41:00	BASE	14.88	87	23.20	85	4.0	70	-1.0	63	0	954.7	NA	0.0000	HZ	9000	6370	0	0	0
2019/10/19 19:42:00	BASE	16.01	88	23.20	85	3.9	70	-1.0	63	0	954.7	NA	0.0000	HZ	8000	6460	0	0	0
2019/10/19 19:43:00	BASE	17.00	87	23.20	85	3.8	71	-1.0	64	0	954.7	NA	0.0000	HZ	8000	6630	0	0	0
2019/10/19 19:44:00	BASE	18.03	85	20.89	79	3.8	71	-1.0	64	0	954.7	NA	0.0000	HZ	7000	6690	0	0	0
2019/10/19 19:45:00	BASE	16.30	81	20.89	79	3.8	71	-0.9	65	0	954.8	NA	0.0000	HZ	9999	6300	0	0	0
2019/10/19 19:46:00	BASE	14.30	80	20.89	79	3.9	71	-1.0	66	0	954.7	NA	0.0000	HZ	9000	6430	0	0	0
2019/10/19 19:47:00	BASE	14.55	83	20.89	79	3.9	71	-1.0	68	0	954.7	NA	0.0000	HZ	9999	6370	0	0	0
2019/10/19 19:48:00	BASE	14.15	83	20.89	79	3.9	70	-1.0	68	0	954.7	NA	0.0000	HZ	9999	6370	0	0	0
2019/10/19 19:49:00	BASE	13.64	81	20.89	79	3.9	70	-1.0	67	0	954.7	NA	0.0000	HZ	9999	6530	0	0	0
2019/10/19 19:50:00	BASE	13.16	84	20.89	79	3.9	70	-1.1	66	0	954.7	NA	0.0000	HZ	9999	6100	0	0	0
2019/10/19 19:51:00	BASE	14.12	89	20.89	79	3.9	70	-1.1	64	0	954.7	NA	0.0000	HZ	9000	5910	0	0	0
2019/10/19 19:52:00	BASE	16.07	85	20.89	79	3.9	70	-1.1	62	0	954.7	NA	0.0000	HZ	8000	5970	0	0	0
2019/10/19 19:53:00	BASE	15.29	80	20.89	79	3.9	70	-1.1	60	0	954.7	NA	0.0000	HZ	7000	5740	0	0	0
2019/10/19 19:54:00	BASE	15.18	83	18.83	83	3.9	70	-1.2	57	0	954.6	NA	0.0000	HZ	9000	5540	0	0	0
2019/10/19 19:55:00	BASE	16.80	85	18.88	91	3.8	70	-1.3	55	0	954.6	NA	0.0000	HZ	8000	5480	0	0	0
2019/10/19 19:56:00	BASE	16.40	77	19.14	75	3.7	70	-1.4	52	0	954.6	NA	0.0000	HZ	9000	5540	0	0	0
2019/10/19 19:57:00	BASE	15.36	77	19.14	75	3.5	70	-1.5	48	0	954.6	NA	0.0000	HZ	9000	5450	0	0	0
2019/10/19 19:58:00	BASE	14.82	80	19.14	75	3.4	70	-1.5	45	0	954.7	NA	0.0000	HZ	9999	5480	0	0	0
2019/10/19 19:59:00	BASE	13.67	82	19.14	75	3.4	70	-1.5	44	0	954.7	NA	0.0000	HZ	9999	4920	0	0	0
2019/10/19 20:00:00	BASE	12.83	82	19.14	75	3.4	71	-1.5	44	0	954.8	NA	0.0000	HZ	9000	4330	0	0	0
2019/10/19 20:01:00	BASE	12.08	79	19.14	75	3.4	71	-1.4	44	0	954.8	NA	0.0000	HZ	8000	3770	0	0	0
2019/10/19 20:02:00	BASE	12.51	78	19.14	75	3.4	71	-1.4	45	0	954.8	NA	0.0000	HZ	9000	3870	0	0	0
2019/10/19 20:03:00	BASE	14.12	77	19.14	75	3.5	71	-1.3	45	0	954.8	NA	0.0000	HZ	9999	0	0	0	5580
2019/10/19 20:04:00	BASE	14.57	80	19.14	75	3.5	71	-1.4	47	0	954.8	NA	0.0000	HZ	9000	980	0	0	0
2019/10/19 20:05:00	BASE	13.45	85	19.14	75	3.4	71	-1.4	47	0	954.8	NA	0.0000	HZ	8000	3870	0	0	0
2019/10/19 20:06:00	BASE	11.43	87	18.21	80	3.4	71	-1.4	48	0	954.8	NA	0.0000	HZ	5000	3870	0	0	0
2019/10/19 20:07:00	BASE	10.92	81	17.13	82	3.3	71	-1.3	50	0	954.8	NA	0.0000	UP	4800	4430	0	0	0
2019/10/19 20:08:00	BASE	11.46	77	17.13	82	3.4	71	-1.3	52	0	954.8	NA	0.0000	UP	5000	0	0	0	4590
2019/10/19 20:09:00	BASE	10.77	79	17.13	82	3.4	71	-1.3	52	0	954.8	NA	0.0000	UP	6000	3740	0	0	0
2019/10/19 20:10:00	BASE	9.52	83	17.13	82	3.5	71	-1.2	53	0	954.9	NA	0.0000	UP	5000	3840	0	0	0
2019/10/19 20:11:00	BASE	8.98	81	17.13	82	3.5	71	-1.2	54	0	955.0	NA	0.0000	UP	5000	3810	0	0	0
2019/10/19 20:12:00	BASE	8.61	72	16.77	74	3.6	71	-1.2	53	0	955.0	NA	0.0000	UP	6000	3900	0	0	0
2019/10/19 20:13:00	BASE	8.95	70	16.00	71	3.6	71	-1.2	54	0	955.0	NA	0.0000	UP	7000	3710	0	0	0
2019/10/19 20:14:00	BASE	9.36	74	13.84	87	3.6	70	-1.3	55	0	955.0	NA	0.0000	UP	8000	3940	0	0	0
2019/10/19 20:15:00	BASE	8.94	77	13.12	70	3.6	70	-1.3	54	0	955.0	NA	0.0000	UP	8000	0	0	0	4230
2019/10/19 20:16:00	BASE	8.98	82	13.12	70	3.6	70	-1.4	52	0	955.0	NA	0.0000	UP	8000	3770	0	0	0
2019/10/19 20:17:00	BASE	8.99	90	13.12	70	3.6	70	-1.4	48	0	955.0	NA	0.0000	UP	7000	0	0	0	4430
2019/10/19 20:18:00	BASE	7.69	105	11.78	88	3.5	70	-1.4	44	0	955.0	NA	0.0000	UP	5000	0	0	0	4530
2019/10/19 20:19:00	BASE	6.05	124	11.27	74	3.5	70	-1.5	41	0	955.0	NA	0.0000	UP	4000	0	0	0	4040
2019/10/19 20:20:00	BASE	8.10	110	13.53	77	3.4	71	-1.4	39	0	955.0	NA	0.0000	UP	4000	0	0	0	3710
2019/10/19 20:21:00	BASE	11.08	82	13.89	71	3.4	71	-1.3	37	0	955.0	NA	0.0000	UP	4000	0	0	0	3640
2019/10/19 20:22:00	BASE	11.19	78	13.89	71	3.4	72	-1.2	36	0	955.0	NA	0.0000	UP	3600	0	0	0	3450
2019/10/19 20:23:00	BASE	11.50	82	13.89	71	3.4	73	-1.1	36	0	955.0	NA	0.0000	UP	2900	0	0	0	2790
2019/10/19 20:24:00	BASE	12.03	80	13.89	71	3.4	74	-0.8	35	0	955.0	NA	0.0000	UP	2100	0	0	0	2890
2019/10/19 20:25:00	BASE	12.46	76	15.12	62	3.3	75	-0.7	35	0	954.9	NA	0.0000	UP	1700	0	0	0	2720
2019/10/19 20:26:00	BASE	13.29	73	15.79	65	3.3	76	-0.6	36	0	954.8	NA	0.0000	UP	1900	620	0	0	0
2019/10/19 20:27:00	BASE	15.74	69	19.75	60	3.2	77	-0.4	38	0	954.8	NA	0.0000	UP	2100	0	0	0	2130
2019/10/19 20:28:00	BASE	18.57	65	24.18	60	3.1	79	-0.3	40	0	954.6	NA	0.0000	UP	2400	690	0	0	0
2019/10/19 20:29:00	BASE	20.92	62	24.80	60	3.0	80	-0.2	39	0	954.4	NA	0.0000	UP	2900	790	0	0	0
2019/10/19 20:30:00	BASE	23.27	57	25.46	50	2.9	81	-0.1	40	0	954.3	NA	0.0000	UP	3700	0	0	0	3540
2019/10/19 20:31:00	BASE	23.23	55	25.98	57	2.8	82	0.0	41	0	954.2	NA	0.0000	UP	4100	790	0	0	0
2019/10/19 20:32:00	BASE	22.69	57	25.98	57	2.8	83	0.1	41	0	954.2	NA	0.0000	UP	5000	0	0	0	4100
2019/10/19 20:33:00	BASE	23.85	58	26.55	55	2.8	84	0.3	42	0	954.1	NA	0.0000	UP	5000	0	0	0	4070
2019/10/19 20:34:00	BASE	23.76	58	26.55	55	2.8	84	0.4	42	0	954.2	NA	0.0000	UP	5000	0	0	0	3900
2019/10/19 20:35:00	BASE	22.48	60	26.55	55	2.8	85	0.4	42	0	954.1	NA	0.0000	UP	5000	0	0	0	4460
2019/10/19 20:36:00	BASE	23.14	62	26.55	55	2.8	85	0.5	41	0	954.0	NA	0.0000	UP	6000	0	0	0	5180
2019/10/19 20:37:00	BASE	24.37	62	26.55	55	2.7	85	0.5	40	0	954.0	NA	0.0000	UP BR	7000	0	0	0	5180
2019/10/19 20:38:00	BASE	23.73	62	26.55	55	2.7	86	0.6	39	0	954.0	NA	0.0000	UP BR	7000	0	0	0	2360
2019/10/19 20:39:00	BASE	23.36	62	26.55	55	2.7	86	0.6	38	0	954.0	NA	0.0000	UP BR	7000	0	0	0	5050
2019/10/19 20:40:00	BASE	23.13	64	26.55	55	2.8	86	0.7	36	0	954.0	NA	0.0000	UP BR	7000	4920	0	0	0
2019/10/19 20:41:00	BASE	22.13	66	26.55	55	2.8	87	0.8	34	0	954.0	NA	0.0000	UP BR	7000	4690	0	0	0
2019/10/19 20:42:00	BASE	21.10	64	26.55	55	2.8	87	0.8	34	0	954.1	NA	0.0000	UP BR	7000	4560	0	0	0
2019/10/19 20:43:00	BASE	20.70	65	26.34	56	2.8	87	0.9	33	0	954.0	NA	0.0000	UP BR	7000	4630	0	0	0
2019/10/19 20:44:00	BASE	20.97	68	26.34	56	2.8	87	0.9	31	0	954.1	NA	0.0000	UP BR	7000	4690	0	0	0
2019/10/19 20:45:00	BASE	20.02	73	26.34	56	2.8	87	0.9	29	0	954.1	NA	0.0000	UP BR	7000	4690	0	0	0
2019/10/19 20:46:00	BASE	19.18	78	26.34	56	2.8	87	0.9	28	0	954.1	NA	0.0000	UP BR	7000	4890	0	0	0
2019/10/19 20:47:00	BASE	19.70	81	26.34	56	2.8	87	0.8	28	0	954.1	NA	0.0000	BR	7000	4860	0	0	0
2019/10/19 20:48:00	BASE	21.02	88	26.34	56	2.8	86	0.7	27	0	954.0	NA	0.0000	BR	7000	0	0	0	3080
2019/10/19 20:49:00	BASE	19.38	92	25.41	67	2.8	86	0.6	26	0	954.1	NA	0.0000	BR	7000	0	0	0	3310
2019/10/19 20:50:00	BASE	16.17	92	25.31	63	2.8	85	0.5	26	0	954.1	NA	0.0000	HZ	7000	0	0	0	2890
2019/10/19 20:51:00	BASE	15.19	92	23.97	74	2.8	84	0.4	26	0	954.1	NA	0.0000	HZ	7000	4430	0	0	0
2019/10/19 20:52:00	BASE	15.34	89	23.97	74	2.8	84	0.3	26	0	954.0	NA	0.0000	HZ	7000	0	0	0	3080
2019/10/19 20:53:00	BASE	14.88	84	23.97	74	2.8	83	0.2	25	0	954.1	NA	0.0000	HZ	7000	0	0	0	4950
2019/10/19 20:54:00	BASE	15.05	81	23.97	74	2.7	83	0.1	24	0	954.0	NA	0.0000	UP	7000	0	0	0	5050
2019/10/19 20:55:00	BASE	16.43	81	23.61	92	2.7	84	0.2	24	0	954.0	NA	0.0000	UP	7000	0	0	0	4990
2019/10/19 20:56:01	BASE	16.82	85	23.61	92	2.6	84	0.2	23	0	954.0	NA	0.0000	UP	4000	0	0	0	4890
2019/10/19 20:57:00	BASE	17.53	89	23.61	92	2.5	84	0.2	22	0	953.9	NA	0.0000	UP	1200	0	0	0	2850
2019/10/19 20:58:00	BASE	15.82	92	22.07	86	2.5	85	0.2	22	0	953.9	NA	0.0000	UP	1200	0	0	0	3150
2019/10/19 20:59:00	BASE	14.17	95	20.58	86	2.5	85	0.2	22	0	953.9	NA	0.0000	UP	1200	0	0	0	5480
2019/10/19 21:00:00	BASE	15.50	92	20.58	86	2.5	85	0.3	21	0	953.8	NA	0.0000	UP BR	1200	0	0	0	5380
2019/10/19 21:01:00	BASE	16.23	89	20.58	86	2.4	86	0.3	21	0	953.8	NA	0.0000	UP BR	1200	0	0	0	5320
2019/10/19 21:02:00	BASE	16.86	89	20.78	94	2.4	86	0.3	21	0	953.8	NA	0.0000	UP BR	1200	0	0	0	3580
2019/10/19 21:03:00	BASE	16.45	91	20.78	94	2.4	86	0.4	21	0	953.8	NA	0.0000	UP BR	1200	0	0	0	3710
2019/10/19 21:04:00	BASE	16.14	91	20.78	94	2.4	87	0.4	21	0	953.8	NA	0.0000	UP BR	1200	0	0	0	3080
2019/10/19 21:05:00	BASE	16.82	90	20.78	94	2.4	87	0.5	21	0	953.8	NA	0.0000	UP BR	1200	0	0	0	5680
2019/10/19 21:06:00	BASE	16.94	93	21.50	88	2.5	87	0.5	20	0	953.7	NA	0.0000	UP BR	1200	0	0	0	3710
2019/10/19 21:07:00	BASE	16.19	95	21.50	88	2.5	87	0.5	21	0	953.8	NA	0.0000	BR	1200	0	0	0	3020
2019/10/19 21:08:00	BASE	16.05	94	21.50	88	2.5	87	0.5	21	0	953.7	NA	0.0000	UP BR	1200	0	0	0	2720
2019/10/19 21:09:00	BASE	18.13	89	23.00	83	2.4	87	0.5	21	0	953.6	NA	0.0000	UP BR	1100	0	0	0	2890
2019/10/19 21:10:00	BASE	19.61	82	23.00	83	2.4	87	0.5	21	0	953.6	NA	0.0000	UP BR	1100	0	0	0	2950
2019/10/19 21:11:00	BASE	18.82	82	23.00	83	2.4	87	0.5	22	0	953.6	NA	0.0000	UP BR	1100	0	0	0	3180
2019/10/19 21:12:00	BASE	17.89	89	23.00	83	2.4	87	0.5	22	0	953.6	NA	0.0000	UP BR	1200	0	0	0	3380
2019/10/19 21:13:00	BASE	16.72	95	23.00	83	2.4	87	0.5	22	0	953.6	NA	0.0000	UP BR	1200	0	0	0	2850
2019/10/19 21:14:00	BASE	16.97	100	23.00	83	2.3	88	0.5	22	0	953.5	NA	0.0000	UP BR	1000	0	0	0	2820
2019/10/19 21:15:00	BASE	17.93	102	23.00	83	2.2	88	0.4	22	0	953.4	NA	0.0000	UP BR	0900	0	0	0	2950
2019/10/19 21:16:00	BASE	18.67	101	23.00	83	2.1	88	0.3	21	0	953.4	NA	0.0000	UP BR	0750	0	0	0	2950
2019/10/19 21:17:00	BASE	18.27	99	23.00	83	2.1	88	0.3	21	0	953.5	NA	0.0000	UP BR	0800	0	0	0	2850
2019/10/19 21:18:00	BASE	18.40	94	23.00	83	2.1	88	0.3	21	0	953.4	NA	0.0000	UP BR	0800	980	0	0	0
2019/10/19 21:19:00	BASE	18.18	92	22.38	95	2.1	88	0.3	22	0	953.5	NA	0.0000	UP BR	0900	0	0	0	2890
2019/10/19 21:20:00	BASE	16.91	91	22.38	95	2.1	88	0.3	22	0	953.4	NA	0.0000	UP BR	1000	0	0	0	3150
2019/10/19 21:21:00	BASE	18.12	89	22.38	95	2.2	88	0.4	22	0	953.3	NA	0.0000	UP BR	1000	0	0	0	5150
2019/10/19 21:22:00	BASE	18.91	87	22.38	95	2.2	88	0.5	22	0	953.3	NA	0.0000	UP BR	0900	0	0	0	5610
2019/10/19 21:23:00	BASE	19.14	84	22.84	78	2.3	89	0.6	22	0	953.2	NA	0.0000	UP BR	0900	0	0	0	5050
2019/10/19 21:24:00	BASE	18.57	82	22.84	78	2.3	89	0.7	22	0	953.2	NA	0.0000	UP BR	1000	0	0	0	6000
2019/10/19 21:25:00	BASE	16.98	88	22.84	78	2.3	90	0.7	22	0	953.2	NA	0.0000	UP BR	1000	5580	0	0	0
2019/10/19 21:26:00	BASE	17.52	84	22.84	78	2.3	90	0.8	22	0	953.1	NA	0.0000	UP BR	1000	0	0	0	2920
2019/10/19 21:27:00	BASE	20.68	74	25.21	72	2.2	90	0.8	22	0	953.0	NA	0.0000	UP BR	1000	0	0	0	2820
2019/10/19 21:28:00	BASE	23.12	71	25.26	67	2.2	91	0.9	23	0	952.9	NA	0.0000	UP BR	1200	0	0	0	2000
2019/10/19 21:29:00	BASE	24.54	70	28.91	69	2.2	91	0.9	24	0	952.8	NA	0.0000	UP BR	3300	0	0	0	5810
2019/10/19 21:30:00	BASE	25.54	71	29.37	75	2.3	91	0.9	24	0	952.8	NA	0.0000	UP BR	3300	0	0	0	6070
2019/10/19 21:31:00	BASE	26.22	70	29.37	75	2.3	91	1.0	25	0	952.7	NA	0.0000	UP BR	3300	5090	0	0	0
2019/10/19 21:32:00	BASE	26.58	71	29.37	75	2.3	91	1.0	25	0	952.7	NA	0.0000	UP BR	3300	0	0	0	5970
2019/10/19 21:33:00	BASE	26.29	73	29.37	75	2.3	91	1.0	26	0	952.7	NA	0.0000	UP BR	3300	5740	0	0	0
2019/10/19 21:34:00	BASE	25.07	71	29.37	75	2.3	91	1.0	26	0	952.7	NA	0.0000	UP BR	3300	5710	0	0	0
2019/10/19 21:35:00	BASE	23.73	69	29.37	75	2.3	91	1.0	27	0	952.6	NA	0.0000	UP BR	3300	5640	0	0	0
2019/10/19 21:36:00	BASE	23.81	66	29.37	75	2.3	91	1.0	28	0	952.5	NA	0.0000	UP BR	3300	5580	0	0	0
2019/10/19 21:37:00	BASE	25.21	63	30.82	60	2.3	91	1.0	29	0	952.4	NA	0.0000	UP BR	3300	5610	0	0	0
2019/10/19 21:38:00	BASE	26.33	61	30.82	60	2.3	91	1.0	29	0	952.3	NA	0.0000	UP BR	3300	5510	0	0	0
2019/10/19 21:39:00	BASE	26.16	60	30.82	60	2.3	91	0.9	30	0	952.2	NA	0.0000	BR	3300	5450	0	0	0
2019/10/19 21:40:00	BASE	26.63	59	30.82	60	2.2	91	0.9	31	0	952.1	NA	0.0000	BR	3300	5380	0	0	0
2019/10/19 21:41:00	BASE	27.29	59	30.82	60	2.2	91	0.9	31	0	952.1	NA	0.0000	BR	3300	5280	0	0	0
2019/10/19 21:42:00	BASE	27.62	60	31.54	63	2.2	91	0.9	31	0	952.0	NA	0.0000	BR	3300	5280	0	0	0
2019/10/19 21:43:00	BASE	28.03	59	31.54	63	2.2	91	0.9	31	0	952.1	NA	0.0000	BR	3300	5150	0	0	0
2019/10/19 21:44:00	BASE	27.26	58	31.54	63	2.2	91	0.9	30	0	952.1	NA	0.0000	BR	3300	5090	0	0	0
2019/10/19 21:45:00	BASE	27.19	59	31.54	63	2.2	91	0.9	29	0	952.1	NA	0.0000	BR	3300	4950	0	0	0
2019/10/19 21:46:00	BASE	27.73	60	31.54	63	2.2	91	0.9	28	0	952.1	NA	0.0000	BR	3300	4950	0	0	0
2019/10/19 21:47:00	BASE	26.88	61	31.54	63	2.2	91	0.9	27	0	952.2	NA	0.0000	BR	3300	4990	0	0	0
2019/10/19 21:48:00	BASE	26.82	62	31.54	63	2.2	91	0.9	27	0	952.2	NA	0.0000	BR	3300	5120	0	0	0
2019/10/19 21:49:00	BASE	27.44	62	31.54	63	2.3	91	1.0	26	0	952.1	NA	0.0000	BR	3300	0	0	0	1480
2019/10/19 21:50:00	BASE	26.83	63	31.54	63	2.3	91	1.0	26	0	952.2	NA	0.0000	BR	3300	6000	0	0	0
2019/10/19 21:51:00	BASE	26.61	65	31.54	63	2.3	91	1.0	25	0	952.2	NA	0.0000	BR	3300	5910	0	0	0
2019/10/19 21:52:00	BASE	27.00	67	30.09	61	2.4	91	1.0	24	0	952.2	NA	0.0000	BR	3300	6000	0	0	0
2019/10/19 21:53:00	BASE	26.29	69	30.09	61	2.4	90	1.0	23	0	952.3	NA	0.0000	BR	3300	5810	0	0	0
2019/10/19 21:54:00	BASE	25.57	69	30.09	61	2.4	90	1.0	23	0	952.3	NA	0.0000	UP BR	3300	5480	0	0	0
2019/10/19 21:55:00	BASE	25.29	72	30.09	61	2.5	90	1.0	22	0	952.3	NA	0.0000	UP BR	3300	5220	0	0	0
2019/10/19 21:56:00	BASE	23.28	75	30.09	61	2.5	90	1.0	22	0	952.4	NA	0.0000	UP BR	3300	5150	0	0	0
2019/10/19 21:57:00	BASE	20.53	77	30.09	61	2.6	90	1.0	22	0	952.5	NA	0.0000	BR	3300	5050	0	0	0
2019/10/19 21:58:00	BASE	18.07	80	29.43	63	2.6	89	1.0	22	0	952.5	NA	0.0000	BR	3300	5020	0	0	0
2019/10/19 21:59:00	BASE	16.57	83	29.32	67	2.6	89	0.9	21	0	952.5	NA	0.0000	BR	3300	5220	0	0	0
2019/10/19 22:00:00	BASE	15.59	85	29.32	67	2.5	89	0.9	21	0	952.6	NA	0.0000	BR	3300	5250	0	0	0
2019/10/19 22:01:00	BASE	14.70	86	28.71	70	2.5	89	0.8	21	0	952.6	NA	0.0000	BR	3300	5180	0	0	0
2019/10/19 22:02:00	BASE	14.46	83	28.04	69	2.5	89	0.8	22	0	952.6	NA	0.0000	BR	3300	5180	0	0	0
2019/10/19 22:03:00	BASE	15.77	81	27.21	74	2.4	89	0.9	22	0	952.5	NA	0.0000	BR	3300	5350	0	0	0
2019/10/19 22:04:00	BASE	17.19	81	27.21	74	2.4	90	0.9	22	0	952.5	NA	0.0000	BR	3300	5380	0	0	0
2019/10/19 22:05:00	BASE	16.79	85	23.82	76	2.4	90	0.9	21	0	952.5	NA	0.0000	BR	3300	5250	0	0	0
2019/10/19 22:06:00	BASE	16.49	91	23.25	70	2.4	90	0.9	21	0	952.5	NA	0.0000	BR	3300	5180	0	0	0
2019/10/19 22:07:00	BASE	14.53	90	19.70	74	2.4	90	0.9	21	0	952.5	NA	0.0000	BR	3500	5180	0	0	0
2019/10/19 22:08:00	BASE	12.83	88	19.70	74	2.4	90	0.9	20	0	952.6	NA	0.0000	BR	5000	5180	0	0	0
2019/10/19 22:09:00	BASE	13.02	88	19.70	74	2.4	90	0.9	20	0	952.6	NA	0.0000	BR	6000	5020	0	0	0
2019/10/19 22:10:00	BASE	11.12	89	19.70	74	2.4	90	0.9	20	0	952.6	NA	0.0000	BR	7000	5090	0	0	0
2019/10/19 22:11:00	BASE	10.02	89	19.70	74	2.3	90	0.9	19	0	952.6	NA	0.0000	BR	9000	4660	5090	0	0
2019/10/19 22:12:00	BASE	11.39	84	19.70	74	2.3	90	0.8	19	0	952.5	NA	0.0000	BR	9999	4720	0	0	0
2019/10/19 22:13:00	BASE	12.95	79	19.24	74	2.3	90	0.8	18	0	952.5	NA	0.0000	BR	9999	4790	0	0	0
2019/10/19 22:14:00	BASE	14.91	76	18.88	62	2.3	90	0.8	17	0	952.5	NA	0.0000	BR	9999	4760	0	0	0
2019/10/19 22:15:00	BASE	16.22	76	18.88	62	2.3	90	0.8	16	0	952.4	NA	0.0000	BR	9999	4690	0	0	0
2019/10/19 22:16:00	BASE	18.04	75	23.66	70	2.4	90	0.9	15	0	952.4	NA	0.0000	BR	9999	4560	0	0	0
2019/10/19 22:17:00	BASE	19.88	68	23.66	70	2.4	90	0.9	14	0	952.3	NA	0.0000	BR	9999	4330	0	0	0
2019/10/19 22:18:00	BASE	19.60	60	23.66	70	2.4	90	0.9	14	0	952.2	NA	0.0000		9999	4330	0	0	0
2019/10/19 22:19:00	BASE	20.15	57	28.14	54	2.4	90	0.9	13	0	952.2	NA	0.0000		9999	4270	0	0	0
2019/10/19 22:20:00	BASE	22.75	56	28.14	54	2.4	90	0.9	13	0	952.1	NA	0.0000		9999	4200	0	0	0
2019/10/19 22:21:00	BASE	23.87	55	28.14	54	2.4	90	0.9	12	0	952.0	NA	0.0000		9999	4270	0	0	0
2019/10/19 22:22:00	BASE	24.52	54	28.29	56	2.4	90	0.9	12	0	952.0	NA	0.0000		9999	4430	0	0	0
2019/10/19 22:23:00	BASE	24.75	53	28.29	56	2.4	89	0.8	12	0	951.9	NA	0.0000		9999	4400	0	0	0
2019/10/19 22:24:00	BASE	24.31	53	28.29	56	2.4	89	0.8	12	0	952.0	NA	0.0000		9999	4360	0	0	0
2019/10/19 22:25:00	BASE	24.41	53	28.29	56	2.4	89	0.8	12	0	952.0	NA	0.0000		9999	4270	0	0	0
2019/10/19 22:26:00	BASE	24.48	54	28.29	56	2.4	88	0.7	12	0	952.0	NA	0.0000		9999	4300	0	0	0
2019/10/19 22:27:00	BASE	23.29	55	28.29	56	2.4	88	0.7	12	0	952.1	NA	0.0000	UP	9999	4890	0	0	0
2019/10/19 22:28:00	BASE	22.70	58	28.29	56	2.4	88	0.6	13	0	952.0	NA	0.0000	UP	9999	4860	0	0	0
2019/10/19 22:29:00	BASE	23.22	61	28.29	56	2.4	88	0.6	13	0	952.1	NA	0.0000	UP	9999	4790	0	0	0
2019/10/19 22:30:00	BASE	22.36	64	28.29	56	2.4	88	0.6	13	0	952.2	NA	0.0000	UP	9999	4790	0	0	0
2019/10/19 22:31:00	BASE	21.66	64	28.29	56	2.4	88	0.6	13	0	952.2	NA	0.0000	UP	9999	4860	0	0	0
2019/10/19 22:32:00	BASE	20.87	66	27.78	56	2.4	88	0.6	13	0	952.3	NA	0.0000	UP	9999	4920	0	0	0
2019/10/19 22:33:00	BASE	19.82	72	27.78	56	2.4	88	0.6	13	0	952.3	NA	0.0000	UP	9999	4990	0	0	0
2019/10/19 22:34:00	BASE	18.09	79	26.80	55	2.4	88	0.7	13	0	952.4	NA	0.0000	UP	9999	4890	0	0	0
2019/10/19 22:35:00	BASE	15.32	84	26.80	55	2.5	88	0.6	13	0	952.5	NA	0.0000	UP	9999	4790	0	0	0
2019/10/19 22:36:00	BASE	12.67	89	26.70	55	2.4	88	0.6	13	0	952.5	NA	0.0000	UP	9999	4690	0	0	0
2019/10/19 22:37:00	BASE	11.53	95	26.70	55	2.4	88	0.6	13	0	952.5	NA	0.0000	UP	9999	4720	0	0	0
2019/10/19 22:38:00	BASE	12.08	105	26.55	58	2.4	88	0.6	13	0	952.4	NA	0.0000		9999	4720	0	0	0
2019/10/19 22:39:00	BASE	12.36	116	26.55	58	2.2	88	0.4	13	0	952.4	NA	0.0000		9999	4790	0	0	0
2019/10/19 22:40:00	BASE	12.42	119	26.55	58	2.0	88	0.3	13	0	952.3	NA	0.0000		9999	4790	0	0	0
2019/10/19 22:41:00	BASE	12.68	118	22.94	72	1.8	89	0.2	12	0	952.3	NA	0.0000		9999	4860	0	0	0
2019/10/19 22:42:00	BASE	12.32	114	22.94	72	1.7	89	0.0	12	0	952.3	NA	0.0000		9999	4790	0	0	0
2019/10/19 22:43:00	BASE	10.84	112	22.89	84	1.5	89	-0.1	12	0	952.4	NA	0.0000		9999	4760	0	0	0
2019/10/19 22:44:00	BASE	9.27	110	15.38	83	1.5	89	-0.1	12	0	952.4	NA	0.0000		9999	4460	0	0	0
2019/10/19 22:45:00	BASE	9.61	107	13.89	121	1.5	89	-0.1	12	0	952.4	NA	0.0000		9999	4360	0	0	0
2019/10/19 22:46:00	BASE	9.67	109	13.89	121	1.5	89	-0.1	11	0	952.4	NA	0.0000		9999	4720	0	0	0
2019/10/19 22:47:00	BASE	8.58	109	13.89	121	1.6	89	-0.1	11	0	952.4	NA	0.0000		9999	4690	0	0	0
2019/10/19 22:48:00	BASE	8.58	110	13.89	121	1.6	89	-0.0	11	0	952.3	NA	0.0000		9999	4720	0	0	0
2019/10/19 22:49:00	BASE	9.12	114	13.89	121	1.7	89	-0.0	11	0	952.3	NA	0.0000		9999	4590	0	0	0
2019/10/19 22:50:00	BASE	8.25	109	13.89	121	1.7	89	0.0	11	0	952.3	NA	0.0000		9999	4360	0	0	0
2019/10/19 22:51:00	BASE	7.57	102	13.79	101	1.7	89	0.1	11	0	952.3	NA	0.0000		9999	4400	0	0	0
2019/10/19 22:52:00	BASE	7.61	108	12.09	110	1.8	89	0.1	11	0	952.3	NA	0.0000		9999	4790	0	0	0
2019/10/19 22:53:00	BASE	7.31	112	12.09	110	1.8	88	0.0	11	0	952.3	NA	0.0000	UP	9999	4660	0	0	0
2019/10/19 22:54:00	BASE	8.47	106	12.09	110	1.8	89	0.1	10	0	952.3	NA	0.0000	UP	9999	4560	0	0	0
2019/10/19 22:55:00	BASE	9.77	106	12.55	102	1.9	89	0.2	10	0	952.3	NA	0.0000	UP	9999	4530	0	0	0
2019/10/19 22:56:00	BASE	9.55	112	12.55	102	1.9	89	0.2	10	0	952.2	NA	0.0000	UP	9999	4490	0	0	0
2019/10/19 22:57:00	BASE	10.11	114	13.07	102	1.8	89	0.2	9	0	952.2	NA	0.0000	UP	9999	4460	0	0	0
2019/10/19 22:58:00	BASE	12.17	116	15.64	126	1.8	89	0.2	9	0	952.1	NA	0.0000	UP	9999	4400	0	0	0
2019/10/19 22:59:00	BASE	13.09	119	16.26	120	1.7	89	0.1	8	0	952.1	NA	0.0000	UP	9999	4330	0	0	0
2019/10/19 23:00:00	BASE	13.56	123	16.26	120	1.6	89	-0.1	8	0	952.0	NA	0.0000	UP	9999	4360	0	0	0
2019/10/19 23:01:00	BASE	12.72	122	16.26	120	1.6	88	-0.2	8	0	952.1	NA	0.0000	UP	9999	4360	0	0	0
2019/10/19 23:02:00	BASE	10.64	123	16.26	120	1.5	88	-0.2	7	0	952.1	NA	0.0000	UP	9999	4360	0	0	0
2019/10/19 23:03:00	BASE	10.81	126	16.26	120	1.5	88	-0.3	7	0	952.0	NA	0.0000	UP	9999	4490	0	0	0
2019/10/19 23:04:00	BASE	12.21	125	16.26	120	1.5	88	-0.3	7	0	952.0	NA	0.0000		9999	4530	0	0	0
2019/10/19 23:05:00	BASE	13.58	125	16.31	127	1.4	88	-0.3	6	0	951.9	NA	0.0000		9999	4560	0	0	0
2019/10/19 23:06:00	BASE	15.10	122	18.42	120	1.4	88	-0.4	6	0	951.9	NA	0.0000		9999	4400	0	0	0
2019/10/19 23:07:00	BASE	15.67	121	18.42	120	1.4	88	-0.4	6	0	951.9	NA	0.0000		9999	4400	0	0	0
2019/10/19 23:08:00	BASE	15.72	124	18.42	120	1.4	88	-0.4	5	0	951.8	NA	0.0000		9999	4560	0	0	0
2019/10/19 23:09:00	BASE	15.26	133	18.42	120	1.4	88	-0.4	5	0	951.8	NA	0.0000		9999	4590	0	0	0
2019/10/19 23:10:00	BASE	14.15	135	18.42	120	1.4	88	-0.4	5	0	951.9	NA	0.0000		9999	4760	0	0	0
2019/10/19 23:11:00	BASE	14.47	130	18.42	120	1.3	88	-0.4	4	0	951.8	NA	0.0000		9999	4690	0	0	0
2019/10/19 23:12:00	BASE	15.43	124	18.42	120	1.3	88	-0.4	4	0	951.8	NA	0.0000		9999	4890	0	0	0
2019/10/19 23:13:00	BASE	14.70	124	18.42	120	1.3	88	-0.4	4	0	951.8	NA	0.0000		9999	4860	0	0	0
2019/10/19 23:14:00	BASE	12.92	119	18.42	120	1.3	89	-0.4	3	0	952.1	NA	0.0000		9999	4720	0	0	0
2019/10/19 23:15:00	BASE	12.04	115	18.42	120	1.3	89	-0.3	3	0	952.1	NA	0.0000		9999	4660	0	0	0
2019/10/19 23:16:00	BASE	11.30	123	18.01	124	1.4	89	-0.2	3	0	952.2	NA	0.0000		9999	4560	0	0	0
2019/10/19 23:17:00	BASE	10.04	132	17.70	127	1.4	89	-0.3	3	0	952.2	NA	0.0000		9999	4530	0	0	0
2019/10/19 23:18:00	BASE	8.77	136	16.93	120	1.4	89	-0.3	2	0	952.3	NA	0.0000		9999	4360	0	0	0
2019/10/19 23:19:00	BASE	8.17	137	16.93	120	1.3	88	-0.4	2	0	952.3	NA	0.0000		9999	4400	0	0	0
2019/10/19 23:20:00	BASE	7.94	139	16.93	120	1.2	88	-0.5	2	0	952.3	NA	0.0000		9999	4130	0	0	0
2019/10/19 23:21:00	BASE	8.00	143	16.93	120	1.2	88	-0.6	2	0	952.3	NA	0.0000		9999	4130	0	0	0
2019/10/19 23:22:00	BASE	8.57	142	15.12	124	1.1	88	-0.6	2	0	952.3	NA	0.0000		9999	4170	0	0	0
2019/10/19 23:23:00	BASE	8.87	141	13.27	113	1.1	88	-0.6	2	0	952.2	NA	0.0000		9999	4560	0	0	0
2019/10/19 23:24:00	BASE	9.25	142	13.02	112	1.1	88	-0.6	1	0	952.2	NA	0.0000		9999	4560	0	0	0
2019/10/19 23:25:00	BASE	10.49	144	12.60	140	1.1	88	-0.6	1	0	952.2	NA	0.0000		9999	3970	0	0	0
2019/10/19 23:26:00	BASE	11.13	147	12.60	140	1.2	88	-0.6	1	0	952.3	NA	0.0000		9999	4000	0	0	0
2019/10/19 23:27:00	BASE	10.58	144	12.60	140	1.2	88	-0.6	1	0	952.3	NA	0.0000		9999	4070	0	0	0
2019/10/19 23:28:00	BASE	10.23	143	12.60	140	1.3	88	-0.5	1	0	952.3	NA	0.0000		9999	4040	0	0	0
2019/10/19 23:29:00	BASE	9.95	144	12.60	140	1.3	88	-0.5	1	0	952.3	NA	0.0000		9999	4040	0	0	0
2019/10/19 23:30:00	BASE	9.81	142	12.60	140	1.3	88	-0.5	1	0	952.3	NA	0.0000		9999	4000	0	0	0
2019/10/19 23:31:00	BASE	10.29	141	12.60	140	1.4	87	-0.5	1	0	952.3	NA	0.0000		9999	4070	0	0	0
2019/10/19 23:32:00	BASE	10.31	132	12.60	140	1.4	87	-0.5	1	0	952.4	NA	0.0000		9999	4040	0	0	0
2019/10/19 23:33:00	BASE	9.19	121	12.60	140	1.4	87	-0.5	1	0	952.4	NA	0.0000		9999	3970	0	0	0
2019/10/19 23:34:00	BASE	8.38	118	12.60	140	1.5	86	-0.5	1	0	952.4	NA	0.0000		9999	3900	0	0	0
2019/10/19 23:35:00	BASE	7.49	116	11.42	134	1.6	86	-0.6	1	0	952.4	NA	0.0000		9999	3970	0	0	0
2019/10/19 23:36:00	BASE	6.25	107	11.42	134	1.6	85	-0.6	1	0	952.5	NA	0.0000		9999	3970	0	0	0
2019/10/19 23:37:00	BASE	5.84	104	11.42	134	1.7	85	-0.6	1	0	952.6	NA	0.0000		9999	3870	0	0	0
2019/10/19 23:38:00	BASE	5.26	102	11.42	134	1.7	84	-0.7	1	0	952.7	NA	0.0000		9999	3770	0	0	0
2019/10/19 23:39:01	BASE	5.25	109	11.42	134	1.7	84	-0.8	1	0	952.7	NA	0.0000		9999	3710	0	0	0
2019/10/19 23:40:01	BASE	5.40	124	11.42	134	1.7	83	-0.8	1	0	952.8	NA	0.0000		9999	3540	0	0	0
2019/10/19 23:41:01	BASE	4.68	131	11.21	131	1.7	83	-0.8	1	0	952.8	NA	0.0000		9999	3510	0	0	0
2019/10/19 23:42:01	BASE	4.04	137	9.05	122	1.7	83	-0.9	1	0	952.8	NA	0.0000		9999	3510	0	0	0
2019/10/19 23:43:01	BASE	3.05	155	9.05	122	1.7	83	-0.9	1	0	952.9	NA	0.0000		9999	3450	0	0	0
2019/10/19 23:44:01	BASE	2.18	185	7.92	121	1.7	82	-1.0	1	0	952.9	NA	0.0000		9999	3350	0	0	0
2019/10/19 23:45:01	BASE	2.57	205	6.64	125	1.7	82	-1.1	0	0	952.9	NA	0.0000		9999	3410	0	0	0
2019/10/19 23:46:01	BASE	3.02	203	6.64	125	1.7	81	-1.2	0	0	952.9	NA	0.0000		9999	3310	0	0	0
2019/10/19 23:47:01	BASE	2.50	191	6.64	125	1.7	81	-1.2	0	0	953.0	NA	0.0000		9999	3180	0	0	0
2019/10/19 23:48:01	BASE	1.79	216	6.64	125	1.6	81	-1.3	0	0	953.0	NA	0.0000		9999	3380	0	0	0
2019/10/19 23:49:01	BASE	1.74	225	6.28	124	1.6	81	-1.3	0	0	953.1	NA	0.0000		9999	3580	0	0	0
2019/10/19 23:50:01	BASE	2.19	198	4.78	147	1.6	81	-1.2	0	0	953.1	NA	0.0000		9999	2260	3450	3970	0
2019/10/19 23:51:01	BASE	2.29	191	4.17	137	1.6	82	-1.2	0	0	953.1	NA	0.0000		9999	2200	3510	0	0
2019/10/19 23:52:01	BASE	2.15	181	3.70	203	1.6	82	-1.2	0	0	953.2	NA	0.0000		9999	2030	3310	0	0
2019/10/19 23:53:01	BASE	1.62	173	3.70	203	1.6	82	-1.2	0	0	953.3	NA	0.0000		9999	2230	3380	0	0
2019/10/19 23:54:01	BASE	0.76	174	3.70	203	1.6	82	-1.2	0	0	953.2	NA	0.0000		9999	3450	0	0	0
2019/10/19 23:55:01	BASE	0.35	177	3.34	199	1.6	82	-1.2	0	0	953.2	NA	0.0000		9999	4330	0	0	0
2019/10/19 23:56:01	BASE	1.15	351	4.12	2	1.6	82	-1.2	0	0	953.3	NA	0.0000		9999	4790	0	0	0
2019/10/19 23:57:01	BASE	3.46	4	5.40	6	1.6	82	-1.1	0	0	953.4	NA	0.0000		9999	4920	0	0	0
2019/10/19 23:58:01	BASE	4.62	8	5.40	6	1.5	83	-1.1	0	0	953.4	NA	0.0000		9999	5020	0	0	0
2019/10/19 23:59:01	BASE	3.64	14	5.40	6	1.5	83	-1.1	0	0	953.4	NA	0.0000		9999	5180	0	0	0